<?xml version="1.0" encoding="UTF-8" standalone="no" ?>
<gpx xmlns="http://www.topografix.com/GPX/1/1" xmlns:xsi="http://www.w3.org/2001/XMLSchema-instance" xsi:schemaLocation="http://www.topografix.com/GPX/1/1 http://www.topografix.com/GPX/1/1/gpx.xsd" version="1.1" creator="VisuGPX - https://www.visugpx.com">
  <metadata>
    <name>Rando VTT en hautes Cevennes départ Aujac  -boucle</name>
    <desc><![CDATA[distance 25 km  boucle
dénivelé positif 740 mètres

parcours exigeant sur le plan technique et physique autant en montée qu en descente
Vieux sentier plus ou moins pavé longeant la vallée de la Cèze,
 raide descente dans un vallon et remontée pour des mollets d acier
Un etang sur la crete d Aubrias invite a faire une pause 
( lieu privé ou le passage est autorisé; a respecter: bien refermer les barrieres ...)
Apres ca encore une descente sportive et une longue remontée sur le col du Péras par une large piste avant de redescendre sur Aujac
En bref ; bon pour les jambes ,les bras, et les yeux.
]]></desc>
  </metadata>
  <trk>
    <name><![CDATA[Circuit 'dep Aujac on GPSies.com]]></name>
    <trkseg>
      <trkpt lat="44.3471" lon="4.01217">
        <ele>505</ele>
        <time>2017-11-20T09:45:50Z</time>
      </trkpt>
      <trkpt lat="44.34709" lon="4.01218">
        <ele>505</ele>
        <time>2017-11-20T09:46:20Z</time>
      </trkpt>
      <trkpt lat="44.34704" lon="4.01239">
        <ele>505</ele>
        <time>2017-11-20T09:46:29Z</time>
      </trkpt>
      <trkpt lat="44.34736" lon="4.01299">
        <ele>505</ele>
        <time>2017-11-20T09:46:47Z</time>
      </trkpt>
      <trkpt lat="44.34769" lon="4.01333">
        <ele>504</ele>
        <time>2017-11-20T09:47:00Z</time>
      </trkpt>
      <trkpt lat="44.34779" lon="4.01349">
        <ele>503</ele>
        <time>2017-11-20T09:47:04Z</time>
      </trkpt>
      <trkpt lat="44.34784" lon="4.01358">
        <ele>503</ele>
        <time>2017-11-20T09:47:06Z</time>
      </trkpt>
      <trkpt lat="44.34794" lon="4.01371">
        <ele>503</ele>
        <time>2017-11-20T09:47:09Z</time>
      </trkpt>
      <trkpt lat="44.3483" lon="4.01403">
        <ele>503</ele>
        <time>2017-11-20T09:47:22Z</time>
      </trkpt>
      <trkpt lat="44.34797" lon="4.01468">
        <ele>504</ele>
        <time>2017-11-20T09:47:38Z</time>
      </trkpt>
      <trkpt lat="44.3479" lon="4.01482">
        <ele>503</ele>
        <time>2017-11-20T09:47:42Z</time>
      </trkpt>
      <trkpt lat="44.34789" lon="4.01484">
        <ele>503</ele>
        <time>2017-11-20T09:47:43Z</time>
      </trkpt>
      <trkpt lat="44.34789" lon="4.01484">
        <ele>501</ele>
        <time>2017-11-20T09:47:45Z</time>
      </trkpt>
      <trkpt lat="44.34789" lon="4.01484">
        <ele>500</ele>
        <time>2017-11-20T09:47:47Z</time>
      </trkpt>
      <trkpt lat="44.34789" lon="4.01484">
        <ele>499</ele>
        <time>2017-11-20T09:47:53Z</time>
      </trkpt>
      <trkpt lat="44.34789" lon="4.01484">
        <ele>498</ele>
        <time>2017-11-20T09:48:14Z</time>
      </trkpt>
      <trkpt lat="44.34789" lon="4.01484">
        <ele>498</ele>
        <time>2017-11-20T09:48:17Z</time>
      </trkpt>
      <trkpt lat="44.34794" lon="4.015">
        <ele>498</ele>
        <time>2017-11-20T09:48:22Z</time>
      </trkpt>
      <trkpt lat="44.34802" lon="4.01526">
        <ele>498</ele>
        <time>2017-11-20T09:48:26Z</time>
      </trkpt>
      <trkpt lat="44.34806" lon="4.01539">
        <ele>498</ele>
        <time>2017-11-20T09:48:28Z</time>
      </trkpt>
      <trkpt lat="44.34807" lon="4.01546">
        <ele>497</ele>
        <time>2017-11-20T09:48:29Z</time>
      </trkpt>
      <trkpt lat="44.34809" lon="4.01561">
        <ele>497</ele>
        <time>2017-11-20T09:48:31Z</time>
      </trkpt>
      <trkpt lat="44.3481" lon="4.01578">
        <ele>496</ele>
        <time>2017-11-20T09:48:33Z</time>
      </trkpt>
      <trkpt lat="44.3481" lon="4.01587">
        <ele>496</ele>
        <time>2017-11-20T09:48:34Z</time>
      </trkpt>
      <trkpt lat="44.3481" lon="4.01595">
        <ele>495</ele>
        <time>2017-11-20T09:48:35Z</time>
      </trkpt>
      <trkpt lat="44.34818" lon="4.01616">
        <ele>495</ele>
        <time>2017-11-20T09:48:38Z</time>
      </trkpt>
      <trkpt lat="44.34823" lon="4.0163">
        <ele>493</ele>
        <time>2017-11-20T09:48:40Z</time>
      </trkpt>
      <trkpt lat="44.34829" lon="4.01643">
        <ele>492</ele>
        <time>2017-11-20T09:48:42Z</time>
      </trkpt>
      <trkpt lat="44.34832" lon="4.01649">
        <ele>491</ele>
        <time>2017-11-20T09:48:43Z</time>
      </trkpt>
      <trkpt lat="44.34834" lon="4.01653">
        <ele>489</ele>
        <time>2017-11-20T09:48:45Z</time>
      </trkpt>
      <trkpt lat="44.34834" lon="4.01653">
        <ele>488</ele>
        <time>2017-11-20T09:48:47Z</time>
      </trkpt>
      <trkpt lat="44.34834" lon="4.01653">
        <ele>487</ele>
        <time>2017-11-20T09:48:50Z</time>
      </trkpt>
      <trkpt lat="44.34837" lon="4.01662">
        <ele>486</ele>
        <time>2017-11-20T09:48:57Z</time>
      </trkpt>
      <trkpt lat="44.34842" lon="4.017">
        <ele>486</ele>
        <time>2017-11-20T09:49:02Z</time>
      </trkpt>
      <trkpt lat="44.34848" lon="4.01738">
        <ele>485</ele>
        <time>2017-11-20T09:49:06Z</time>
      </trkpt>
      <trkpt lat="44.34852" lon="4.01757">
        <ele>482</ele>
        <time>2017-11-20T09:49:08Z</time>
      </trkpt>
      <trkpt lat="44.34854" lon="4.01765">
        <ele>481</ele>
        <time>2017-11-20T09:49:09Z</time>
      </trkpt>
      <trkpt lat="44.34856" lon="4.01772">
        <ele>480</ele>
        <time>2017-11-20T09:49:10Z</time>
      </trkpt>
      <trkpt lat="44.34859" lon="4.01784">
        <ele>478</ele>
        <time>2017-11-20T09:49:12Z</time>
      </trkpt>
      <trkpt lat="44.3486" lon="4.01796">
        <ele>476</ele>
        <time>2017-11-20T09:49:14Z</time>
      </trkpt>
      <trkpt lat="44.3486" lon="4.01822">
        <ele>475</ele>
        <time>2017-11-20T09:49:18Z</time>
      </trkpt>
      <trkpt lat="44.34859" lon="4.01851">
        <ele>474</ele>
        <time>2017-11-20T09:49:23Z</time>
      </trkpt>
      <trkpt lat="44.34858" lon="4.01856">
        <ele>473</ele>
        <time>2017-11-20T09:49:24Z</time>
      </trkpt>
      <trkpt lat="44.34856" lon="4.01874">
        <ele>473</ele>
        <time>2017-11-20T09:49:27Z</time>
      </trkpt>
      <trkpt lat="44.34843" lon="4.01905">
        <ele>471</ele>
        <time>2017-11-20T09:49:33Z</time>
      </trkpt>
      <trkpt lat="44.34832" lon="4.01919">
        <ele>470</ele>
        <time>2017-11-20T09:49:36Z</time>
      </trkpt>
      <trkpt lat="44.34819" lon="4.0194">
        <ele>469</ele>
        <time>2017-11-20T09:49:40Z</time>
      </trkpt>
      <trkpt lat="44.34817" lon="4.01946">
        <ele>468</ele>
        <time>2017-11-20T09:49:41Z</time>
      </trkpt>
      <trkpt lat="44.34815" lon="4.01958">
        <ele>467</ele>
        <time>2017-11-20T09:49:43Z</time>
      </trkpt>
      <trkpt lat="44.34815" lon="4.01973">
        <ele>465</ele>
        <time>2017-11-20T09:49:45Z</time>
      </trkpt>
      <trkpt lat="44.34815" lon="4.0199">
        <ele>464</ele>
        <time>2017-11-20T09:49:47Z</time>
      </trkpt>
      <trkpt lat="44.34817" lon="4.02004">
        <ele>462</ele>
        <time>2017-11-20T09:49:49Z</time>
      </trkpt>
      <trkpt lat="44.34817" lon="4.02015">
        <ele>461</ele>
        <time>2017-11-20T09:49:51Z</time>
      </trkpt>
      <trkpt lat="44.34817" lon="4.02028">
        <ele>460</ele>
        <time>2017-11-20T09:49:53Z</time>
      </trkpt>
      <trkpt lat="44.34817" lon="4.02034">
        <ele>458</ele>
        <time>2017-11-20T09:49:54Z</time>
      </trkpt>
      <trkpt lat="44.34817" lon="4.0204">
        <ele>457</ele>
        <time>2017-11-20T09:49:55Z</time>
      </trkpt>
      <trkpt lat="44.34816" lon="4.02047">
        <ele>457</ele>
        <time>2017-11-20T09:49:56Z</time>
      </trkpt>
      <trkpt lat="44.3481" lon="4.02068">
        <ele>456</ele>
        <time>2017-11-20T09:50:00Z</time>
      </trkpt>
      <trkpt lat="44.34804" lon="4.02073">
        <ele>454</ele>
        <time>2017-11-20T09:50:02Z</time>
      </trkpt>
      <trkpt lat="44.34799" lon="4.02077">
        <ele>453</ele>
        <time>2017-11-20T09:50:04Z</time>
      </trkpt>
      <trkpt lat="44.34792" lon="4.02081">
        <ele>452</ele>
        <time>2017-11-20T09:50:06Z</time>
      </trkpt>
      <trkpt lat="44.34771" lon="4.02096">
        <ele>451</ele>
        <time>2017-11-20T09:50:11Z</time>
      </trkpt>
      <trkpt lat="44.34767" lon="4.02101">
        <ele>450</ele>
        <time>2017-11-20T09:50:12Z</time>
      </trkpt>
      <trkpt lat="44.3476" lon="4.02112">
        <ele>449</ele>
        <time>2017-11-20T09:50:14Z</time>
      </trkpt>
      <trkpt lat="44.34755" lon="4.02122">
        <ele>448</ele>
        <time>2017-11-20T09:50:16Z</time>
      </trkpt>
      <trkpt lat="44.34752" lon="4.02132">
        <ele>447</ele>
        <time>2017-11-20T09:50:18Z</time>
      </trkpt>
      <trkpt lat="44.34749" lon="4.02147">
        <ele>446</ele>
        <time>2017-11-20T09:50:21Z</time>
      </trkpt>
      <trkpt lat="44.34748" lon="4.0215">
        <ele>445</ele>
        <time>2017-11-20T09:50:22Z</time>
      </trkpt>
      <trkpt lat="44.34748" lon="4.0216">
        <ele>444</ele>
        <time>2017-11-20T09:50:25Z</time>
      </trkpt>
      <trkpt lat="44.34747" lon="4.0219">
        <ele>443</ele>
        <time>2017-11-20T09:50:31Z</time>
      </trkpt>
      <trkpt lat="44.34737" lon="4.02192">
        <ele>441</ele>
        <time>2017-11-20T09:50:35Z</time>
      </trkpt>
      <trkpt lat="44.34734" lon="4.02192">
        <ele>441</ele>
        <time>2017-11-20T09:50:36Z</time>
      </trkpt>
      <trkpt lat="44.34731" lon="4.02192">
        <ele>441</ele>
        <time>2017-11-20T09:50:37Z</time>
      </trkpt>
      <trkpt lat="44.34699" lon="4.02166">
        <ele>441</ele>
        <time>2017-11-20T09:50:52Z</time>
      </trkpt>
      <trkpt lat="44.34688" lon="4.02157">
        <ele>441</ele>
        <time>2017-11-20T09:50:58Z</time>
      </trkpt>
      <trkpt lat="44.34681" lon="4.0215">
        <ele>442</ele>
        <time>2017-11-20T09:51:02Z</time>
      </trkpt>
      <trkpt lat="44.34679" lon="4.02148">
        <ele>442</ele>
        <time>2017-11-20T09:51:03Z</time>
      </trkpt>
      <trkpt lat="44.3463" lon="4.0211">
        <ele>442</ele>
        <time>2017-11-20T09:51:20Z</time>
      </trkpt>
      <trkpt lat="44.34596" lon="4.02104">
        <ele>441</ele>
        <time>2017-11-20T09:51:30Z</time>
      </trkpt>
      <trkpt lat="44.34575" lon="4.02086">
        <ele>441</ele>
        <time>2017-11-20T09:51:36Z</time>
      </trkpt>
      <trkpt lat="44.34572" lon="4.02081">
        <ele>441</ele>
        <time>2017-11-20T09:51:37Z</time>
      </trkpt>
      <trkpt lat="44.34565" lon="4.02069">
        <ele>439</ele>
        <time>2017-11-20T09:51:40Z</time>
      </trkpt>
      <trkpt lat="44.34561" lon="4.02066">
        <ele>439</ele>
        <time>2017-11-20T09:51:42Z</time>
      </trkpt>
      <trkpt lat="44.34559" lon="4.02068">
        <ele>438</ele>
        <time>2017-11-20T09:51:43Z</time>
      </trkpt>
      <trkpt lat="44.34548" lon="4.02089">
        <ele>437</ele>
        <time>2017-11-20T09:51:49Z</time>
      </trkpt>
      <trkpt lat="44.34541" lon="4.02103">
        <ele>437</ele>
        <time>2017-11-20T09:51:52Z</time>
      </trkpt>
      <trkpt lat="44.34535" lon="4.0212">
        <ele>437</ele>
        <time>2017-11-20T09:51:55Z</time>
      </trkpt>
      <trkpt lat="44.34532" lon="4.02132">
        <ele>436</ele>
        <time>2017-11-20T09:51:57Z</time>
      </trkpt>
      <trkpt lat="44.34531" lon="4.02139">
        <ele>436</ele>
        <time>2017-11-20T09:51:58Z</time>
      </trkpt>
      <trkpt lat="44.34527" lon="4.02161">
        <ele>435</ele>
        <time>2017-11-20T09:52:01Z</time>
      </trkpt>
      <trkpt lat="44.34522" lon="4.02175">
        <ele>433</ele>
        <time>2017-11-20T09:52:03Z</time>
      </trkpt>
      <trkpt lat="44.34515" lon="4.02194">
        <ele>432</ele>
        <time>2017-11-20T09:52:06Z</time>
      </trkpt>
      <trkpt lat="44.34512" lon="4.02199">
        <ele>432</ele>
        <time>2017-11-20T09:52:07Z</time>
      </trkpt>
      <trkpt lat="44.34502" lon="4.02215">
        <ele>431</ele>
        <time>2017-11-20T09:52:10Z</time>
      </trkpt>
      <trkpt lat="44.345" lon="4.0222">
        <ele>431</ele>
        <time>2017-11-20T09:52:11Z</time>
      </trkpt>
      <trkpt lat="44.34495" lon="4.0223">
        <ele>430</ele>
        <time>2017-11-20T09:52:13Z</time>
      </trkpt>
      <trkpt lat="44.34485" lon="4.02253">
        <ele>429</ele>
        <time>2017-11-20T09:52:18Z</time>
      </trkpt>
      <trkpt lat="44.34481" lon="4.02263">
        <ele>428</ele>
        <time>2017-11-20T09:52:21Z</time>
      </trkpt>
      <trkpt lat="44.34474" lon="4.02281">
        <ele>427</ele>
        <time>2017-11-20T09:52:25Z</time>
      </trkpt>
      <trkpt lat="44.3446" lon="4.02305">
        <ele>426</ele>
        <time>2017-11-20T09:52:31Z</time>
      </trkpt>
      <trkpt lat="44.34412" lon="4.02336">
        <ele>425</ele>
        <time>2017-11-20T09:52:48Z</time>
      </trkpt>
      <trkpt lat="44.34356" lon="4.02339">
        <ele>425</ele>
        <time>2017-11-20T09:53:05Z</time>
      </trkpt>
      <trkpt lat="44.34299" lon="4.02348">
        <ele>425</ele>
        <time>2017-11-20T09:53:23Z</time>
      </trkpt>
      <trkpt lat="44.34262" lon="4.02378">
        <ele>426</ele>
        <time>2017-11-20T09:53:39Z</time>
      </trkpt>
      <trkpt lat="44.34261" lon="4.02379">
        <ele>426</ele>
        <time>2017-11-20T09:54:18Z</time>
      </trkpt>
      <trkpt lat="44.3425" lon="4.02386">
        <ele>426</ele>
        <time>2017-11-20T09:54:22Z</time>
      </trkpt>
      <trkpt lat="44.34223" lon="4.024">
        <ele>425</ele>
        <time>2017-11-20T09:54:29Z</time>
      </trkpt>
      <trkpt lat="44.34207" lon="4.02407">
        <ele>424</ele>
        <time>2017-11-20T09:54:34Z</time>
      </trkpt>
      <trkpt lat="44.34194" lon="4.02415">
        <ele>424</ele>
        <time>2017-11-20T09:54:43Z</time>
      </trkpt>
      <trkpt lat="44.34225" lon="4.02398">
        <ele>423</ele>
        <time>2017-11-20T09:54:58Z</time>
      </trkpt>
      <trkpt lat="44.34224" lon="4.02407">
        <ele>423</ele>
        <time>2017-11-20T09:55:03Z</time>
      </trkpt>
      <trkpt lat="44.34187" lon="4.02462">
        <ele>425</ele>
        <time>2017-11-20T09:55:22Z</time>
      </trkpt>
      <trkpt lat="44.34166" lon="4.02501">
        <ele>425</ele>
        <time>2017-11-20T09:55:33Z</time>
      </trkpt>
      <trkpt lat="44.34132" lon="4.02549">
        <ele>426</ele>
        <time>2017-11-20T09:55:56Z</time>
      </trkpt>
      <trkpt lat="44.34122" lon="4.02565">
        <ele>425</ele>
        <time>2017-11-20T09:56:05Z</time>
      </trkpt>
      <trkpt lat="44.34112" lon="4.02572">
        <ele>425</ele>
        <time>2017-11-20T09:56:09Z</time>
      </trkpt>
      <trkpt lat="44.34096" lon="4.02588">
        <ele>424</ele>
        <time>2017-11-20T09:56:13Z</time>
      </trkpt>
      <trkpt lat="44.34084" lon="4.02606">
        <ele>424</ele>
        <time>2017-11-20T09:56:17Z</time>
      </trkpt>
      <trkpt lat="44.34081" lon="4.02616">
        <ele>422</ele>
        <time>2017-11-20T09:56:19Z</time>
      </trkpt>
      <trkpt lat="44.34077" lon="4.02627">
        <ele>422</ele>
        <time>2017-11-20T09:56:21Z</time>
      </trkpt>
      <trkpt lat="44.34073" lon="4.02638">
        <ele>421</ele>
        <time>2017-11-20T09:56:23Z</time>
      </trkpt>
      <trkpt lat="44.34067" lon="4.02657">
        <ele>420</ele>
        <time>2017-11-20T09:56:27Z</time>
      </trkpt>
      <trkpt lat="44.3406" lon="4.02678">
        <ele>419</ele>
        <time>2017-11-20T09:56:32Z</time>
      </trkpt>
      <trkpt lat="44.34056" lon="4.02684">
        <ele>419</ele>
        <time>2017-11-20T09:56:34Z</time>
      </trkpt>
      <trkpt lat="44.34022" lon="4.02676">
        <ele>418</ele>
        <time>2017-11-20T09:56:43Z</time>
      </trkpt>
      <trkpt lat="44.33979" lon="4.02668">
        <ele>417</ele>
        <time>2017-11-20T09:56:59Z</time>
      </trkpt>
      <trkpt lat="44.33966" lon="4.02663">
        <ele>417</ele>
        <time>2017-11-20T09:57:02Z</time>
      </trkpt>
      <trkpt lat="44.33947" lon="4.02652">
        <ele>416</ele>
        <time>2017-11-20T09:57:06Z</time>
      </trkpt>
      <trkpt lat="44.33944" lon="4.02648">
        <ele>416</ele>
        <time>2017-11-20T09:57:07Z</time>
      </trkpt>
      <trkpt lat="44.33939" lon="4.02641">
        <ele>415</ele>
        <time>2017-11-20T09:57:09Z</time>
      </trkpt>
      <trkpt lat="44.33933" lon="4.02625">
        <ele>413</ele>
        <time>2017-11-20T09:57:12Z</time>
      </trkpt>
      <trkpt lat="44.33928" lon="4.02621">
        <ele>412</ele>
        <time>2017-11-20T09:57:14Z</time>
      </trkpt>
      <trkpt lat="44.33924" lon="4.02625">
        <ele>410</ele>
        <time>2017-11-20T09:57:16Z</time>
      </trkpt>
      <trkpt lat="44.3392" lon="4.02641">
        <ele>409</ele>
        <time>2017-11-20T09:57:19Z</time>
      </trkpt>
      <trkpt lat="44.33919" lon="4.02653">
        <ele>409</ele>
        <time>2017-11-20T09:57:21Z</time>
      </trkpt>
      <trkpt lat="44.33917" lon="4.02659">
        <ele>408</ele>
        <time>2017-11-20T09:57:22Z</time>
      </trkpt>
      <trkpt lat="44.33915" lon="4.02665">
        <ele>407</ele>
        <time>2017-11-20T09:57:26Z</time>
      </trkpt>
      <trkpt lat="44.33915" lon="4.02667">
        <ele>407</ele>
        <time>2017-11-20T09:57:42Z</time>
      </trkpt>
      <trkpt lat="44.33902" lon="4.02713">
        <ele>406</ele>
        <time>2017-11-20T09:57:52Z</time>
      </trkpt>
      <trkpt lat="44.33899" lon="4.02727">
        <ele>406</ele>
        <time>2017-11-20T09:57:54Z</time>
      </trkpt>
      <trkpt lat="44.33892" lon="4.02741">
        <ele>405</ele>
        <time>2017-11-20T09:57:56Z</time>
      </trkpt>
      <trkpt lat="44.33881" lon="4.02765">
        <ele>404</ele>
        <time>2017-11-20T09:57:59Z</time>
      </trkpt>
      <trkpt lat="44.33882" lon="4.02798">
        <ele>403</ele>
        <time>2017-11-20T09:58:02Z</time>
      </trkpt>
      <trkpt lat="44.33884" lon="4.02822">
        <ele>402</ele>
        <time>2017-11-20T09:58:04Z</time>
      </trkpt>
      <trkpt lat="44.33886" lon="4.02844">
        <ele>400</ele>
        <time>2017-11-20T09:58:06Z</time>
      </trkpt>
      <trkpt lat="44.33888" lon="4.02855">
        <ele>399</ele>
        <time>2017-11-20T09:58:07Z</time>
      </trkpt>
      <trkpt lat="44.33891" lon="4.02865">
        <ele>398</ele>
        <time>2017-11-20T09:58:08Z</time>
      </trkpt>
      <trkpt lat="44.33894" lon="4.02874">
        <ele>396</ele>
        <time>2017-11-20T09:58:09Z</time>
      </trkpt>
      <trkpt lat="44.33899" lon="4.02882">
        <ele>395</ele>
        <time>2017-11-20T09:58:10Z</time>
      </trkpt>
      <trkpt lat="44.33904" lon="4.02887">
        <ele>393</ele>
        <time>2017-11-20T09:58:11Z</time>
      </trkpt>
      <trkpt lat="44.33909" lon="4.02891">
        <ele>392</ele>
        <time>2017-11-20T09:58:12Z</time>
      </trkpt>
      <trkpt lat="44.3392" lon="4.02894">
        <ele>390</ele>
        <time>2017-11-20T09:58:14Z</time>
      </trkpt>
      <trkpt lat="44.3393" lon="4.02896">
        <ele>389</ele>
        <time>2017-11-20T09:58:16Z</time>
      </trkpt>
      <trkpt lat="44.33947" lon="4.02896">
        <ele>389</ele>
        <time>2017-11-20T09:58:20Z</time>
      </trkpt>
      <trkpt lat="44.33954" lon="4.02897">
        <ele>389</ele>
        <time>2017-11-20T09:58:22Z</time>
      </trkpt>
      <trkpt lat="44.3396" lon="4.02901">
        <ele>389</ele>
        <time>2017-11-20T09:58:24Z</time>
      </trkpt>
      <trkpt lat="44.33958" lon="4.02915">
        <ele>390</ele>
        <time>2017-11-20T09:58:27Z</time>
      </trkpt>
      <trkpt lat="44.33972" lon="4.02935">
        <ele>391</ele>
        <time>2017-11-20T09:58:32Z</time>
      </trkpt>
      <trkpt lat="44.33981" lon="4.0294">
        <ele>391</ele>
        <time>2017-11-20T09:58:34Z</time>
      </trkpt>
      <trkpt lat="44.34011" lon="4.0295">
        <ele>390</ele>
        <time>2017-11-20T09:58:40Z</time>
      </trkpt>
      <trkpt lat="44.34016" lon="4.0295">
        <ele>390</ele>
        <time>2017-11-20T09:58:41Z</time>
      </trkpt>
      <trkpt lat="44.34037" lon="4.02943">
        <ele>389</ele>
        <time>2017-11-20T09:58:45Z</time>
      </trkpt>
      <trkpt lat="44.34049" lon="4.02951">
        <ele>389</ele>
        <time>2017-11-20T09:58:48Z</time>
      </trkpt>
      <trkpt lat="44.34069" lon="4.0297">
        <ele>388</ele>
        <time>2017-11-20T09:58:52Z</time>
      </trkpt>
      <trkpt lat="44.3408" lon="4.02982">
        <ele>387</ele>
        <time>2017-11-20T09:58:54Z</time>
      </trkpt>
      <trkpt lat="44.34086" lon="4.02987">
        <ele>387</ele>
        <time>2017-11-20T09:58:55Z</time>
      </trkpt>
      <trkpt lat="44.34097" lon="4.02996">
        <ele>385</ele>
        <time>2017-11-20T09:58:57Z</time>
      </trkpt>
      <trkpt lat="44.34101" lon="4.03001">
        <ele>384</ele>
        <time>2017-11-20T09:58:58Z</time>
      </trkpt>
      <trkpt lat="44.34109" lon="4.03015">
        <ele>382</ele>
        <time>2017-11-20T09:59:00Z</time>
      </trkpt>
      <trkpt lat="44.34114" lon="4.03023">
        <ele>382</ele>
        <time>2017-11-20T09:59:01Z</time>
      </trkpt>
      <trkpt lat="44.34119" lon="4.03029">
        <ele>381</ele>
        <time>2017-11-20T09:59:02Z</time>
      </trkpt>
      <trkpt lat="44.34125" lon="4.03036">
        <ele>379</ele>
        <time>2017-11-20T09:59:03Z</time>
      </trkpt>
      <trkpt lat="44.34131" lon="4.03042">
        <ele>378</ele>
        <time>2017-11-20T09:59:04Z</time>
      </trkpt>
      <trkpt lat="44.34142" lon="4.03054">
        <ele>376</ele>
        <time>2017-11-20T09:59:06Z</time>
      </trkpt>
      <trkpt lat="44.34157" lon="4.03071">
        <ele>375</ele>
        <time>2017-11-20T09:59:09Z</time>
      </trkpt>
      <trkpt lat="44.34158" lon="4.03085">
        <ele>373</ele>
        <time>2017-11-20T09:59:12Z</time>
      </trkpt>
      <trkpt lat="44.34154" lon="4.03098">
        <ele>372</ele>
        <time>2017-11-20T09:59:14Z</time>
      </trkpt>
      <trkpt lat="44.34149" lon="4.03114">
        <ele>371</ele>
        <time>2017-11-20T09:59:16Z</time>
      </trkpt>
      <trkpt lat="44.34146" lon="4.03122">
        <ele>370</ele>
        <time>2017-11-20T09:59:17Z</time>
      </trkpt>
      <trkpt lat="44.34136" lon="4.03143">
        <ele>369</ele>
        <time>2017-11-20T09:59:20Z</time>
      </trkpt>
      <trkpt lat="44.34133" lon="4.03147">
        <ele>369</ele>
        <time>2017-11-20T09:59:21Z</time>
      </trkpt>
      <trkpt lat="44.3413" lon="4.03149">
        <ele>368</ele>
        <time>2017-11-20T09:59:22Z</time>
      </trkpt>
      <trkpt lat="44.34128" lon="4.0315">
        <ele>367</ele>
        <time>2017-11-20T09:59:23Z</time>
      </trkpt>
      <trkpt lat="44.34127" lon="4.03152">
        <ele>366</ele>
        <time>2017-11-20T09:59:24Z</time>
      </trkpt>
      <trkpt lat="44.34129" lon="4.03154">
        <ele>364</ele>
        <time>2017-11-20T09:59:26Z</time>
      </trkpt>
      <trkpt lat="44.34131" lon="4.03153">
        <ele>364</ele>
        <time>2017-11-20T09:59:27Z</time>
      </trkpt>
      <trkpt lat="44.34143" lon="4.0315">
        <ele>363</ele>
        <time>2017-11-20T09:59:31Z</time>
      </trkpt>
      <trkpt lat="44.34155" lon="4.03146">
        <ele>362</ele>
        <time>2017-11-20T09:59:34Z</time>
      </trkpt>
      <trkpt lat="44.34159" lon="4.03157">
        <ele>362</ele>
        <time>2017-11-20T09:59:38Z</time>
      </trkpt>
      <trkpt lat="44.34155" lon="4.03165">
        <ele>360</ele>
        <time>2017-11-20T09:59:40Z</time>
      </trkpt>
      <trkpt lat="44.34152" lon="4.03169">
        <ele>360</ele>
        <time>2017-11-20T09:59:41Z</time>
      </trkpt>
      <trkpt lat="44.34149" lon="4.03176">
        <ele>359</ele>
        <time>2017-11-20T09:59:43Z</time>
      </trkpt>
      <trkpt lat="44.34144" lon="4.03194">
        <ele>358</ele>
        <time>2017-11-20T09:59:49Z</time>
      </trkpt>
      <trkpt lat="44.34145" lon="4.03193">
        <ele>358</ele>
        <time>2017-11-20T09:59:50Z</time>
      </trkpt>
      <trkpt lat="44.34147" lon="4.0319">
        <ele>358</ele>
        <time>2017-11-20T09:59:54Z</time>
      </trkpt>
      <trkpt lat="44.34147" lon="4.03197">
        <ele>358</ele>
        <time>2017-11-20T10:00:02Z</time>
      </trkpt>
      <trkpt lat="44.34121" lon="4.03268">
        <ele>358</ele>
        <time>2017-11-20T10:00:22Z</time>
      </trkpt>
      <trkpt lat="44.34121" lon="4.03285">
        <ele>358</ele>
        <time>2017-11-20T10:00:25Z</time>
      </trkpt>
      <trkpt lat="44.34135" lon="4.03308">
        <ele>357</ele>
        <time>2017-11-20T10:00:30Z</time>
      </trkpt>
      <trkpt lat="44.34138" lon="4.03313">
        <ele>357</ele>
        <time>2017-11-20T10:00:31Z</time>
      </trkpt>
      <trkpt lat="44.3414" lon="4.03318">
        <ele>357</ele>
        <time>2017-11-20T10:00:32Z</time>
      </trkpt>
      <trkpt lat="44.34153" lon="4.03336">
        <ele>355</ele>
        <time>2017-11-20T10:00:35Z</time>
      </trkpt>
      <trkpt lat="44.34158" lon="4.03342">
        <ele>355</ele>
        <time>2017-11-20T10:00:36Z</time>
      </trkpt>
      <trkpt lat="44.34171" lon="4.0336">
        <ele>354</ele>
        <time>2017-11-20T10:00:39Z</time>
      </trkpt>
      <trkpt lat="44.34175" lon="4.03365">
        <ele>354</ele>
        <time>2017-11-20T10:00:40Z</time>
      </trkpt>
      <trkpt lat="44.3418" lon="4.0337">
        <ele>353</ele>
        <time>2017-11-20T10:00:41Z</time>
      </trkpt>
      <trkpt lat="44.34188" lon="4.03378">
        <ele>351</ele>
        <time>2017-11-20T10:00:43Z</time>
      </trkpt>
      <trkpt lat="44.34191" lon="4.03382">
        <ele>351</ele>
        <time>2017-11-20T10:00:44Z</time>
      </trkpt>
      <trkpt lat="44.34194" lon="4.03385">
        <ele>350</ele>
        <time>2017-11-20T10:00:45Z</time>
      </trkpt>
      <trkpt lat="44.34199" lon="4.03392">
        <ele>349</ele>
        <time>2017-11-20T10:00:47Z</time>
      </trkpt>
      <trkpt lat="44.342" lon="4.03406">
        <ele>348</ele>
        <time>2017-11-20T10:00:51Z</time>
      </trkpt>
      <trkpt lat="44.34194" lon="4.03413">
        <ele>348</ele>
        <time>2017-11-20T10:00:56Z</time>
      </trkpt>
      <trkpt lat="44.34189" lon="4.03412">
        <ele>347</ele>
        <time>2017-11-20T10:00:58Z</time>
      </trkpt>
      <trkpt lat="44.34179" lon="4.03405">
        <ele>347</ele>
        <time>2017-11-20T10:01:02Z</time>
      </trkpt>
      <trkpt lat="44.34176" lon="4.03404">
        <ele>346</ele>
        <time>2017-11-20T10:01:03Z</time>
      </trkpt>
      <trkpt lat="44.34124" lon="4.03415">
        <ele>347</ele>
        <time>2017-11-20T10:01:24Z</time>
      </trkpt>
      <trkpt lat="44.34122" lon="4.03421">
        <ele>347</ele>
        <time>2017-11-20T10:01:26Z</time>
      </trkpt>
      <trkpt lat="44.34118" lon="4.03455">
        <ele>347</ele>
        <time>2017-11-20T10:01:33Z</time>
      </trkpt>
      <trkpt lat="44.34088" lon="4.0345">
        <ele>345</ele>
        <time>2017-11-20T10:01:43Z</time>
      </trkpt>
      <trkpt lat="44.34082" lon="4.03448">
        <ele>345</ele>
        <time>2017-11-20T10:01:45Z</time>
      </trkpt>
      <trkpt lat="44.34065" lon="4.03449">
        <ele>346</ele>
        <time>2017-11-20T10:01:52Z</time>
      </trkpt>
      <trkpt lat="44.34056" lon="4.03451">
        <ele>346</ele>
        <time>2017-11-20T10:01:56Z</time>
      </trkpt>
      <trkpt lat="44.34052" lon="4.03456">
        <ele>347</ele>
        <time>2017-11-20T10:01:58Z</time>
      </trkpt>
      <trkpt lat="44.34047" lon="4.0346">
        <ele>347</ele>
        <time>2017-11-20T10:02:00Z</time>
      </trkpt>
      <trkpt lat="44.3403" lon="4.03471">
        <ele>347</ele>
        <time>2017-11-20T10:02:06Z</time>
      </trkpt>
      <trkpt lat="44.34006" lon="4.0348">
        <ele>345</ele>
        <time>2017-11-20T10:02:15Z</time>
      </trkpt>
      <trkpt lat="44.33991" lon="4.03491">
        <ele>344</ele>
        <time>2017-11-20T10:02:24Z</time>
      </trkpt>
      <trkpt lat="44.33989" lon="4.03492">
        <ele>344</ele>
        <time>2017-11-20T10:02:25Z</time>
      </trkpt>
      <trkpt lat="44.33985" lon="4.03495">
        <ele>343</ele>
        <time>2017-11-20T10:02:28Z</time>
      </trkpt>
      <trkpt lat="44.33977" lon="4.035">
        <ele>343</ele>
        <time>2017-11-20T10:02:32Z</time>
      </trkpt>
      <trkpt lat="44.3397" lon="4.03504">
        <ele>342</ele>
        <time>2017-11-20T10:02:36Z</time>
      </trkpt>
      <trkpt lat="44.33961" lon="4.03507">
        <ele>342</ele>
        <time>2017-11-20T10:02:40Z</time>
      </trkpt>
      <trkpt lat="44.33956" lon="4.03509">
        <ele>341</ele>
        <time>2017-11-20T10:02:43Z</time>
      </trkpt>
      <trkpt lat="44.33951" lon="4.03507">
        <ele>340</ele>
        <time>2017-11-20T10:02:46Z</time>
      </trkpt>
      <trkpt lat="44.3395" lon="4.03506">
        <ele>340</ele>
        <time>2017-11-20T10:02:47Z</time>
      </trkpt>
      <trkpt lat="44.33946" lon="4.03507">
        <ele>338</ele>
        <time>2017-11-20T10:02:53Z</time>
      </trkpt>
      <trkpt lat="44.33945" lon="4.03506">
        <ele>337</ele>
        <time>2017-11-20T10:02:56Z</time>
      </trkpt>
      <trkpt lat="44.33943" lon="4.03506">
        <ele>336</ele>
        <time>2017-11-20T10:03:04Z</time>
      </trkpt>
      <trkpt lat="44.33943" lon="4.03505">
        <ele>336</ele>
        <time>2017-11-20T10:03:14Z</time>
      </trkpt>
      <trkpt lat="44.33946" lon="4.03491">
        <ele>336</ele>
        <time>2017-11-20T10:03:21Z</time>
      </trkpt>
      <trkpt lat="44.33943" lon="4.03489">
        <ele>335</ele>
        <time>2017-11-20T10:03:25Z</time>
      </trkpt>
      <trkpt lat="44.3394" lon="4.03489">
        <ele>334</ele>
        <time>2017-11-20T10:03:27Z</time>
      </trkpt>
      <trkpt lat="44.33935" lon="4.03488">
        <ele>334</ele>
        <time>2017-11-20T10:03:30Z</time>
      </trkpt>
      <trkpt lat="44.33934" lon="4.03488">
        <ele>334</ele>
        <time>2017-11-20T10:03:31Z</time>
      </trkpt>
      <trkpt lat="44.33932" lon="4.03488">
        <ele>333</ele>
        <time>2017-11-20T10:03:33Z</time>
      </trkpt>
      <trkpt lat="44.3393" lon="4.03488">
        <ele>333</ele>
        <time>2017-11-20T10:03:34Z</time>
      </trkpt>
      <trkpt lat="44.33925" lon="4.03489">
        <ele>332</ele>
        <time>2017-11-20T10:03:38Z</time>
      </trkpt>
      <trkpt lat="44.33914" lon="4.0349">
        <ele>330</ele>
        <time>2017-11-20T10:03:42Z</time>
      </trkpt>
      <trkpt lat="44.33911" lon="4.03491">
        <ele>330</ele>
        <time>2017-11-20T10:03:43Z</time>
      </trkpt>
      <trkpt lat="44.33896" lon="4.0349">
        <ele>330</ele>
        <time>2017-11-20T10:03:49Z</time>
      </trkpt>
      <trkpt lat="44.33877" lon="4.03492">
        <ele>329</ele>
        <time>2017-11-20T10:03:57Z</time>
      </trkpt>
      <trkpt lat="44.33824" lon="4.03509">
        <ele>330</ele>
        <time>2017-11-20T10:04:15Z</time>
      </trkpt>
      <trkpt lat="44.33778" lon="4.0355">
        <ele>329</ele>
        <time>2017-11-20T10:04:36Z</time>
      </trkpt>
      <trkpt lat="44.33771" lon="4.03556">
        <ele>329</ele>
        <time>2017-11-20T10:04:40Z</time>
      </trkpt>
      <trkpt lat="44.33769" lon="4.03557">
        <ele>329</ele>
        <time>2017-11-20T10:04:41Z</time>
      </trkpt>
      <trkpt lat="44.33756" lon="4.0356">
        <ele>330</ele>
        <time>2017-11-20T10:04:52Z</time>
      </trkpt>
      <trkpt lat="44.33748" lon="4.0356">
        <ele>331</ele>
        <time>2017-11-20T10:05:00Z</time>
      </trkpt>
      <trkpt lat="44.3374" lon="4.03563">
        <ele>332</ele>
        <time>2017-11-20T10:05:10Z</time>
      </trkpt>
      <trkpt lat="44.33735" lon="4.03565">
        <ele>333</ele>
        <time>2017-11-20T10:05:15Z</time>
      </trkpt>
      <trkpt lat="44.33734" lon="4.03567">
        <ele>333</ele>
        <time>2017-11-20T10:05:17Z</time>
      </trkpt>
      <trkpt lat="44.33733" lon="4.03567">
        <ele>333</ele>
        <time>2017-11-20T10:05:18Z</time>
      </trkpt>
      <trkpt lat="44.33731" lon="4.0357">
        <ele>333</ele>
        <time>2017-11-20T10:08:47Z</time>
      </trkpt>
      <trkpt lat="44.33677" lon="4.03578">
        <ele>334</ele>
        <time>2017-11-20T10:09:25Z</time>
      </trkpt>
      <trkpt lat="44.33675" lon="4.03578">
        <ele>334</ele>
        <time>2017-11-20T10:09:26Z</time>
      </trkpt>
      <trkpt lat="44.33656" lon="4.03586">
        <ele>335</ele>
        <time>2017-11-20T10:09:36Z</time>
      </trkpt>
      <trkpt lat="44.33645" lon="4.03592">
        <ele>336</ele>
        <time>2017-11-20T10:09:44Z</time>
      </trkpt>
      <trkpt lat="44.33644" lon="4.03594">
        <ele>336</ele>
        <time>2017-11-20T10:09:45Z</time>
      </trkpt>
      <trkpt lat="44.33625" lon="4.0365">
        <ele>335</ele>
        <time>2017-11-20T10:10:00Z</time>
      </trkpt>
      <trkpt lat="44.33617" lon="4.03667">
        <ele>334</ele>
        <time>2017-11-20T10:10:05Z</time>
      </trkpt>
      <trkpt lat="44.33612" lon="4.03676">
        <ele>334</ele>
        <time>2017-11-20T10:10:07Z</time>
      </trkpt>
      <trkpt lat="44.33587" lon="4.0369">
        <ele>332</ele>
        <time>2017-11-20T10:10:14Z</time>
      </trkpt>
      <trkpt lat="44.33573" lon="4.03697">
        <ele>331</ele>
        <time>2017-11-20T10:10:18Z</time>
      </trkpt>
      <trkpt lat="44.3356" lon="4.03703">
        <ele>331</ele>
        <time>2017-11-20T10:10:21Z</time>
      </trkpt>
      <trkpt lat="44.33532" lon="4.03696">
        <ele>331</ele>
        <time>2017-11-20T10:10:27Z</time>
      </trkpt>
      <trkpt lat="44.33511" lon="4.0371">
        <ele>331</ele>
        <time>2017-11-20T10:10:34Z</time>
      </trkpt>
      <trkpt lat="44.33477" lon="4.0377">
        <ele>332</ele>
        <time>2017-11-20T10:10:51Z</time>
      </trkpt>
      <trkpt lat="44.33471" lon="4.03792">
        <ele>332</ele>
        <time>2017-11-20T10:10:57Z</time>
      </trkpt>
      <trkpt lat="44.33467" lon="4.0381">
        <ele>333</ele>
        <time>2017-11-20T10:11:02Z</time>
      </trkpt>
      <trkpt lat="44.33456" lon="4.03838">
        <ele>334</ele>
        <time>2017-11-20T10:11:12Z</time>
      </trkpt>
      <trkpt lat="44.33451" lon="4.03848">
        <ele>336</ele>
        <time>2017-11-20T10:11:18Z</time>
      </trkpt>
      <trkpt lat="44.33449" lon="4.03854">
        <ele>337</ele>
        <time>2017-11-20T10:11:21Z</time>
      </trkpt>
      <trkpt lat="44.33448" lon="4.03856">
        <ele>337</ele>
        <time>2017-11-20T10:11:22Z</time>
      </trkpt>
      <trkpt lat="44.33447" lon="4.03857">
        <ele>337</ele>
        <time>2017-11-20T10:11:23Z</time>
      </trkpt>
      <trkpt lat="44.33446" lon="4.0386">
        <ele>338</ele>
        <time>2017-11-20T10:11:25Z</time>
      </trkpt>
      <trkpt lat="44.33444" lon="4.03865">
        <ele>339</ele>
        <time>2017-11-20T10:11:28Z</time>
      </trkpt>
      <trkpt lat="44.33442" lon="4.03868">
        <ele>339</ele>
        <time>2017-11-20T10:11:30Z</time>
      </trkpt>
      <trkpt lat="44.33438" lon="4.03874">
        <ele>340</ele>
        <time>2017-11-20T10:11:34Z</time>
      </trkpt>
      <trkpt lat="44.33437" lon="4.03877">
        <ele>340</ele>
        <time>2017-11-20T10:11:36Z</time>
      </trkpt>
      <trkpt lat="44.33432" lon="4.03885">
        <ele>341</ele>
        <time>2017-11-20T10:11:42Z</time>
      </trkpt>
      <trkpt lat="44.33425" lon="4.039">
        <ele>342</ele>
        <time>2017-11-20T10:11:52Z</time>
      </trkpt>
      <trkpt lat="44.3342" lon="4.03912">
        <ele>344</ele>
        <time>2017-11-20T10:11:59Z</time>
      </trkpt>
      <trkpt lat="44.33414" lon="4.03924">
        <ele>345</ele>
        <time>2017-11-20T10:12:06Z</time>
      </trkpt>
      <trkpt lat="44.33407" lon="4.03935">
        <ele>346</ele>
        <time>2017-11-20T10:12:12Z</time>
      </trkpt>
      <trkpt lat="44.33374" lon="4.03991">
        <ele>346</ele>
        <time>2017-11-20T10:12:30Z</time>
      </trkpt>
      <trkpt lat="44.3335" lon="4.04058">
        <ele>346</ele>
        <time>2017-11-20T10:12:50Z</time>
      </trkpt>
      <trkpt lat="44.33348" lon="4.04076">
        <ele>347</ele>
        <time>2017-11-20T10:12:55Z</time>
      </trkpt>
      <trkpt lat="44.33361" lon="4.04142">
        <ele>347</ele>
        <time>2017-11-20T10:13:16Z</time>
      </trkpt>
      <trkpt lat="44.33366" lon="4.04146">
        <ele>348</ele>
        <time>2017-11-20T10:13:20Z</time>
      </trkpt>
      <trkpt lat="44.33375" lon="4.04153">
        <ele>349</ele>
        <time>2017-11-20T10:13:27Z</time>
      </trkpt>
      <trkpt lat="44.33381" lon="4.04158">
        <ele>350</ele>
        <time>2017-11-20T10:13:32Z</time>
      </trkpt>
      <trkpt lat="44.33389" lon="4.04163">
        <ele>351</ele>
        <time>2017-11-20T10:13:38Z</time>
      </trkpt>
      <trkpt lat="44.33397" lon="4.04167">
        <ele>352</ele>
        <time>2017-11-20T10:13:44Z</time>
      </trkpt>
      <trkpt lat="44.33405" lon="4.04174">
        <ele>353</ele>
        <time>2017-11-20T10:13:50Z</time>
      </trkpt>
      <trkpt lat="44.3345" lon="4.0422">
        <ele>353</ele>
        <time>2017-11-20T10:14:13Z</time>
      </trkpt>
      <trkpt lat="44.33483" lon="4.04247">
        <ele>354</ele>
        <time>2017-11-20T10:14:30Z</time>
      </trkpt>
      <trkpt lat="44.33487" lon="4.04248">
        <ele>354</ele>
        <time>2017-11-20T10:14:32Z</time>
      </trkpt>
      <trkpt lat="44.33508" lon="4.04258">
        <ele>355</ele>
        <time>2017-11-20T10:14:39Z</time>
      </trkpt>
      <trkpt lat="44.33524" lon="4.04264">
        <ele>355</ele>
        <time>2017-11-20T10:14:42Z</time>
      </trkpt>
      <trkpt lat="44.33544" lon="4.04273">
        <ele>355</ele>
        <time>2017-11-20T10:14:45Z</time>
      </trkpt>
      <trkpt lat="44.33561" lon="4.04283">
        <ele>353</ele>
        <time>2017-11-20T10:14:48Z</time>
      </trkpt>
      <trkpt lat="44.33567" lon="4.04287">
        <ele>352</ele>
        <time>2017-11-20T10:14:49Z</time>
      </trkpt>
      <trkpt lat="44.33578" lon="4.04295">
        <ele>350</ele>
        <time>2017-11-20T10:14:51Z</time>
      </trkpt>
      <trkpt lat="44.33586" lon="4.04308">
        <ele>348</ele>
        <time>2017-11-20T10:14:53Z</time>
      </trkpt>
      <trkpt lat="44.33585" lon="4.0433">
        <ele>346</ele>
        <time>2017-11-20T10:14:56Z</time>
      </trkpt>
      <trkpt lat="44.33567" lon="4.04343">
        <ele>346</ele>
        <time>2017-11-20T10:15:01Z</time>
      </trkpt>
      <trkpt lat="44.33563" lon="4.04344">
        <ele>346</ele>
        <time>2017-11-20T10:15:02Z</time>
      </trkpt>
      <trkpt lat="44.33559" lon="4.04347">
        <ele>345</ele>
        <time>2017-11-20T10:15:03Z</time>
      </trkpt>
      <trkpt lat="44.33556" lon="4.0435">
        <ele>345</ele>
        <time>2017-11-20T10:15:04Z</time>
      </trkpt>
      <trkpt lat="44.33537" lon="4.04389">
        <ele>345</ele>
        <time>2017-11-20T10:15:12Z</time>
      </trkpt>
      <trkpt lat="44.33536" lon="4.04395">
        <ele>345</ele>
        <time>2017-11-20T10:15:13Z</time>
      </trkpt>
      <trkpt lat="44.33522" lon="4.04404">
        <ele>345</ele>
        <time>2017-11-20T10:15:17Z</time>
      </trkpt>
      <trkpt lat="44.33492" lon="4.04421">
        <ele>346</ele>
        <time>2017-11-20T10:15:29Z</time>
      </trkpt>
      <trkpt lat="44.33489" lon="4.04424">
        <ele>348</ele>
        <time>2017-11-20T10:15:34Z</time>
      </trkpt>
      <trkpt lat="44.33488" lon="4.04424">
        <ele>349</ele>
        <time>2017-11-20T10:15:38Z</time>
      </trkpt>
      <trkpt lat="44.33438" lon="4.04451">
        <ele>354</ele>
        <time>2017-11-20T10:17:11Z</time>
      </trkpt>
      <trkpt lat="44.33422" lon="4.04455">
        <ele>349</ele>
        <time>2017-11-20T10:17:18Z</time>
      </trkpt>
      <trkpt lat="44.33414" lon="4.04456">
        <ele>350</ele>
        <time>2017-11-20T10:17:22Z</time>
      </trkpt>
      <trkpt lat="44.33403" lon="4.04459">
        <ele>350</ele>
        <time>2017-11-20T10:17:27Z</time>
      </trkpt>
      <trkpt lat="44.33367" lon="4.0451">
        <ele>348</ele>
        <time>2017-11-20T10:17:47Z</time>
      </trkpt>
      <trkpt lat="44.33369" lon="4.04545">
        <ele>347</ele>
        <time>2017-11-20T10:17:54Z</time>
      </trkpt>
      <trkpt lat="44.33381" lon="4.0457">
        <ele>347</ele>
        <time>2017-11-20T10:17:59Z</time>
      </trkpt>
      <trkpt lat="44.3339" lon="4.04643">
        <ele>347</ele>
        <time>2017-11-20T10:18:17Z</time>
      </trkpt>
      <trkpt lat="44.33395" lon="4.04668">
        <ele>348</ele>
        <time>2017-11-20T10:18:24Z</time>
      </trkpt>
      <trkpt lat="44.33399" lon="4.0469">
        <ele>349</ele>
        <time>2017-11-20T10:18:39Z</time>
      </trkpt>
      <trkpt lat="44.33399" lon="4.04691">
        <ele>350</ele>
        <time>2017-11-20T10:18:49Z</time>
      </trkpt>
      <trkpt lat="44.33399" lon="4.04691">
        <ele>350</ele>
        <time>2017-11-20T10:18:52Z</time>
      </trkpt>
      <trkpt lat="44.33405" lon="4.04716">
        <ele>350</ele>
        <time>2017-11-20T10:19:01Z</time>
      </trkpt>
      <trkpt lat="44.33407" lon="4.04727">
        <ele>350</ele>
        <time>2017-11-20T10:19:05Z</time>
      </trkpt>
      <trkpt lat="44.33409" lon="4.04741">
        <ele>350</ele>
        <time>2017-11-20T10:19:11Z</time>
      </trkpt>
      <trkpt lat="44.33407" lon="4.04758">
        <ele>351</ele>
        <time>2017-11-20T10:19:17Z</time>
      </trkpt>
      <trkpt lat="44.33405" lon="4.04766">
        <ele>351</ele>
        <time>2017-11-20T10:19:19Z</time>
      </trkpt>
      <trkpt lat="44.33395" lon="4.04772">
        <ele>351</ele>
        <time>2017-11-20T10:19:23Z</time>
      </trkpt>
      <trkpt lat="44.3337" lon="4.04747">
        <ele>350</ele>
        <time>2017-11-20T10:19:35Z</time>
      </trkpt>
      <trkpt lat="44.33339" lon="4.04686">
        <ele>350</ele>
        <time>2017-11-20T10:19:57Z</time>
      </trkpt>
      <trkpt lat="44.3333" lon="4.04678">
        <ele>350</ele>
        <time>2017-11-20T10:20:02Z</time>
      </trkpt>
      <trkpt lat="44.33285" lon="4.0463">
        <ele>350</ele>
        <time>2017-11-20T10:20:23Z</time>
      </trkpt>
      <trkpt lat="44.33249" lon="4.04591">
        <ele>350</ele>
        <time>2017-11-20T10:20:39Z</time>
      </trkpt>
      <trkpt lat="44.33241" lon="4.04587">
        <ele>351</ele>
        <time>2017-11-20T10:20:43Z</time>
      </trkpt>
      <trkpt lat="44.33234" lon="4.04582">
        <ele>352</ele>
        <time>2017-11-20T10:20:47Z</time>
      </trkpt>
      <trkpt lat="44.33228" lon="4.04571">
        <ele>352</ele>
        <time>2017-11-20T10:20:51Z</time>
      </trkpt>
      <trkpt lat="44.33198" lon="4.0451">
        <ele>354</ele>
        <time>2017-11-20T10:21:13Z</time>
      </trkpt>
      <trkpt lat="44.33193" lon="4.04497">
        <ele>354</ele>
        <time>2017-11-20T10:21:18Z</time>
      </trkpt>
      <trkpt lat="44.33174" lon="4.04461">
        <ele>354</ele>
        <time>2017-11-20T10:21:33Z</time>
      </trkpt>
      <trkpt lat="44.33167" lon="4.04457">
        <ele>355</ele>
        <time>2017-11-20T10:21:38Z</time>
      </trkpt>
      <trkpt lat="44.33165" lon="4.04455">
        <ele>356</ele>
        <time>2017-11-20T10:21:40Z</time>
      </trkpt>
      <trkpt lat="44.33158" lon="4.0445">
        <ele>356</ele>
        <time>2017-11-20T10:21:45Z</time>
      </trkpt>
      <trkpt lat="44.33153" lon="4.04448">
        <ele>357</ele>
        <time>2017-11-20T10:21:48Z</time>
      </trkpt>
      <trkpt lat="44.33139" lon="4.04443">
        <ele>358</ele>
        <time>2017-11-20T10:21:56Z</time>
      </trkpt>
      <trkpt lat="44.33137" lon="4.04443">
        <ele>358</ele>
        <time>2017-11-20T10:21:57Z</time>
      </trkpt>
      <trkpt lat="44.33112" lon="4.04438">
        <ele>359</ele>
        <time>2017-11-20T10:22:13Z</time>
      </trkpt>
      <trkpt lat="44.33106" lon="4.04438">
        <ele>359</ele>
        <time>2017-11-20T10:22:16Z</time>
      </trkpt>
      <trkpt lat="44.33097" lon="4.04437">
        <ele>359</ele>
        <time>2017-11-20T10:22:21Z</time>
      </trkpt>
      <trkpt lat="44.3309" lon="4.04438">
        <ele>360</ele>
        <time>2017-11-20T10:22:25Z</time>
      </trkpt>
      <trkpt lat="44.33082" lon="4.04439">
        <ele>360</ele>
        <time>2017-11-20T10:22:29Z</time>
      </trkpt>
      <trkpt lat="44.33068" lon="4.0445">
        <ele>360</ele>
        <time>2017-11-20T10:22:38Z</time>
      </trkpt>
      <trkpt lat="44.33064" lon="4.04455">
        <ele>360</ele>
        <time>2017-11-20T10:22:42Z</time>
      </trkpt>
      <trkpt lat="44.33059" lon="4.0446">
        <ele>361</ele>
        <time>2017-11-20T10:22:46Z</time>
      </trkpt>
      <trkpt lat="44.33051" lon="4.04465">
        <ele>361</ele>
        <time>2017-11-20T10:22:50Z</time>
      </trkpt>
      <trkpt lat="44.33023" lon="4.04478">
        <ele>360</ele>
        <time>2017-11-20T10:23:02Z</time>
      </trkpt>
      <trkpt lat="44.33" lon="4.04509">
        <ele>359</ele>
        <time>2017-11-20T10:23:08Z</time>
      </trkpt>
      <trkpt lat="44.32996" lon="4.04525">
        <ele>357</ele>
        <time>2017-11-20T10:23:10Z</time>
      </trkpt>
      <trkpt lat="44.32993" lon="4.04532">
        <ele>357</ele>
        <time>2017-11-20T10:23:11Z</time>
      </trkpt>
      <trkpt lat="44.32991" lon="4.04539">
        <ele>356</ele>
        <time>2017-11-20T10:23:12Z</time>
      </trkpt>
      <trkpt lat="44.32988" lon="4.04545">
        <ele>355</ele>
        <time>2017-11-20T10:23:13Z</time>
      </trkpt>
      <trkpt lat="44.32985" lon="4.04551">
        <ele>352</ele>
        <time>2017-11-20T10:23:14Z</time>
      </trkpt>
      <trkpt lat="44.32978" lon="4.04563">
        <ele>351</ele>
        <time>2017-11-20T10:23:16Z</time>
      </trkpt>
      <trkpt lat="44.32969" lon="4.04598">
        <ele>350</ele>
        <time>2017-11-20T10:23:22Z</time>
      </trkpt>
      <trkpt lat="44.32973" lon="4.04675">
        <ele>350</ele>
        <time>2017-11-20T10:23:35Z</time>
      </trkpt>
      <trkpt lat="44.32974" lon="4.04722">
        <ele>349</ele>
        <time>2017-11-20T10:23:43Z</time>
      </trkpt>
      <trkpt lat="44.32983" lon="4.04797">
        <ele>349</ele>
        <time>2017-11-20T10:23:58Z</time>
      </trkpt>
      <trkpt lat="44.33006" lon="4.04867">
        <ele>350</ele>
        <time>2017-11-20T10:24:18Z</time>
      </trkpt>
      <trkpt lat="44.33032" lon="4.04936">
        <ele>351</ele>
        <time>2017-11-20T10:24:42Z</time>
      </trkpt>
      <trkpt lat="44.33043" lon="4.04976">
        <ele>351</ele>
        <time>2017-11-20T10:24:52Z</time>
      </trkpt>
      <trkpt lat="44.33058" lon="4.05049">
        <ele>349</ele>
        <time>2017-11-20T10:25:06Z</time>
      </trkpt>
      <trkpt lat="44.33066" lon="4.05095">
        <ele>350</ele>
        <time>2017-11-20T10:25:19Z</time>
      </trkpt>
      <trkpt lat="44.33065" lon="4.05117">
        <ele>351</ele>
        <time>2017-11-20T10:25:27Z</time>
      </trkpt>
      <trkpt lat="44.33015" lon="4.05128">
        <ele>352</ele>
        <time>2017-11-20T10:25:46Z</time>
      </trkpt>
      <trkpt lat="44.32995" lon="4.05123">
        <ele>350</ele>
        <time>2017-11-20T10:25:52Z</time>
      </trkpt>
      <trkpt lat="44.32981" lon="4.05121">
        <ele>349</ele>
        <time>2017-11-20T10:25:56Z</time>
      </trkpt>
      <trkpt lat="44.32946" lon="4.05126">
        <ele>350</ele>
        <time>2017-11-20T10:26:11Z</time>
      </trkpt>
      <trkpt lat="44.32922" lon="4.05133">
        <ele>351</ele>
        <time>2017-11-20T10:26:25Z</time>
      </trkpt>
      <trkpt lat="44.32912" lon="4.05137">
        <ele>352</ele>
        <time>2017-11-20T10:26:31Z</time>
      </trkpt>
      <trkpt lat="44.32895" lon="4.05144">
        <ele>353</ele>
        <time>2017-11-20T10:26:40Z</time>
      </trkpt>
      <trkpt lat="44.32882" lon="4.05149">
        <ele>354</ele>
        <time>2017-11-20T10:26:48Z</time>
      </trkpt>
      <trkpt lat="44.3283" lon="4.05164">
        <ele>355</ele>
        <time>2017-11-20T10:27:28Z</time>
      </trkpt>
      <trkpt lat="44.32807" lon="4.05154">
        <ele>354</ele>
        <time>2017-11-20T10:27:56Z</time>
      </trkpt>
      <trkpt lat="44.32785" lon="4.05149">
        <ele>354</ele>
        <time>2017-11-20T10:28:11Z</time>
      </trkpt>
      <trkpt lat="44.32784" lon="4.0515">
        <ele>354</ele>
        <time>2017-11-20T10:28:12Z</time>
      </trkpt>
      <trkpt lat="44.32775" lon="4.05156">
        <ele>355</ele>
        <time>2017-11-20T10:28:18Z</time>
      </trkpt>
      <trkpt lat="44.32757" lon="4.05157">
        <ele>356</ele>
        <time>2017-11-20T10:28:27Z</time>
      </trkpt>
      <trkpt lat="44.3274" lon="4.05159">
        <ele>357</ele>
        <time>2017-11-20T10:28:36Z</time>
      </trkpt>
      <trkpt lat="44.3273" lon="4.05162">
        <ele>358</ele>
        <time>2017-11-20T10:28:41Z</time>
      </trkpt>
      <trkpt lat="44.3272" lon="4.05157">
        <ele>359</ele>
        <time>2017-11-20T10:28:46Z</time>
      </trkpt>
      <trkpt lat="44.32718" lon="4.05148">
        <ele>359</ele>
        <time>2017-11-20T10:28:51Z</time>
      </trkpt>
      <trkpt lat="44.32713" lon="4.05137">
        <ele>359</ele>
        <time>2017-11-20T10:28:57Z</time>
      </trkpt>
      <trkpt lat="44.32709" lon="4.05133">
        <ele>360</ele>
        <time>2017-11-20T10:29:36Z</time>
      </trkpt>
      <trkpt lat="44.32709" lon="4.05132">
        <ele>361</ele>
        <time>2017-11-20T10:32:49Z</time>
      </trkpt>
      <trkpt lat="44.32706" lon="4.05131">
        <ele>361</ele>
        <time>2017-11-20T10:34:31Z</time>
      </trkpt>
      <trkpt lat="44.32672" lon="4.05125">
        <ele>362</ele>
        <time>2017-11-20T10:34:53Z</time>
      </trkpt>
      <trkpt lat="44.32662" lon="4.05122">
        <ele>363</ele>
        <time>2017-11-20T10:35:00Z</time>
      </trkpt>
      <trkpt lat="44.32655" lon="4.05115">
        <ele>365</ele>
        <time>2017-11-20T10:35:05Z</time>
      </trkpt>
      <trkpt lat="44.32638" lon="4.05101">
        <ele>366</ele>
        <time>2017-11-20T10:35:18Z</time>
      </trkpt>
      <trkpt lat="44.32627" lon="4.05096">
        <ele>367</ele>
        <time>2017-11-20T10:35:26Z</time>
      </trkpt>
      <trkpt lat="44.32617" lon="4.05092">
        <ele>368</ele>
        <time>2017-11-20T10:35:33Z</time>
      </trkpt>
      <trkpt lat="44.32606" lon="4.05087">
        <ele>369</ele>
        <time>2017-11-20T10:35:41Z</time>
      </trkpt>
      <trkpt lat="44.32594" lon="4.05081">
        <ele>370</ele>
        <time>2017-11-20T10:35:50Z</time>
      </trkpt>
      <trkpt lat="44.32584" lon="4.05076">
        <ele>371</ele>
        <time>2017-11-20T10:35:58Z</time>
      </trkpt>
      <trkpt lat="44.32573" lon="4.05072">
        <ele>372</ele>
        <time>2017-11-20T10:36:05Z</time>
      </trkpt>
      <trkpt lat="44.32558" lon="4.05068">
        <ele>373</ele>
        <time>2017-11-20T10:36:16Z</time>
      </trkpt>
      <trkpt lat="44.32543" lon="4.05064">
        <ele>374</ele>
        <time>2017-11-20T10:36:25Z</time>
      </trkpt>
      <trkpt lat="44.32487" lon="4.05052">
        <ele>375</ele>
        <time>2017-11-20T10:36:45Z</time>
      </trkpt>
      <trkpt lat="44.32476" lon="4.05053">
        <ele>375</ele>
        <time>2017-11-20T10:36:47Z</time>
      </trkpt>
      <trkpt lat="44.32458" lon="4.05064">
        <ele>373</ele>
        <time>2017-11-20T10:36:51Z</time>
      </trkpt>
      <trkpt lat="44.32452" lon="4.05073">
        <ele>373</ele>
        <time>2017-11-20T10:36:54Z</time>
      </trkpt>
      <trkpt lat="44.32445" lon="4.05095">
        <ele>374</ele>
        <time>2017-11-20T10:37:01Z</time>
      </trkpt>
      <trkpt lat="44.32444" lon="4.05099">
        <ele>374</ele>
        <time>2017-11-20T10:37:03Z</time>
      </trkpt>
      <trkpt lat="44.32437" lon="4.05111">
        <ele>375</ele>
        <time>2017-11-20T10:37:08Z</time>
      </trkpt>
      <trkpt lat="44.32433" lon="4.05117">
        <ele>375</ele>
        <time>2017-11-20T10:37:11Z</time>
      </trkpt>
      <trkpt lat="44.32429" lon="4.05125">
        <ele>376</ele>
        <time>2017-11-20T10:37:15Z</time>
      </trkpt>
      <trkpt lat="44.32421" lon="4.05132">
        <ele>376</ele>
        <time>2017-11-20T10:37:21Z</time>
      </trkpt>
      <trkpt lat="44.3242" lon="4.05135">
        <ele>376</ele>
        <time>2017-11-20T10:37:22Z</time>
      </trkpt>
      <trkpt lat="44.32418" lon="4.0514">
        <ele>376</ele>
        <time>2017-11-20T10:37:24Z</time>
      </trkpt>
      <trkpt lat="44.32415" lon="4.05146">
        <ele>377</ele>
        <time>2017-11-20T10:37:27Z</time>
      </trkpt>
      <trkpt lat="44.32403" lon="4.05175">
        <ele>377</ele>
        <time>2017-11-20T10:37:39Z</time>
      </trkpt>
      <trkpt lat="44.32399" lon="4.05194">
        <ele>378</ele>
        <time>2017-11-20T10:37:47Z</time>
      </trkpt>
      <trkpt lat="44.32404" lon="4.05202">
        <ele>378</ele>
        <time>2017-11-20T10:37:52Z</time>
      </trkpt>
      <trkpt lat="44.32406" lon="4.05203">
        <ele>378</ele>
        <time>2017-11-20T10:37:53Z</time>
      </trkpt>
      <trkpt lat="44.32423" lon="4.05214">
        <ele>379</ele>
        <time>2017-11-20T10:38:02Z</time>
      </trkpt>
      <trkpt lat="44.32438" lon="4.05248">
        <ele>381</ele>
        <time>2017-11-20T10:38:15Z</time>
      </trkpt>
      <trkpt lat="44.32421" lon="4.05319">
        <ele>381</ele>
        <time>2017-11-20T10:38:37Z</time>
      </trkpt>
      <trkpt lat="44.32417" lon="4.05328">
        <ele>382</ele>
        <time>2017-11-20T10:38:40Z</time>
      </trkpt>
      <trkpt lat="44.32397" lon="4.05369">
        <ele>383</ele>
        <time>2017-11-20T10:38:53Z</time>
      </trkpt>
      <trkpt lat="44.32383" lon="4.05442">
        <ele>384</ele>
        <time>2017-11-20T10:39:11Z</time>
      </trkpt>
      <trkpt lat="44.32391" lon="4.05518">
        <ele>382</ele>
        <time>2017-11-20T10:39:27Z</time>
      </trkpt>
      <trkpt lat="44.32405" lon="4.05569">
        <ele>383</ele>
        <time>2017-11-20T10:42:29Z</time>
      </trkpt>
      <trkpt lat="44.32409" lon="4.05586">
        <ele>381</ele>
        <time>2017-11-20T10:42:37Z</time>
      </trkpt>
      <trkpt lat="44.32409" lon="4.05588">
        <ele>380</ele>
        <time>2017-11-20T10:42:40Z</time>
      </trkpt>
      <trkpt lat="44.3241" lon="4.05589">
        <ele>380</ele>
        <time>2017-11-20T10:42:43Z</time>
      </trkpt>
      <trkpt lat="44.32416" lon="4.05607">
        <ele>379</ele>
        <time>2017-11-20T10:42:48Z</time>
      </trkpt>
      <trkpt lat="44.32421" lon="4.05622">
        <ele>379</ele>
        <time>2017-11-20T10:42:51Z</time>
      </trkpt>
      <trkpt lat="44.32427" lon="4.05647">
        <ele>378</ele>
        <time>2017-11-20T10:42:55Z</time>
      </trkpt>
      <trkpt lat="44.32431" lon="4.05658">
        <ele>377</ele>
        <time>2017-11-20T10:42:57Z</time>
      </trkpt>
      <trkpt lat="44.32433" lon="4.05666">
        <ele>376</ele>
        <time>2017-11-20T10:43:00Z</time>
      </trkpt>
      <trkpt lat="44.32433" lon="4.05666">
        <ele>375</ele>
        <time>2017-11-20T10:43:02Z</time>
      </trkpt>
      <trkpt lat="44.32435" lon="4.05671">
        <ele>374</ele>
        <time>2017-11-20T10:43:08Z</time>
      </trkpt>
      <trkpt lat="44.32445" lon="4.05698">
        <ele>373</ele>
        <time>2017-11-20T10:43:14Z</time>
      </trkpt>
      <trkpt lat="44.32444" lon="4.05714">
        <ele>373</ele>
        <time>2017-11-20T10:43:18Z</time>
      </trkpt>
      <trkpt lat="44.32433" lon="4.0571">
        <ele>372</ele>
        <time>2017-11-20T10:43:21Z</time>
      </trkpt>
      <trkpt lat="44.32428" lon="4.05708">
        <ele>372</ele>
        <time>2017-11-20T10:43:22Z</time>
      </trkpt>
      <trkpt lat="44.3242" lon="4.05714">
        <ele>370</ele>
        <time>2017-11-20T10:43:25Z</time>
      </trkpt>
      <trkpt lat="44.32415" lon="4.05723">
        <ele>370</ele>
        <time>2017-11-20T10:43:27Z</time>
      </trkpt>
      <trkpt lat="44.32412" lon="4.05728">
        <ele>369</ele>
        <time>2017-11-20T10:43:28Z</time>
      </trkpt>
      <trkpt lat="44.32407" lon="4.05738">
        <ele>368</ele>
        <time>2017-11-20T10:43:30Z</time>
      </trkpt>
      <trkpt lat="44.32403" lon="4.05744">
        <ele>367</ele>
        <time>2017-11-20T10:43:32Z</time>
      </trkpt>
      <trkpt lat="44.32394" lon="4.05761">
        <ele>365</ele>
        <time>2017-11-20T10:43:36Z</time>
      </trkpt>
      <trkpt lat="44.32385" lon="4.0578">
        <ele>364</ele>
        <time>2017-11-20T10:43:39Z</time>
      </trkpt>
      <trkpt lat="44.32372" lon="4.05808">
        <ele>363</ele>
        <time>2017-11-20T10:43:43Z</time>
      </trkpt>
      <trkpt lat="44.32369" lon="4.05816">
        <ele>363</ele>
        <time>2017-11-20T10:43:44Z</time>
      </trkpt>
      <trkpt lat="44.32369" lon="4.05823">
        <ele>362</ele>
        <time>2017-11-20T10:43:45Z</time>
      </trkpt>
      <trkpt lat="44.32377" lon="4.05838">
        <ele>361</ele>
        <time>2017-11-20T10:43:48Z</time>
      </trkpt>
      <trkpt lat="44.3238" lon="4.05843">
        <ele>360</ele>
        <time>2017-11-20T10:43:49Z</time>
      </trkpt>
      <trkpt lat="44.32384" lon="4.05848">
        <ele>359</ele>
        <time>2017-11-20T10:43:50Z</time>
      </trkpt>
      <trkpt lat="44.32389" lon="4.0586">
        <ele>359</ele>
        <time>2017-11-20T10:43:52Z</time>
      </trkpt>
      <trkpt lat="44.3239" lon="4.05866">
        <ele>358</ele>
        <time>2017-11-20T10:43:53Z</time>
      </trkpt>
      <trkpt lat="44.32383" lon="4.05883">
        <ele>358</ele>
        <time>2017-11-20T10:43:57Z</time>
      </trkpt>
      <trkpt lat="44.32379" lon="4.05891">
        <ele>357</ele>
        <time>2017-11-20T10:44:01Z</time>
      </trkpt>
      <trkpt lat="44.32377" lon="4.05901">
        <ele>356</ele>
        <time>2017-11-20T10:44:07Z</time>
      </trkpt>
      <trkpt lat="44.32381" lon="4.05926">
        <ele>356</ele>
        <time>2017-11-20T10:44:14Z</time>
      </trkpt>
      <trkpt lat="44.32389" lon="4.05934">
        <ele>355</ele>
        <time>2017-11-20T10:44:16Z</time>
      </trkpt>
      <trkpt lat="44.32394" lon="4.05939">
        <ele>355</ele>
        <time>2017-11-20T10:44:17Z</time>
      </trkpt>
      <trkpt lat="44.32407" lon="4.05956">
        <ele>354</ele>
        <time>2017-11-20T10:44:20Z</time>
      </trkpt>
      <trkpt lat="44.32416" lon="4.05977">
        <ele>353</ele>
        <time>2017-11-20T10:44:23Z</time>
      </trkpt>
      <trkpt lat="44.32419" lon="4.05985">
        <ele>352</ele>
        <time>2017-11-20T10:44:24Z</time>
      </trkpt>
      <trkpt lat="44.32421" lon="4.05994">
        <ele>351</ele>
        <time>2017-11-20T10:44:25Z</time>
      </trkpt>
      <trkpt lat="44.32423" lon="4.0601">
        <ele>349</ele>
        <time>2017-11-20T10:44:27Z</time>
      </trkpt>
      <trkpt lat="44.32422" lon="4.06023">
        <ele>348</ele>
        <time>2017-11-20T10:44:29Z</time>
      </trkpt>
      <trkpt lat="44.3242" lon="4.06049">
        <ele>349</ele>
        <time>2017-11-20T10:45:43Z</time>
      </trkpt>
      <trkpt lat="44.32419" lon="4.06067">
        <ele>349</ele>
        <time>2017-11-20T10:45:49Z</time>
      </trkpt>
      <trkpt lat="44.32432" lon="4.0608">
        <ele>347</ele>
        <time>2017-11-20T10:45:59Z</time>
      </trkpt>
      <trkpt lat="44.32451" lon="4.06103">
        <ele>347</ele>
        <time>2017-11-20T10:47:09Z</time>
      </trkpt>
      <trkpt lat="44.32463" lon="4.06133">
        <ele>346</ele>
        <time>2017-11-20T10:47:13Z</time>
      </trkpt>
      <trkpt lat="44.32469" lon="4.06149">
        <ele>346</ele>
        <time>2017-11-20T10:47:15Z</time>
      </trkpt>
      <trkpt lat="44.32474" lon="4.06158">
        <ele>345</ele>
        <time>2017-11-20T10:47:17Z</time>
      </trkpt>
      <trkpt lat="44.32473" lon="4.06161">
        <ele>343</ele>
        <time>2017-11-20T10:47:19Z</time>
      </trkpt>
      <trkpt lat="44.32471" lon="4.06161">
        <ele>342</ele>
        <time>2017-11-20T10:47:20Z</time>
      </trkpt>
      <trkpt lat="44.32466" lon="4.06158">
        <ele>340</ele>
        <time>2017-11-20T10:47:22Z</time>
      </trkpt>
      <trkpt lat="44.32458" lon="4.06154">
        <ele>339</ele>
        <time>2017-11-20T10:47:24Z</time>
      </trkpt>
      <trkpt lat="44.3245" lon="4.06147">
        <ele>338</ele>
        <time>2017-11-20T10:47:29Z</time>
      </trkpt>
      <trkpt lat="44.3245" lon="4.06147">
        <ele>336</ele>
        <time>2017-11-20T10:47:31Z</time>
      </trkpt>
      <trkpt lat="44.3245" lon="4.06148">
        <ele>335</ele>
        <time>2017-11-20T10:47:32Z</time>
      </trkpt>
      <trkpt lat="44.3245" lon="4.06149">
        <ele>335</ele>
        <time>2017-11-20T10:47:33Z</time>
      </trkpt>
      <trkpt lat="44.32454" lon="4.06163">
        <ele>334</ele>
        <time>2017-11-20T10:47:36Z</time>
      </trkpt>
      <trkpt lat="44.32455" lon="4.06171">
        <ele>334</ele>
        <time>2017-11-20T10:47:37Z</time>
      </trkpt>
      <trkpt lat="44.32455" lon="4.06194">
        <ele>333</ele>
        <time>2017-11-20T10:47:40Z</time>
      </trkpt>
      <trkpt lat="44.32456" lon="4.06201">
        <ele>333</ele>
        <time>2017-11-20T10:47:41Z</time>
      </trkpt>
      <trkpt lat="44.32452" lon="4.06211">
        <ele>332</ele>
        <time>2017-11-20T10:47:43Z</time>
      </trkpt>
      <trkpt lat="44.32449" lon="4.06215">
        <ele>330</ele>
        <time>2017-11-20T10:47:44Z</time>
      </trkpt>
      <trkpt lat="44.32446" lon="4.0622">
        <ele>327</ele>
        <time>2017-11-20T10:47:45Z</time>
      </trkpt>
      <trkpt lat="44.32442" lon="4.06224">
        <ele>325</ele>
        <time>2017-11-20T10:47:46Z</time>
      </trkpt>
      <trkpt lat="44.32439" lon="4.06228">
        <ele>324</ele>
        <time>2017-11-20T10:47:47Z</time>
      </trkpt>
      <trkpt lat="44.32437" lon="4.06233">
        <ele>323</ele>
        <time>2017-11-20T10:47:48Z</time>
      </trkpt>
      <trkpt lat="44.32432" lon="4.06244">
        <ele>321</ele>
        <time>2017-11-20T10:47:50Z</time>
      </trkpt>
      <trkpt lat="44.32422" lon="4.06261">
        <ele>319</ele>
        <time>2017-11-20T10:47:53Z</time>
      </trkpt>
      <trkpt lat="44.32415" lon="4.06271">
        <ele>318</ele>
        <time>2017-11-20T10:47:55Z</time>
      </trkpt>
      <trkpt lat="44.32412" lon="4.06276">
        <ele>317</ele>
        <time>2017-11-20T10:47:56Z</time>
      </trkpt>
      <trkpt lat="44.32405" lon="4.06287">
        <ele>317</ele>
        <time>2017-11-20T10:47:58Z</time>
      </trkpt>
      <trkpt lat="44.32393" lon="4.06303">
        <ele>316</ele>
        <time>2017-11-20T10:48:01Z</time>
      </trkpt>
      <trkpt lat="44.32383" lon="4.06314">
        <ele>315</ele>
        <time>2017-11-20T10:48:03Z</time>
      </trkpt>
      <trkpt lat="44.32378" lon="4.0632">
        <ele>315</ele>
        <time>2017-11-20T10:48:04Z</time>
      </trkpt>
      <trkpt lat="44.32366" lon="4.06334">
        <ele>314</ele>
        <time>2017-11-20T10:48:08Z</time>
      </trkpt>
      <trkpt lat="44.32363" lon="4.06338">
        <ele>313</ele>
        <time>2017-11-20T10:48:09Z</time>
      </trkpt>
      <trkpt lat="44.32356" lon="4.06341">
        <ele>311</ele>
        <time>2017-11-20T10:48:11Z</time>
      </trkpt>
      <trkpt lat="44.32354" lon="4.06342">
        <ele>310</ele>
        <time>2017-11-20T10:48:12Z</time>
      </trkpt>
      <trkpt lat="44.32352" lon="4.06343">
        <ele>308</ele>
        <time>2017-11-20T10:48:14Z</time>
      </trkpt>
      <trkpt lat="44.32352" lon="4.06345">
        <ele>308</ele>
        <time>2017-11-20T10:48:15Z</time>
      </trkpt>
      <trkpt lat="44.32353" lon="4.06347">
        <ele>307</ele>
        <time>2017-11-20T10:48:16Z</time>
      </trkpt>
      <trkpt lat="44.32355" lon="4.0635">
        <ele>306</ele>
        <time>2017-11-20T10:48:17Z</time>
      </trkpt>
      <trkpt lat="44.32361" lon="4.06357">
        <ele>304</ele>
        <time>2017-11-20T10:48:19Z</time>
      </trkpt>
      <trkpt lat="44.32369" lon="4.06363">
        <ele>303</ele>
        <time>2017-11-20T10:48:21Z</time>
      </trkpt>
      <trkpt lat="44.32374" lon="4.06366">
        <ele>303</ele>
        <time>2017-11-20T10:48:22Z</time>
      </trkpt>
      <trkpt lat="44.32388" lon="4.06375">
        <ele>301</ele>
        <time>2017-11-20T10:48:25Z</time>
      </trkpt>
      <trkpt lat="44.32397" lon="4.06382">
        <ele>300</ele>
        <time>2017-11-20T10:48:27Z</time>
      </trkpt>
      <trkpt lat="44.32401" lon="4.06385">
        <ele>299</ele>
        <time>2017-11-20T10:48:28Z</time>
      </trkpt>
      <trkpt lat="44.32406" lon="4.06391">
        <ele>298</ele>
        <time>2017-11-20T10:48:30Z</time>
      </trkpt>
      <trkpt lat="44.32409" lon="4.06395">
        <ele>297</ele>
        <time>2017-11-20T10:48:32Z</time>
      </trkpt>
      <trkpt lat="44.32412" lon="4.06398">
        <ele>296</ele>
        <time>2017-11-20T10:48:35Z</time>
      </trkpt>
      <trkpt lat="44.32412" lon="4.06399">
        <ele>295</ele>
        <time>2017-11-20T10:48:37Z</time>
      </trkpt>
      <trkpt lat="44.32411" lon="4.06401">
        <ele>294</ele>
        <time>2017-11-20T10:48:38Z</time>
      </trkpt>
      <trkpt lat="44.32406" lon="4.06404">
        <ele>293</ele>
        <time>2017-11-20T10:48:40Z</time>
      </trkpt>
      <trkpt lat="44.32401" lon="4.06405">
        <ele>293</ele>
        <time>2017-11-20T10:48:42Z</time>
      </trkpt>
      <trkpt lat="44.32393" lon="4.06407">
        <ele>293</ele>
        <time>2017-11-20T10:48:44Z</time>
      </trkpt>
      <trkpt lat="44.32384" lon="4.06408">
        <ele>292</ele>
        <time>2017-11-20T10:48:46Z</time>
      </trkpt>
      <trkpt lat="44.32371" lon="4.06406">
        <ele>291</ele>
        <time>2017-11-20T10:48:49Z</time>
      </trkpt>
      <trkpt lat="44.32368" lon="4.06405">
        <ele>290</ele>
        <time>2017-11-20T10:48:50Z</time>
      </trkpt>
      <trkpt lat="44.32364" lon="4.06404">
        <ele>289</ele>
        <time>2017-11-20T10:48:51Z</time>
      </trkpt>
      <trkpt lat="44.3236" lon="4.06404">
        <ele>288</ele>
        <time>2017-11-20T10:48:52Z</time>
      </trkpt>
      <trkpt lat="44.32354" lon="4.06402">
        <ele>286</ele>
        <time>2017-11-20T10:48:54Z</time>
      </trkpt>
      <trkpt lat="44.32351" lon="4.06402">
        <ele>285</ele>
        <time>2017-11-20T10:48:56Z</time>
      </trkpt>
      <trkpt lat="44.32352" lon="4.06404">
        <ele>285</ele>
        <time>2017-11-20T10:48:57Z</time>
      </trkpt>
      <trkpt lat="44.32353" lon="4.06406">
        <ele>284</ele>
        <time>2017-11-20T10:48:58Z</time>
      </trkpt>
      <trkpt lat="44.32355" lon="4.06409">
        <ele>282</ele>
        <time>2017-11-20T10:49:00Z</time>
      </trkpt>
      <trkpt lat="44.32356" lon="4.06412">
        <ele>281</ele>
        <time>2017-11-20T10:49:01Z</time>
      </trkpt>
      <trkpt lat="44.32356" lon="4.06418">
        <ele>280</ele>
        <time>2017-11-20T10:49:03Z</time>
      </trkpt>
      <trkpt lat="44.32354" lon="4.06424">
        <ele>278</ele>
        <time>2017-11-20T10:49:06Z</time>
      </trkpt>
      <trkpt lat="44.32354" lon="4.06432">
        <ele>277</ele>
        <time>2017-11-20T10:49:10Z</time>
      </trkpt>
      <trkpt lat="44.32354" lon="4.06436">
        <ele>277</ele>
        <time>2017-11-20T10:49:16Z</time>
      </trkpt>
      <trkpt lat="44.3236" lon="4.06445">
        <ele>277</ele>
        <time>2017-11-20T10:54:24Z</time>
      </trkpt>
      <trkpt lat="44.3236" lon="4.06446">
        <ele>276</ele>
        <time>2017-11-20T10:55:50Z</time>
      </trkpt>
      <trkpt lat="44.3236" lon="4.06448">
        <ele>277</ele>
        <time>2017-11-20T10:56:51Z</time>
      </trkpt>
      <trkpt lat="44.32358" lon="4.0645">
        <ele>277</ele>
        <time>2017-11-20T10:56:55Z</time>
      </trkpt>
      <trkpt lat="44.32359" lon="4.06452">
        <ele>277</ele>
        <time>2017-11-20T10:57:26Z</time>
      </trkpt>
      <trkpt lat="44.3236" lon="4.06461">
        <ele>278</ele>
        <time>2017-11-20T10:57:39Z</time>
      </trkpt>
      <trkpt lat="44.32357" lon="4.06481">
        <ele>279</ele>
        <time>2017-11-20T10:57:57Z</time>
      </trkpt>
      <trkpt lat="44.32357" lon="4.06487">
        <ele>280</ele>
        <time>2017-11-20T10:58:01Z</time>
      </trkpt>
      <trkpt lat="44.32356" lon="4.06491">
        <ele>280</ele>
        <time>2017-11-20T10:58:04Z</time>
      </trkpt>
      <trkpt lat="44.32355" lon="4.06495">
        <ele>281</ele>
        <time>2017-11-20T10:58:07Z</time>
      </trkpt>
      <trkpt lat="44.32354" lon="4.06496">
        <ele>282</ele>
        <time>2017-11-20T10:58:12Z</time>
      </trkpt>
      <trkpt lat="44.32354" lon="4.06498">
        <ele>282</ele>
        <time>2017-11-20T10:58:14Z</time>
      </trkpt>
      <trkpt lat="44.32353" lon="4.06514">
        <ele>283</ele>
        <time>2017-11-20T10:58:25Z</time>
      </trkpt>
      <trkpt lat="44.32353" lon="4.06517">
        <ele>284</ele>
        <time>2017-11-20T10:58:32Z</time>
      </trkpt>
      <trkpt lat="44.32352" lon="4.0652">
        <ele>285</ele>
        <time>2017-11-20T10:58:40Z</time>
      </trkpt>
      <trkpt lat="44.3235" lon="4.06529">
        <ele>285</ele>
        <time>2017-11-20T10:58:45Z</time>
      </trkpt>
      <trkpt lat="44.3235" lon="4.06537">
        <ele>285</ele>
        <time>2017-11-20T10:58:49Z</time>
      </trkpt>
      <trkpt lat="44.32348" lon="4.0654">
        <ele>285</ele>
        <time>2017-11-20T10:58:52Z</time>
      </trkpt>
      <trkpt lat="44.32346" lon="4.0654">
        <ele>286</ele>
        <time>2017-11-20T10:58:54Z</time>
      </trkpt>
      <trkpt lat="44.32345" lon="4.06539">
        <ele>286</ele>
        <time>2017-11-20T10:58:55Z</time>
      </trkpt>
      <trkpt lat="44.32344" lon="4.06532">
        <ele>287</ele>
        <time>2017-11-20T10:58:59Z</time>
      </trkpt>
      <trkpt lat="44.32343" lon="4.06531">
        <ele>287</ele>
        <time>2017-11-20T10:59:00Z</time>
      </trkpt>
      <trkpt lat="44.32342" lon="4.06525">
        <ele>288</ele>
        <time>2017-11-20T10:59:04Z</time>
      </trkpt>
      <trkpt lat="44.32338" lon="4.06516">
        <ele>289</ele>
        <time>2017-11-20T10:59:10Z</time>
      </trkpt>
      <trkpt lat="44.32336" lon="4.06513">
        <ele>289</ele>
        <time>2017-11-20T10:59:12Z</time>
      </trkpt>
      <trkpt lat="44.3233" lon="4.06505">
        <ele>290</ele>
        <time>2017-11-20T10:59:19Z</time>
      </trkpt>
      <trkpt lat="44.32324" lon="4.06498">
        <ele>291</ele>
        <time>2017-11-20T10:59:25Z</time>
      </trkpt>
      <trkpt lat="44.3232" lon="4.06493">
        <ele>292</ele>
        <time>2017-11-20T10:59:29Z</time>
      </trkpt>
      <trkpt lat="44.32317" lon="4.06489">
        <ele>292</ele>
        <time>2017-11-20T10:59:32Z</time>
      </trkpt>
      <trkpt lat="44.32314" lon="4.06487">
        <ele>293</ele>
        <time>2017-11-20T10:59:36Z</time>
      </trkpt>
      <trkpt lat="44.32311" lon="4.06487">
        <ele>293</ele>
        <time>2017-11-20T10:59:38Z</time>
      </trkpt>
      <trkpt lat="44.32308" lon="4.06492">
        <ele>295</ele>
        <time>2017-11-20T10:59:43Z</time>
      </trkpt>
      <trkpt lat="44.32309" lon="4.06495">
        <ele>296</ele>
        <time>2017-11-20T10:59:49Z</time>
      </trkpt>
      <trkpt lat="44.32309" lon="4.06495">
        <ele>297</ele>
        <time>2017-11-20T10:59:54Z</time>
      </trkpt>
      <trkpt lat="44.3231" lon="4.06497">
        <ele>297</ele>
        <time>2017-11-20T11:00:18Z</time>
      </trkpt>
      <trkpt lat="44.32315" lon="4.06515">
        <ele>297</ele>
        <time>2017-11-20T11:00:30Z</time>
      </trkpt>
      <trkpt lat="44.32316" lon="4.06526">
        <ele>298</ele>
        <time>2017-11-20T11:00:36Z</time>
      </trkpt>
      <trkpt lat="44.32314" lon="4.06534">
        <ele>299</ele>
        <time>2017-11-20T11:00:41Z</time>
      </trkpt>
      <trkpt lat="44.32313" lon="4.06536">
        <ele>299</ele>
        <time>2017-11-20T11:00:43Z</time>
      </trkpt>
      <trkpt lat="44.32308" lon="4.0654">
        <ele>300</ele>
        <time>2017-11-20T11:00:48Z</time>
      </trkpt>
      <trkpt lat="44.32306" lon="4.0654">
        <ele>300</ele>
        <time>2017-11-20T11:00:50Z</time>
      </trkpt>
      <trkpt lat="44.32302" lon="4.0654">
        <ele>301</ele>
        <time>2017-11-20T11:00:53Z</time>
      </trkpt>
      <trkpt lat="44.32296" lon="4.0654">
        <ele>303</ele>
        <time>2017-11-20T11:00:59Z</time>
      </trkpt>
      <trkpt lat="44.32291" lon="4.06538">
        <ele>304</ele>
        <time>2017-11-20T11:01:03Z</time>
      </trkpt>
      <trkpt lat="44.32289" lon="4.06537">
        <ele>304</ele>
        <time>2017-11-20T11:01:05Z</time>
      </trkpt>
      <trkpt lat="44.32288" lon="4.06537">
        <ele>305</ele>
        <time>2017-11-20T11:01:08Z</time>
      </trkpt>
      <trkpt lat="44.32286" lon="4.06536">
        <ele>306</ele>
        <time>2017-11-20T11:01:12Z</time>
      </trkpt>
      <trkpt lat="44.32284" lon="4.06535">
        <ele>307</ele>
        <time>2017-11-20T11:01:18Z</time>
      </trkpt>
      <trkpt lat="44.32281" lon="4.06533">
        <ele>307</ele>
        <time>2017-11-20T11:02:13Z</time>
      </trkpt>
      <trkpt lat="44.32275" lon="4.06529">
        <ele>307</ele>
        <time>2017-11-20T11:02:18Z</time>
      </trkpt>
      <trkpt lat="44.32267" lon="4.06521">
        <ele>308</ele>
        <time>2017-11-20T11:02:25Z</time>
      </trkpt>
      <trkpt lat="44.32261" lon="4.06513">
        <ele>309</ele>
        <time>2017-11-20T11:02:31Z</time>
      </trkpt>
      <trkpt lat="44.32256" lon="4.06503">
        <ele>310</ele>
        <time>2017-11-20T11:02:38Z</time>
      </trkpt>
      <trkpt lat="44.3225" lon="4.06492">
        <ele>311</ele>
        <time>2017-11-20T11:02:46Z</time>
      </trkpt>
      <trkpt lat="44.32248" lon="4.06489">
        <ele>313</ele>
        <time>2017-11-20T11:02:50Z</time>
      </trkpt>
      <trkpt lat="44.32246" lon="4.0648">
        <ele>314</ele>
        <time>2017-11-20T11:02:56Z</time>
      </trkpt>
      <trkpt lat="44.32239" lon="4.06477">
        <ele>315</ele>
        <time>2017-11-20T11:03:02Z</time>
      </trkpt>
      <trkpt lat="44.32237" lon="4.06477">
        <ele>315</ele>
        <time>2017-11-20T11:03:03Z</time>
      </trkpt>
      <trkpt lat="44.32229" lon="4.0648">
        <ele>316</ele>
        <time>2017-11-20T11:03:11Z</time>
      </trkpt>
      <trkpt lat="44.32228" lon="4.06479">
        <ele>316</ele>
        <time>2017-11-20T11:03:12Z</time>
      </trkpt>
      <trkpt lat="44.32224" lon="4.06477">
        <ele>317</ele>
        <time>2017-11-20T11:03:16Z</time>
      </trkpt>
      <trkpt lat="44.32219" lon="4.0647">
        <ele>318</ele>
        <time>2017-11-20T11:03:23Z</time>
      </trkpt>
      <trkpt lat="44.32214" lon="4.06467">
        <ele>319</ele>
        <time>2017-11-20T11:03:28Z</time>
      </trkpt>
      <trkpt lat="44.32208" lon="4.06467">
        <ele>320</ele>
        <time>2017-11-20T11:03:33Z</time>
      </trkpt>
      <trkpt lat="44.32206" lon="4.06468">
        <ele>320</ele>
        <time>2017-11-20T11:03:35Z</time>
      </trkpt>
      <trkpt lat="44.32204" lon="4.06469">
        <ele>320</ele>
        <time>2017-11-20T11:03:37Z</time>
      </trkpt>
      <trkpt lat="44.32196" lon="4.06471">
        <ele>321</ele>
        <time>2017-11-20T11:03:44Z</time>
      </trkpt>
      <trkpt lat="44.32193" lon="4.06474">
        <ele>322</ele>
        <time>2017-11-20T11:03:48Z</time>
      </trkpt>
      <trkpt lat="44.32193" lon="4.06475">
        <ele>322</ele>
        <time>2017-11-20T11:03:49Z</time>
      </trkpt>
      <trkpt lat="44.32192" lon="4.06477">
        <ele>323</ele>
        <time>2017-11-20T11:03:54Z</time>
      </trkpt>
      <trkpt lat="44.32192" lon="4.06476">
        <ele>324</ele>
        <time>2017-11-20T11:04:01Z</time>
      </trkpt>
      <trkpt lat="44.32192" lon="4.06476">
        <ele>325</ele>
        <time>2017-11-20T11:05:12Z</time>
      </trkpt>
      <trkpt lat="44.32205" lon="4.06509">
        <ele>326</ele>
        <time>2017-11-20T11:05:32Z</time>
      </trkpt>
      <trkpt lat="44.32206" lon="4.06516">
        <ele>327</ele>
        <time>2017-11-20T11:05:36Z</time>
      </trkpt>
      <trkpt lat="44.32208" lon="4.0652">
        <ele>327</ele>
        <time>2017-11-20T11:05:39Z</time>
      </trkpt>
      <trkpt lat="44.32208" lon="4.06525">
        <ele>328</ele>
        <time>2017-11-20T11:05:42Z</time>
      </trkpt>
      <trkpt lat="44.32209" lon="4.06537">
        <ele>329</ele>
        <time>2017-11-20T11:05:49Z</time>
      </trkpt>
      <trkpt lat="44.32208" lon="4.06553">
        <ele>330</ele>
        <time>2017-11-20T11:05:58Z</time>
      </trkpt>
      <trkpt lat="44.32207" lon="4.06566">
        <ele>331</ele>
        <time>2017-11-20T11:06:05Z</time>
      </trkpt>
      <trkpt lat="44.32203" lon="4.06581">
        <ele>333</ele>
        <time>2017-11-20T11:06:13Z</time>
      </trkpt>
      <trkpt lat="44.32201" lon="4.06595">
        <ele>334</ele>
        <time>2017-11-20T11:06:22Z</time>
      </trkpt>
      <trkpt lat="44.32196" lon="4.06601">
        <ele>335</ele>
        <time>2017-11-20T11:06:28Z</time>
      </trkpt>
      <trkpt lat="44.32182" lon="4.06611">
        <ele>336</ele>
        <time>2017-11-20T11:06:41Z</time>
      </trkpt>
      <trkpt lat="44.32175" lon="4.06617">
        <ele>337</ele>
        <time>2017-11-20T11:06:48Z</time>
      </trkpt>
      <trkpt lat="44.32166" lon="4.06625">
        <ele>338</ele>
        <time>2017-11-20T11:06:56Z</time>
      </trkpt>
      <trkpt lat="44.3215" lon="4.06642">
        <ele>339</ele>
        <time>2017-11-20T11:07:11Z</time>
      </trkpt>
      <trkpt lat="44.32139" lon="4.0665">
        <ele>340</ele>
        <time>2017-11-20T11:07:21Z</time>
      </trkpt>
      <trkpt lat="44.32138" lon="4.06657">
        <ele>342</ele>
        <time>2017-11-20T11:07:25Z</time>
      </trkpt>
      <trkpt lat="44.32137" lon="4.06662">
        <ele>342</ele>
        <time>2017-11-20T11:07:28Z</time>
      </trkpt>
      <trkpt lat="44.32135" lon="4.06665">
        <ele>343</ele>
        <time>2017-11-20T11:07:30Z</time>
      </trkpt>
      <trkpt lat="44.32133" lon="4.06668">
        <ele>343</ele>
        <time>2017-11-20T11:07:32Z</time>
      </trkpt>
      <trkpt lat="44.3212" lon="4.06683">
        <ele>344</ele>
        <time>2017-11-20T11:07:45Z</time>
      </trkpt>
      <trkpt lat="44.32112" lon="4.06694">
        <ele>345</ele>
        <time>2017-11-20T11:07:55Z</time>
      </trkpt>
      <trkpt lat="44.32109" lon="4.06698">
        <ele>346</ele>
        <time>2017-11-20T11:07:59Z</time>
      </trkpt>
      <trkpt lat="44.32107" lon="4.06699">
        <ele>346</ele>
        <time>2017-11-20T11:08:01Z</time>
      </trkpt>
      <trkpt lat="44.32104" lon="4.06702">
        <ele>347</ele>
        <time>2017-11-20T11:08:05Z</time>
      </trkpt>
      <trkpt lat="44.32098" lon="4.06704">
        <ele>348</ele>
        <time>2017-11-20T11:08:12Z</time>
      </trkpt>
      <trkpt lat="44.32077" lon="4.06717">
        <ele>349</ele>
        <time>2017-11-20T11:08:28Z</time>
      </trkpt>
      <trkpt lat="44.32067" lon="4.06726">
        <ele>350</ele>
        <time>2017-11-20T11:08:36Z</time>
      </trkpt>
      <trkpt lat="44.32061" lon="4.06731">
        <ele>351</ele>
        <time>2017-11-20T11:08:41Z</time>
      </trkpt>
      <trkpt lat="44.32053" lon="4.06739">
        <ele>352</ele>
        <time>2017-11-20T11:08:49Z</time>
      </trkpt>
      <trkpt lat="44.32049" lon="4.06746">
        <ele>354</ele>
        <time>2017-11-20T11:08:55Z</time>
      </trkpt>
      <trkpt lat="44.32044" lon="4.0675">
        <ele>354</ele>
        <time>2017-11-20T11:08:59Z</time>
      </trkpt>
      <trkpt lat="44.32042" lon="4.06751">
        <ele>355</ele>
        <time>2017-11-20T11:09:01Z</time>
      </trkpt>
      <trkpt lat="44.32031" lon="4.06754">
        <ele>356</ele>
        <time>2017-11-20T11:09:09Z</time>
      </trkpt>
      <trkpt lat="44.32026" lon="4.06763">
        <ele>357</ele>
        <time>2017-11-20T11:09:16Z</time>
      </trkpt>
      <trkpt lat="44.32021" lon="4.06769">
        <ele>358</ele>
        <time>2017-11-20T11:09:22Z</time>
      </trkpt>
      <trkpt lat="44.32015" lon="4.06768">
        <ele>359</ele>
        <time>2017-11-20T11:09:27Z</time>
      </trkpt>
      <trkpt lat="44.31997" lon="4.06765">
        <ele>360</ele>
        <time>2017-11-20T11:09:39Z</time>
      </trkpt>
      <trkpt lat="44.31981" lon="4.06764">
        <ele>361</ele>
        <time>2017-11-20T11:09:48Z</time>
      </trkpt>
      <trkpt lat="44.31971" lon="4.0675">
        <ele>361</ele>
        <time>2017-11-20T11:09:53Z</time>
      </trkpt>
      <trkpt lat="44.31952" lon="4.06732">
        <ele>360</ele>
        <time>2017-11-20T11:10:03Z</time>
      </trkpt>
      <trkpt lat="44.31942" lon="4.06701">
        <ele>359</ele>
        <time>2017-11-20T11:10:09Z</time>
      </trkpt>
      <trkpt lat="44.31929" lon="4.06673">
        <ele>358</ele>
        <time>2017-11-20T11:10:16Z</time>
      </trkpt>
      <trkpt lat="44.31904" lon="4.06652">
        <ele>359</ele>
        <time>2017-11-20T11:10:33Z</time>
      </trkpt>
      <trkpt lat="44.31898" lon="4.06654">
        <ele>360</ele>
        <time>2017-11-20T11:10:37Z</time>
      </trkpt>
      <trkpt lat="44.3189" lon="4.06659">
        <ele>361</ele>
        <time>2017-11-20T11:10:44Z</time>
      </trkpt>
      <trkpt lat="44.31888" lon="4.06658">
        <ele>362</ele>
        <time>2017-11-20T11:10:50Z</time>
      </trkpt>
      <trkpt lat="44.31888" lon="4.06658">
        <ele>363</ele>
        <time>2017-11-20T11:11:09Z</time>
      </trkpt>
      <trkpt lat="44.31886" lon="4.0666">
        <ele>363</ele>
        <time>2017-11-20T11:11:12Z</time>
      </trkpt>
      <trkpt lat="44.31874" lon="4.06667">
        <ele>363</ele>
        <time>2017-11-20T11:11:21Z</time>
      </trkpt>
      <trkpt lat="44.31848" lon="4.06693">
        <ele>364</ele>
        <time>2017-11-20T11:11:37Z</time>
      </trkpt>
      <trkpt lat="44.31826" lon="4.06719">
        <ele>365</ele>
        <time>2017-11-20T11:11:52Z</time>
      </trkpt>
      <trkpt lat="44.31817" lon="4.06728">
        <ele>366</ele>
        <time>2017-11-20T11:11:58Z</time>
      </trkpt>
      <trkpt lat="44.31799" lon="4.06748">
        <ele>367</ele>
        <time>2017-11-20T11:12:11Z</time>
      </trkpt>
      <trkpt lat="44.31791" lon="4.06758">
        <ele>368</ele>
        <time>2017-11-20T11:12:17Z</time>
      </trkpt>
      <trkpt lat="44.3178" lon="4.06774">
        <ele>369</ele>
        <time>2017-11-20T11:12:26Z</time>
      </trkpt>
      <trkpt lat="44.3177" lon="4.06789">
        <ele>370</ele>
        <time>2017-11-20T11:12:34Z</time>
      </trkpt>
      <trkpt lat="44.31758" lon="4.06805">
        <ele>372</ele>
        <time>2017-11-20T11:12:45Z</time>
      </trkpt>
      <trkpt lat="44.31752" lon="4.06811">
        <ele>373</ele>
        <time>2017-11-20T11:12:50Z</time>
      </trkpt>
      <trkpt lat="44.31742" lon="4.06822">
        <ele>374</ele>
        <time>2017-11-20T11:12:59Z</time>
      </trkpt>
      <trkpt lat="44.31733" lon="4.06833">
        <ele>375</ele>
        <time>2017-11-20T11:13:07Z</time>
      </trkpt>
      <trkpt lat="44.31723" lon="4.06841">
        <ele>375</ele>
        <time>2017-11-20T11:13:14Z</time>
      </trkpt>
      <trkpt lat="44.31712" lon="4.0685">
        <ele>376</ele>
        <time>2017-11-20T11:13:22Z</time>
      </trkpt>
      <trkpt lat="44.31702" lon="4.06858">
        <ele>377</ele>
        <time>2017-11-20T11:13:29Z</time>
      </trkpt>
      <trkpt lat="44.31693" lon="4.06862">
        <ele>378</ele>
        <time>2017-11-20T11:13:35Z</time>
      </trkpt>
      <trkpt lat="44.31686" lon="4.06866">
        <ele>379</ele>
        <time>2017-11-20T11:13:40Z</time>
      </trkpt>
      <trkpt lat="44.31676" lon="4.06873">
        <ele>381</ele>
        <time>2017-11-20T11:13:47Z</time>
      </trkpt>
      <trkpt lat="44.31664" lon="4.06888">
        <ele>382</ele>
        <time>2017-11-20T11:13:56Z</time>
      </trkpt>
      <trkpt lat="44.31645" lon="4.06916">
        <ele>383</ele>
        <time>2017-11-20T11:14:10Z</time>
      </trkpt>
      <trkpt lat="44.31637" lon="4.06933">
        <ele>384</ele>
        <time>2017-11-20T11:14:20Z</time>
      </trkpt>
      <trkpt lat="44.31632" lon="4.06943">
        <ele>385</ele>
        <time>2017-11-20T11:14:26Z</time>
      </trkpt>
      <trkpt lat="44.31619" lon="4.06962">
        <ele>386</ele>
        <time>2017-11-20T11:14:40Z</time>
      </trkpt>
      <trkpt lat="44.31612" lon="4.06973">
        <ele>387</ele>
        <time>2017-11-20T11:14:47Z</time>
      </trkpt>
      <trkpt lat="44.31601" lon="4.06987">
        <ele>388</ele>
        <time>2017-11-20T11:14:57Z</time>
      </trkpt>
      <trkpt lat="44.31599" lon="4.06989">
        <ele>389</ele>
        <time>2017-11-20T11:14:59Z</time>
      </trkpt>
      <trkpt lat="44.31597" lon="4.06998">
        <ele>389</ele>
        <time>2017-11-20T11:15:14Z</time>
      </trkpt>
      <trkpt lat="44.31592" lon="4.07016">
        <ele>389</ele>
        <time>2017-11-20T11:15:22Z</time>
      </trkpt>
      <trkpt lat="44.31586" lon="4.07039">
        <ele>390</ele>
        <time>2017-11-20T11:15:40Z</time>
      </trkpt>
      <trkpt lat="44.31562" lon="4.07107">
        <ele>391</ele>
        <time>2017-11-20T11:19:40Z</time>
      </trkpt>
      <trkpt lat="44.31561" lon="4.07109">
        <ele>391</ele>
        <time>2017-11-20T11:19:41Z</time>
      </trkpt>
      <trkpt lat="44.31549" lon="4.07149">
        <ele>392</ele>
        <time>2017-11-20T11:19:55Z</time>
      </trkpt>
      <trkpt lat="44.31543" lon="4.07182">
        <ele>393</ele>
        <time>2017-11-20T11:20:06Z</time>
      </trkpt>
      <trkpt lat="44.31539" lon="4.072">
        <ele>394</ele>
        <time>2017-11-20T11:20:12Z</time>
      </trkpt>
      <trkpt lat="44.31538" lon="4.07205">
        <ele>395</ele>
        <time>2017-11-20T11:20:14Z</time>
      </trkpt>
      <trkpt lat="44.31536" lon="4.07222">
        <ele>396</ele>
        <time>2017-11-20T11:20:20Z</time>
      </trkpt>
      <trkpt lat="44.31534" lon="4.07235">
        <ele>397</ele>
        <time>2017-11-20T11:20:25Z</time>
      </trkpt>
      <trkpt lat="44.3154" lon="4.07305">
        <ele>397</ele>
        <time>2017-11-20T11:20:44Z</time>
      </trkpt>
      <trkpt lat="44.31575" lon="4.07335">
        <ele>397</ele>
        <time>2017-11-20T11:22:00Z</time>
      </trkpt>
      <trkpt lat="44.3158" lon="4.07326">
        <ele>397</ele>
        <time>2017-11-20T11:22:04Z</time>
      </trkpt>
      <trkpt lat="44.31596" lon="4.07286">
        <ele>398</ele>
        <time>2017-11-20T11:22:18Z</time>
      </trkpt>
      <trkpt lat="44.31615" lon="4.07262">
        <ele>399</ele>
        <time>2017-11-20T11:22:29Z</time>
      </trkpt>
      <trkpt lat="44.3163" lon="4.07244">
        <ele>400</ele>
        <time>2017-11-20T11:22:37Z</time>
      </trkpt>
      <trkpt lat="44.31647" lon="4.07222">
        <ele>401</ele>
        <time>2017-11-20T11:22:47Z</time>
      </trkpt>
      <trkpt lat="44.31654" lon="4.07206">
        <ele>402</ele>
        <time>2017-11-20T11:22:53Z</time>
      </trkpt>
      <trkpt lat="44.31666" lon="4.07177">
        <ele>403</ele>
        <time>2017-11-20T11:23:05Z</time>
      </trkpt>
      <trkpt lat="44.31703" lon="4.07118">
        <ele>404</ele>
        <time>2017-11-20T11:23:25Z</time>
      </trkpt>
      <trkpt lat="44.31743" lon="4.07072">
        <ele>404</ele>
        <time>2017-11-20T11:23:39Z</time>
      </trkpt>
      <trkpt lat="44.31786" lon="4.07026">
        <ele>406</ele>
        <time>2017-11-20T11:23:55Z</time>
      </trkpt>
      <trkpt lat="44.31795" lon="4.07017">
        <ele>406</ele>
        <time>2017-11-20T11:23:58Z</time>
      </trkpt>
      <trkpt lat="44.31842" lon="4.06981">
        <ele>406</ele>
        <time>2017-11-20T11:24:13Z</time>
      </trkpt>
      <trkpt lat="44.31894" lon="4.06996">
        <ele>407</ele>
        <time>2017-11-20T11:24:31Z</time>
      </trkpt>
      <trkpt lat="44.31923" lon="4.07023">
        <ele>407</ele>
        <time>2017-11-20T11:24:42Z</time>
      </trkpt>
      <trkpt lat="44.31949" lon="4.07089">
        <ele>407</ele>
        <time>2017-11-20T11:24:58Z</time>
      </trkpt>
      <trkpt lat="44.31957" lon="4.07109">
        <ele>408</ele>
        <time>2017-11-20T11:25:03Z</time>
      </trkpt>
      <trkpt lat="44.31986" lon="4.07175">
        <ele>409</ele>
        <time>2017-11-20T11:25:20Z</time>
      </trkpt>
      <trkpt lat="44.31988" lon="4.07214">
        <ele>409</ele>
        <time>2017-11-20T11:25:28Z</time>
      </trkpt>
      <trkpt lat="44.31974" lon="4.07288">
        <ele>409</ele>
        <time>2017-11-20T11:25:43Z</time>
      </trkpt>
      <trkpt lat="44.31941" lon="4.07348">
        <ele>409</ele>
        <time>2017-11-20T11:25:57Z</time>
      </trkpt>
      <trkpt lat="44.319" lon="4.07399">
        <ele>408</ele>
        <time>2017-11-20T11:26:10Z</time>
      </trkpt>
      <trkpt lat="44.31897" lon="4.07403">
        <ele>408</ele>
        <time>2017-11-20T11:26:11Z</time>
      </trkpt>
      <trkpt lat="44.31872" lon="4.0744">
        <ele>407</ele>
        <time>2017-11-20T11:26:20Z</time>
      </trkpt>
      <trkpt lat="44.31866" lon="4.07462">
        <ele>407</ele>
        <time>2017-11-20T11:26:24Z</time>
      </trkpt>
      <trkpt lat="44.31866" lon="4.07468">
        <ele>407</ele>
        <time>2017-11-20T11:26:25Z</time>
      </trkpt>
      <trkpt lat="44.31866" lon="4.07546">
        <ele>407</ele>
        <time>2017-11-20T11:26:38Z</time>
      </trkpt>
      <trkpt lat="44.31867" lon="4.07564">
        <ele>407</ele>
        <time>2017-11-20T11:26:41Z</time>
      </trkpt>
      <trkpt lat="44.31872" lon="4.07641">
        <ele>406</ele>
        <time>2017-11-20T11:26:54Z</time>
      </trkpt>
      <trkpt lat="44.31876" lon="4.07659">
        <ele>406</ele>
        <time>2017-11-20T11:26:57Z</time>
      </trkpt>
      <trkpt lat="44.31897" lon="4.07716">
        <ele>405</ele>
        <time>2017-11-20T11:27:08Z</time>
      </trkpt>
      <trkpt lat="44.31914" lon="4.07741">
        <ele>404</ele>
        <time>2017-11-20T11:27:14Z</time>
      </trkpt>
      <trkpt lat="44.31925" lon="4.0775">
        <ele>404</ele>
        <time>2017-11-20T11:27:17Z</time>
      </trkpt>
      <trkpt lat="44.31945" lon="4.07755">
        <ele>404</ele>
        <time>2017-11-20T11:27:22Z</time>
      </trkpt>
      <trkpt lat="44.31999" lon="4.07734">
        <ele>404</ele>
        <time>2017-11-20T11:27:38Z</time>
      </trkpt>
      <trkpt lat="44.32018" lon="4.07699">
        <ele>406</ele>
        <time>2017-11-20T11:27:50Z</time>
      </trkpt>
      <trkpt lat="44.32014" lon="4.07699">
        <ele>406</ele>
        <time>2017-11-20T11:27:53Z</time>
      </trkpt>
      <trkpt lat="44.32014" lon="4.07711">
        <ele>406</ele>
        <time>2017-11-20T11:27:57Z</time>
      </trkpt>
      <trkpt lat="44.32014" lon="4.07716">
        <ele>406</ele>
        <time>2017-11-20T11:28:12Z</time>
      </trkpt>
      <trkpt lat="44.32018" lon="4.07694">
        <ele>407</ele>
        <time>2017-11-20T11:28:23Z</time>
      </trkpt>
      <trkpt lat="44.32033" lon="4.07658">
        <ele>407</ele>
        <time>2017-11-20T11:28:37Z</time>
      </trkpt>
      <trkpt lat="44.32062" lon="4.07614">
        <ele>408</ele>
        <time>2017-11-20T11:28:55Z</time>
      </trkpt>
      <trkpt lat="44.32089" lon="4.07594">
        <ele>409</ele>
        <time>2017-11-20T11:29:08Z</time>
      </trkpt>
      <trkpt lat="44.32119" lon="4.07588">
        <ele>410</ele>
        <time>2017-11-20T11:29:21Z</time>
      </trkpt>
      <trkpt lat="44.32163" lon="4.07576">
        <ele>411</ele>
        <time>2017-11-20T11:29:41Z</time>
      </trkpt>
      <trkpt lat="44.32179" lon="4.07563">
        <ele>412</ele>
        <time>2017-11-20T11:29:51Z</time>
      </trkpt>
      <trkpt lat="44.32179" lon="4.07571">
        <ele>412</ele>
        <time>2017-11-20T11:29:56Z</time>
      </trkpt>
      <trkpt lat="44.32173" lon="4.07578">
        <ele>412</ele>
        <time>2017-11-20T11:30:01Z</time>
      </trkpt>
      <trkpt lat="44.32165" lon="4.07589">
        <ele>413</ele>
        <time>2017-11-20T11:30:09Z</time>
      </trkpt>
      <trkpt lat="44.32162" lon="4.07596">
        <ele>414</ele>
        <time>2017-11-20T11:30:14Z</time>
      </trkpt>
      <trkpt lat="44.32161" lon="4.07597">
        <ele>416</ele>
        <time>2017-11-20T11:30:19Z</time>
      </trkpt>
      <trkpt lat="44.32161" lon="4.07597">
        <ele>417</ele>
        <time>2017-11-20T11:30:33Z</time>
      </trkpt>
      <trkpt lat="44.32159" lon="4.076">
        <ele>417</ele>
        <time>2017-11-20T11:31:03Z</time>
      </trkpt>
      <trkpt lat="44.32146" lon="4.07619">
        <ele>418</ele>
        <time>2017-11-20T11:31:18Z</time>
      </trkpt>
      <trkpt lat="44.3215" lon="4.07633">
        <ele>419</ele>
        <time>2017-11-20T11:31:27Z</time>
      </trkpt>
      <trkpt lat="44.32153" lon="4.07636">
        <ele>420</ele>
        <time>2017-11-20T11:31:30Z</time>
      </trkpt>
      <trkpt lat="44.32159" lon="4.0764">
        <ele>421</ele>
        <time>2017-11-20T11:31:35Z</time>
      </trkpt>
      <trkpt lat="44.32167" lon="4.07643">
        <ele>422</ele>
        <time>2017-11-20T11:31:42Z</time>
      </trkpt>
      <trkpt lat="44.32177" lon="4.07646">
        <ele>423</ele>
        <time>2017-11-20T11:31:50Z</time>
      </trkpt>
      <trkpt lat="44.32187" lon="4.0764">
        <ele>425</ele>
        <time>2017-11-20T11:31:57Z</time>
      </trkpt>
      <trkpt lat="44.32196" lon="4.07632">
        <ele>426</ele>
        <time>2017-11-20T11:32:04Z</time>
      </trkpt>
      <trkpt lat="44.32207" lon="4.07621">
        <ele>427</ele>
        <time>2017-11-20T11:32:13Z</time>
      </trkpt>
      <trkpt lat="44.32215" lon="4.07612">
        <ele>428</ele>
        <time>2017-11-20T11:32:21Z</time>
      </trkpt>
      <trkpt lat="44.32218" lon="4.07609">
        <ele>428</ele>
        <time>2017-11-20T11:32:23Z</time>
      </trkpt>
      <trkpt lat="44.32223" lon="4.07605">
        <ele>429</ele>
        <time>2017-11-20T11:32:27Z</time>
      </trkpt>
      <trkpt lat="44.32225" lon="4.07603">
        <ele>429</ele>
        <time>2017-11-20T11:32:29Z</time>
      </trkpt>
      <trkpt lat="44.32229" lon="4.07599">
        <ele>430</ele>
        <time>2017-11-20T11:32:32Z</time>
      </trkpt>
      <trkpt lat="44.3223" lon="4.07598">
        <ele>430</ele>
        <time>2017-11-20T11:32:33Z</time>
      </trkpt>
      <trkpt lat="44.32235" lon="4.07591">
        <ele>431</ele>
        <time>2017-11-20T11:32:38Z</time>
      </trkpt>
      <trkpt lat="44.32237" lon="4.07589">
        <ele>431</ele>
        <time>2017-11-20T11:32:40Z</time>
      </trkpt>
      <trkpt lat="44.32241" lon="4.07585">
        <ele>432</ele>
        <time>2017-11-20T11:32:44Z</time>
      </trkpt>
      <trkpt lat="44.32246" lon="4.07581">
        <ele>433</ele>
        <time>2017-11-20T11:32:48Z</time>
      </trkpt>
      <trkpt lat="44.3225" lon="4.07579">
        <ele>433</ele>
        <time>2017-11-20T11:32:51Z</time>
      </trkpt>
      <trkpt lat="44.32259" lon="4.07576">
        <ele>434</ele>
        <time>2017-11-20T11:32:58Z</time>
      </trkpt>
      <trkpt lat="44.32272" lon="4.07576">
        <ele>435</ele>
        <time>2017-11-20T11:33:08Z</time>
      </trkpt>
      <trkpt lat="44.32283" lon="4.07578">
        <ele>437</ele>
        <time>2017-11-20T11:33:16Z</time>
      </trkpt>
      <trkpt lat="44.323" lon="4.07583">
        <ele>438</ele>
        <time>2017-11-20T11:33:28Z</time>
      </trkpt>
      <trkpt lat="44.32337" lon="4.07598">
        <ele>437</ele>
        <time>2017-11-20T11:34:25Z</time>
      </trkpt>
      <trkpt lat="44.32342" lon="4.07598">
        <ele>437</ele>
        <time>2017-11-20T11:34:27Z</time>
      </trkpt>
      <trkpt lat="44.3236" lon="4.07594">
        <ele>437</ele>
        <time>2017-11-20T11:34:39Z</time>
      </trkpt>
      <trkpt lat="44.32393" lon="4.07567">
        <ele>438</ele>
        <time>2017-11-20T11:34:59Z</time>
      </trkpt>
      <trkpt lat="44.32395" lon="4.07564">
        <ele>438</ele>
        <time>2017-11-20T11:35:01Z</time>
      </trkpt>
      <trkpt lat="44.32395" lon="4.07561">
        <ele>439</ele>
        <time>2017-11-20T11:35:02Z</time>
      </trkpt>
      <trkpt lat="44.32402" lon="4.07548">
        <ele>439</ele>
        <time>2017-11-20T11:35:09Z</time>
      </trkpt>
      <trkpt lat="44.32405" lon="4.0754">
        <ele>440</ele>
        <time>2017-11-20T11:35:13Z</time>
      </trkpt>
      <trkpt lat="44.32407" lon="4.07537">
        <ele>440</ele>
        <time>2017-11-20T11:35:15Z</time>
      </trkpt>
      <trkpt lat="44.32409" lon="4.07529">
        <ele>441</ele>
        <time>2017-11-20T11:35:27Z</time>
      </trkpt>
      <trkpt lat="44.32414" lon="4.07501">
        <ele>442</ele>
        <time>2017-11-20T11:37:02Z</time>
      </trkpt>
      <trkpt lat="44.32414" lon="4.07499">
        <ele>443</ele>
        <time>2017-11-20T11:37:03Z</time>
      </trkpt>
      <trkpt lat="44.32414" lon="4.07493">
        <ele>443</ele>
        <time>2017-11-20T11:37:07Z</time>
      </trkpt>
      <trkpt lat="44.32415" lon="4.07484">
        <ele>445</ele>
        <time>2017-11-20T11:37:12Z</time>
      </trkpt>
      <trkpt lat="44.32415" lon="4.07475">
        <ele>446</ele>
        <time>2017-11-20T11:37:17Z</time>
      </trkpt>
      <trkpt lat="44.32416" lon="4.07461">
        <ele>447</ele>
        <time>2017-11-20T11:37:24Z</time>
      </trkpt>
      <trkpt lat="44.32419" lon="4.07445">
        <ele>448</ele>
        <time>2017-11-20T11:37:34Z</time>
      </trkpt>
      <trkpt lat="44.32421" lon="4.07437">
        <ele>449</ele>
        <time>2017-11-20T11:37:39Z</time>
      </trkpt>
      <trkpt lat="44.32422" lon="4.07432">
        <ele>450</ele>
        <time>2017-11-20T11:37:42Z</time>
      </trkpt>
      <trkpt lat="44.32422" lon="4.07426">
        <ele>450</ele>
        <time>2017-11-20T11:37:45Z</time>
      </trkpt>
      <trkpt lat="44.32421" lon="4.07414">
        <ele>451</ele>
        <time>2017-11-20T11:37:52Z</time>
      </trkpt>
      <trkpt lat="44.32421" lon="4.0741">
        <ele>452</ele>
        <time>2017-11-20T11:37:54Z</time>
      </trkpt>
      <trkpt lat="44.3242" lon="4.07403">
        <ele>452</ele>
        <time>2017-11-20T11:37:58Z</time>
      </trkpt>
      <trkpt lat="44.32419" lon="4.07397">
        <ele>453</ele>
        <time>2017-11-20T11:38:01Z</time>
      </trkpt>
      <trkpt lat="44.32416" lon="4.07391">
        <ele>454</ele>
        <time>2017-11-20T11:38:05Z</time>
      </trkpt>
      <trkpt lat="44.32415" lon="4.07388">
        <ele>454</ele>
        <time>2017-11-20T11:38:07Z</time>
      </trkpt>
      <trkpt lat="44.32413" lon="4.07382">
        <ele>455</ele>
        <time>2017-11-20T11:38:11Z</time>
      </trkpt>
      <trkpt lat="44.32412" lon="4.07377">
        <ele>455</ele>
        <time>2017-11-20T11:38:15Z</time>
      </trkpt>
      <trkpt lat="44.32412" lon="4.07373">
        <ele>456</ele>
        <time>2017-11-20T11:38:17Z</time>
      </trkpt>
      <trkpt lat="44.32413" lon="4.07369">
        <ele>456</ele>
        <time>2017-11-20T11:38:20Z</time>
      </trkpt>
      <trkpt lat="44.32413" lon="4.07367">
        <ele>457</ele>
        <time>2017-11-20T11:38:21Z</time>
      </trkpt>
      <trkpt lat="44.32413" lon="4.07363">
        <ele>457</ele>
        <time>2017-11-20T11:38:24Z</time>
      </trkpt>
      <trkpt lat="44.32413" lon="4.07361">
        <ele>457</ele>
        <time>2017-11-20T11:38:26Z</time>
      </trkpt>
      <trkpt lat="44.32416" lon="4.07354">
        <ele>458</ele>
        <time>2017-11-20T11:38:31Z</time>
      </trkpt>
      <trkpt lat="44.32418" lon="4.07348">
        <ele>459</ele>
        <time>2017-11-20T11:38:36Z</time>
      </trkpt>
      <trkpt lat="44.32419" lon="4.07345">
        <ele>459</ele>
        <time>2017-11-20T11:38:38Z</time>
      </trkpt>
      <trkpt lat="44.32421" lon="4.07337">
        <ele>460</ele>
        <time>2017-11-20T11:38:44Z</time>
      </trkpt>
      <trkpt lat="44.32431" lon="4.07325">
        <ele>462</ele>
        <time>2017-11-20T11:38:55Z</time>
      </trkpt>
      <trkpt lat="44.32434" lon="4.07321">
        <ele>463</ele>
        <time>2017-11-20T11:39:06Z</time>
      </trkpt>
      <trkpt lat="44.32439" lon="4.07314">
        <ele>464</ele>
        <time>2017-11-20T11:40:06Z</time>
      </trkpt>
      <trkpt lat="44.32447" lon="4.07307">
        <ele>464</ele>
        <time>2017-11-20T11:40:13Z</time>
      </trkpt>
      <trkpt lat="44.32448" lon="4.07307">
        <ele>464</ele>
        <time>2017-11-20T11:40:14Z</time>
      </trkpt>
      <trkpt lat="44.32451" lon="4.07304">
        <ele>465</ele>
        <time>2017-11-20T11:40:17Z</time>
      </trkpt>
      <trkpt lat="44.32453" lon="4.07303">
        <ele>465</ele>
        <time>2017-11-20T11:40:19Z</time>
      </trkpt>
      <trkpt lat="44.32454" lon="4.07302">
        <ele>465</ele>
        <time>2017-11-20T11:40:20Z</time>
      </trkpt>
      <trkpt lat="44.32459" lon="4.07298">
        <ele>466</ele>
        <time>2017-11-20T11:40:25Z</time>
      </trkpt>
      <trkpt lat="44.32472" lon="4.07291">
        <ele>467</ele>
        <time>2017-11-20T11:40:35Z</time>
      </trkpt>
      <trkpt lat="44.32479" lon="4.07287">
        <ele>468</ele>
        <time>2017-11-20T11:40:40Z</time>
      </trkpt>
      <trkpt lat="44.32486" lon="4.07281">
        <ele>469</ele>
        <time>2017-11-20T11:40:45Z</time>
      </trkpt>
      <trkpt lat="44.32487" lon="4.0728">
        <ele>469</ele>
        <time>2017-11-20T11:40:46Z</time>
      </trkpt>
      <trkpt lat="44.32503" lon="4.07267">
        <ele>470</ele>
        <time>2017-11-20T11:40:58Z</time>
      </trkpt>
      <trkpt lat="44.32509" lon="4.07261">
        <ele>471</ele>
        <time>2017-11-20T11:41:03Z</time>
      </trkpt>
      <trkpt lat="44.32515" lon="4.07258">
        <ele>471</ele>
        <time>2017-11-20T11:41:07Z</time>
      </trkpt>
      <trkpt lat="44.32516" lon="4.07257">
        <ele>471</ele>
        <time>2017-11-20T11:41:08Z</time>
      </trkpt>
      <trkpt lat="44.32531" lon="4.07242">
        <ele>472</ele>
        <time>2017-11-20T11:41:20Z</time>
      </trkpt>
      <trkpt lat="44.32539" lon="4.07236">
        <ele>473</ele>
        <time>2017-11-20T11:41:26Z</time>
      </trkpt>
      <trkpt lat="44.32543" lon="4.07232">
        <ele>474</ele>
        <time>2017-11-20T11:41:29Z</time>
      </trkpt>
      <trkpt lat="44.32544" lon="4.07227">
        <ele>474</ele>
        <time>2017-11-20T11:41:31Z</time>
      </trkpt>
      <trkpt lat="44.32547" lon="4.07224">
        <ele>476</ele>
        <time>2017-11-20T11:41:37Z</time>
      </trkpt>
      <trkpt lat="44.32547" lon="4.07224">
        <ele>477</ele>
        <time>2017-11-20T11:41:45Z</time>
      </trkpt>
      <trkpt lat="44.32554" lon="4.07214">
        <ele>478</ele>
        <time>2017-11-20T11:42:27Z</time>
      </trkpt>
      <trkpt lat="44.32559" lon="4.07208">
        <ele>478</ele>
        <time>2017-11-20T11:42:32Z</time>
      </trkpt>
      <trkpt lat="44.32561" lon="4.07205">
        <ele>478</ele>
        <time>2017-11-20T11:42:34Z</time>
      </trkpt>
      <trkpt lat="44.32564" lon="4.07198">
        <ele>479</ele>
        <time>2017-11-20T11:42:38Z</time>
      </trkpt>
      <trkpt lat="44.32567" lon="4.07194">
        <ele>479</ele>
        <time>2017-11-20T11:42:41Z</time>
      </trkpt>
      <trkpt lat="44.32573" lon="4.07185">
        <ele>480</ele>
        <time>2017-11-20T11:42:48Z</time>
      </trkpt>
      <trkpt lat="44.3258" lon="4.07173">
        <ele>481</ele>
        <time>2017-11-20T11:42:57Z</time>
      </trkpt>
      <trkpt lat="44.32581" lon="4.07172">
        <ele>481</ele>
        <time>2017-11-20T11:42:58Z</time>
      </trkpt>
      <trkpt lat="44.32583" lon="4.07165">
        <ele>482</ele>
        <time>2017-11-20T11:43:03Z</time>
      </trkpt>
      <trkpt lat="44.32591" lon="4.07156">
        <ele>483</ele>
        <time>2017-11-20T11:43:10Z</time>
      </trkpt>
      <trkpt lat="44.32594" lon="4.07151">
        <ele>483</ele>
        <time>2017-11-20T11:43:14Z</time>
      </trkpt>
      <trkpt lat="44.32595" lon="4.07149">
        <ele>484</ele>
        <time>2017-11-20T11:43:16Z</time>
      </trkpt>
      <trkpt lat="44.32598" lon="4.07146">
        <ele>485</ele>
        <time>2017-11-20T11:43:19Z</time>
      </trkpt>
      <trkpt lat="44.32599" lon="4.07146">
        <ele>485</ele>
        <time>2017-11-20T11:43:20Z</time>
      </trkpt>
      <trkpt lat="44.32602" lon="4.07142">
        <ele>486</ele>
        <time>2017-11-20T11:43:24Z</time>
      </trkpt>
      <trkpt lat="44.32603" lon="4.07142">
        <ele>486</ele>
        <time>2017-11-20T11:43:26Z</time>
      </trkpt>
      <trkpt lat="44.32603" lon="4.07142">
        <ele>487</ele>
        <time>2017-11-20T11:43:33Z</time>
      </trkpt>
      <trkpt lat="44.32606" lon="4.07139">
        <ele>487</ele>
        <time>2017-11-20T11:44:04Z</time>
      </trkpt>
      <trkpt lat="44.32617" lon="4.07126">
        <ele>488</ele>
        <time>2017-11-20T11:44:15Z</time>
      </trkpt>
      <trkpt lat="44.3262" lon="4.07124">
        <ele>488</ele>
        <time>2017-11-20T11:44:17Z</time>
      </trkpt>
      <trkpt lat="44.3263" lon="4.07112">
        <ele>489</ele>
        <time>2017-11-20T11:44:27Z</time>
      </trkpt>
      <trkpt lat="44.32631" lon="4.07111">
        <ele>490</ele>
        <time>2017-11-20T11:44:28Z</time>
      </trkpt>
      <trkpt lat="44.32636" lon="4.07109">
        <ele>491</ele>
        <time>2017-11-20T11:44:32Z</time>
      </trkpt>
      <trkpt lat="44.32639" lon="4.07108">
        <ele>491</ele>
        <time>2017-11-20T11:44:34Z</time>
      </trkpt>
      <trkpt lat="44.32642" lon="4.07105">
        <ele>492</ele>
        <time>2017-11-20T11:44:37Z</time>
      </trkpt>
      <trkpt lat="44.32655" lon="4.07098">
        <ele>493</ele>
        <time>2017-11-20T11:44:46Z</time>
      </trkpt>
      <trkpt lat="44.32658" lon="4.07096">
        <ele>493</ele>
        <time>2017-11-20T11:44:49Z</time>
      </trkpt>
      <trkpt lat="44.32661" lon="4.07094">
        <ele>494</ele>
        <time>2017-11-20T11:44:52Z</time>
      </trkpt>
      <trkpt lat="44.32663" lon="4.07092">
        <ele>495</ele>
        <time>2017-11-20T11:44:55Z</time>
      </trkpt>
      <trkpt lat="44.32668" lon="4.07089">
        <ele>495</ele>
        <time>2017-11-20T11:44:59Z</time>
      </trkpt>
      <trkpt lat="44.32679" lon="4.0708">
        <ele>496</ele>
        <time>2017-11-20T11:45:10Z</time>
      </trkpt>
      <trkpt lat="44.3269" lon="4.07073">
        <ele>497</ele>
        <time>2017-11-20T11:45:19Z</time>
      </trkpt>
      <trkpt lat="44.32706" lon="4.07057">
        <ele>498</ele>
        <time>2017-11-20T11:45:32Z</time>
      </trkpt>
      <trkpt lat="44.3275" lon="4.0701">
        <ele>499</ele>
        <time>2017-11-20T11:46:02Z</time>
      </trkpt>
      <trkpt lat="44.32759" lon="4.07006">
        <ele>499</ele>
        <time>2017-11-20T11:46:08Z</time>
      </trkpt>
      <trkpt lat="44.32801" lon="4.06992">
        <ele>498</ele>
        <time>2017-11-20T11:46:23Z</time>
      </trkpt>
      <trkpt lat="44.3281" lon="4.06987">
        <ele>497</ele>
        <time>2017-11-20T11:46:27Z</time>
      </trkpt>
      <trkpt lat="44.32862" lon="4.06964">
        <ele>496</ele>
        <time>2017-11-20T11:46:49Z</time>
      </trkpt>
      <trkpt lat="44.32879" lon="4.06954">
        <ele>498</ele>
        <time>2017-11-20T11:47:00Z</time>
      </trkpt>
      <trkpt lat="44.32917" lon="4.06935">
        <ele>499</ele>
        <time>2017-11-20T11:47:20Z</time>
      </trkpt>
      <trkpt lat="44.32933" lon="4.06927">
        <ele>500</ele>
        <time>2017-11-20T11:47:29Z</time>
      </trkpt>
      <trkpt lat="44.32936" lon="4.06925">
        <ele>501</ele>
        <time>2017-11-20T11:47:31Z</time>
      </trkpt>
      <trkpt lat="44.32942" lon="4.06922">
        <ele>501</ele>
        <time>2017-11-20T11:47:34Z</time>
      </trkpt>
      <trkpt lat="44.32998" lon="4.06914">
        <ele>501</ele>
        <time>2017-11-20T11:47:54Z</time>
      </trkpt>
      <trkpt lat="44.33015" lon="4.06915">
        <ele>501</ele>
        <time>2017-11-20T11:47:58Z</time>
      </trkpt>
      <trkpt lat="44.33039" lon="4.0692">
        <ele>500</ele>
        <time>2017-11-20T11:48:03Z</time>
      </trkpt>
      <trkpt lat="44.33052" lon="4.06921">
        <ele>499</ele>
        <time>2017-11-20T11:48:06Z</time>
      </trkpt>
      <trkpt lat="44.3307" lon="4.0692">
        <ele>498</ele>
        <time>2017-11-20T11:48:10Z</time>
      </trkpt>
      <trkpt lat="44.33119" lon="4.06903">
        <ele>499</ele>
        <time>2017-11-20T11:48:28Z</time>
      </trkpt>
      <trkpt lat="44.33125" lon="4.06904">
        <ele>500</ele>
        <time>2017-11-20T11:48:32Z</time>
      </trkpt>
      <trkpt lat="44.33127" lon="4.06909">
        <ele>500</ele>
        <time>2017-11-20T11:48:35Z</time>
      </trkpt>
      <trkpt lat="44.33131" lon="4.06917">
        <ele>500</ele>
        <time>2017-11-20T11:48:38Z</time>
      </trkpt>
      <trkpt lat="44.3318" lon="4.06949">
        <ele>499</ele>
        <time>2017-11-20T11:48:57Z</time>
      </trkpt>
      <trkpt lat="44.3319" lon="4.06956">
        <ele>499</ele>
        <time>2017-11-20T11:49:04Z</time>
      </trkpt>
      <trkpt lat="44.33193" lon="4.06952">
        <ele>499</ele>
        <time>2017-11-20T11:49:08Z</time>
      </trkpt>
      <trkpt lat="44.33192" lon="4.06944">
        <ele>499</ele>
        <time>2017-11-20T11:49:12Z</time>
      </trkpt>
      <trkpt lat="44.3319" lon="4.06925">
        <ele>501</ele>
        <time>2017-11-20T11:49:23Z</time>
      </trkpt>
      <trkpt lat="44.33191" lon="4.06919">
        <ele>502</ele>
        <time>2017-11-20T11:49:27Z</time>
      </trkpt>
      <trkpt lat="44.33192" lon="4.06911">
        <ele>504</ele>
        <time>2017-11-20T11:49:32Z</time>
      </trkpt>
      <trkpt lat="44.33195" lon="4.06902">
        <ele>504</ele>
        <time>2017-11-20T11:49:37Z</time>
      </trkpt>
      <trkpt lat="44.33198" lon="4.06896">
        <ele>506</ele>
        <time>2017-11-20T11:49:41Z</time>
      </trkpt>
      <trkpt lat="44.33215" lon="4.06891">
        <ele>507</ele>
        <time>2017-11-20T11:49:54Z</time>
      </trkpt>
      <trkpt lat="44.33234" lon="4.06885">
        <ele>508</ele>
        <time>2017-11-20T11:50:06Z</time>
      </trkpt>
      <trkpt lat="44.33242" lon="4.06881">
        <ele>509</ele>
        <time>2017-11-20T11:50:12Z</time>
      </trkpt>
      <trkpt lat="44.33244" lon="4.06879">
        <ele>509</ele>
        <time>2017-11-20T11:50:14Z</time>
      </trkpt>
      <trkpt lat="44.33248" lon="4.06878">
        <ele>510</ele>
        <time>2017-11-20T11:50:17Z</time>
      </trkpt>
      <trkpt lat="44.3325" lon="4.06877">
        <ele>510</ele>
        <time>2017-11-20T11:50:19Z</time>
      </trkpt>
      <trkpt lat="44.33251" lon="4.06877">
        <ele>510</ele>
        <time>2017-11-20T11:50:20Z</time>
      </trkpt>
      <trkpt lat="44.33254" lon="4.06875">
        <ele>511</ele>
        <time>2017-11-20T11:50:23Z</time>
      </trkpt>
      <trkpt lat="44.33257" lon="4.06873">
        <ele>511</ele>
        <time>2017-11-20T11:50:26Z</time>
      </trkpt>
      <trkpt lat="44.33262" lon="4.06871">
        <ele>512</ele>
        <time>2017-11-20T11:50:31Z</time>
      </trkpt>
      <trkpt lat="44.33264" lon="4.06871">
        <ele>513</ele>
        <time>2017-11-20T11:50:37Z</time>
      </trkpt>
      <trkpt lat="44.33264" lon="4.06871">
        <ele>514</ele>
        <time>2017-11-20T11:50:58Z</time>
      </trkpt>
      <trkpt lat="44.33264" lon="4.06871">
        <ele>514</ele>
        <time>2017-11-20T11:51:16Z</time>
      </trkpt>
      <trkpt lat="44.33264" lon="4.06871">
        <ele>514</ele>
        <time>2017-11-20T11:53:27Z</time>
      </trkpt>
      <trkpt lat="44.33269" lon="4.06868">
        <ele>515</ele>
        <time>2017-11-20T11:54:11Z</time>
      </trkpt>
      <trkpt lat="44.33274" lon="4.06865">
        <ele>515</ele>
        <time>2017-11-20T11:54:16Z</time>
      </trkpt>
      <trkpt lat="44.33282" lon="4.0686">
        <ele>516</ele>
        <time>2017-11-20T11:54:23Z</time>
      </trkpt>
      <trkpt lat="44.3329" lon="4.06856">
        <ele>517</ele>
        <time>2017-11-20T11:54:30Z</time>
      </trkpt>
      <trkpt lat="44.33296" lon="4.06853">
        <ele>518</ele>
        <time>2017-11-20T11:54:36Z</time>
      </trkpt>
      <trkpt lat="44.33297" lon="4.06853">
        <ele>519</ele>
        <time>2017-11-20T11:54:37Z</time>
      </trkpt>
      <trkpt lat="44.33305" lon="4.0685">
        <ele>519</ele>
        <time>2017-11-20T11:54:44Z</time>
      </trkpt>
      <trkpt lat="44.33307" lon="4.0685">
        <ele>520</ele>
        <time>2017-11-20T11:54:45Z</time>
      </trkpt>
      <trkpt lat="44.33319" lon="4.06847">
        <ele>520</ele>
        <time>2017-11-20T11:54:54Z</time>
      </trkpt>
      <trkpt lat="44.33331" lon="4.06842">
        <ele>522</ele>
        <time>2017-11-20T11:55:02Z</time>
      </trkpt>
      <trkpt lat="44.33343" lon="4.06838">
        <ele>523</ele>
        <time>2017-11-20T11:55:10Z</time>
      </trkpt>
      <trkpt lat="44.33354" lon="4.06833">
        <ele>524</ele>
        <time>2017-11-20T11:55:18Z</time>
      </trkpt>
      <trkpt lat="44.33367" lon="4.06829">
        <ele>525</ele>
        <time>2017-11-20T11:55:26Z</time>
      </trkpt>
      <trkpt lat="44.33374" lon="4.06827">
        <ele>526</ele>
        <time>2017-11-20T11:55:31Z</time>
      </trkpt>
      <trkpt lat="44.33382" lon="4.06824">
        <ele>527</ele>
        <time>2017-11-20T11:55:37Z</time>
      </trkpt>
      <trkpt lat="44.33388" lon="4.06822">
        <ele>528</ele>
        <time>2017-11-20T11:55:42Z</time>
      </trkpt>
      <trkpt lat="44.33395" lon="4.06818">
        <ele>529</ele>
        <time>2017-11-20T11:55:49Z</time>
      </trkpt>
      <trkpt lat="44.33402" lon="4.06813">
        <ele>530</ele>
        <time>2017-11-20T11:55:56Z</time>
      </trkpt>
      <trkpt lat="44.33409" lon="4.06808">
        <ele>532</ele>
        <time>2017-11-20T11:56:04Z</time>
      </trkpt>
      <trkpt lat="44.33416" lon="4.06803">
        <ele>533</ele>
        <time>2017-11-20T11:56:11Z</time>
      </trkpt>
      <trkpt lat="44.33424" lon="4.06799">
        <ele>534</ele>
        <time>2017-11-20T11:56:18Z</time>
      </trkpt>
      <trkpt lat="44.33432" lon="4.06795">
        <ele>535</ele>
        <time>2017-11-20T11:56:25Z</time>
      </trkpt>
      <trkpt lat="44.33438" lon="4.06792">
        <ele>536</ele>
        <time>2017-11-20T11:56:31Z</time>
      </trkpt>
      <trkpt lat="44.3344" lon="4.06792">
        <ele>536</ele>
        <time>2017-11-20T11:56:33Z</time>
      </trkpt>
      <trkpt lat="44.33441" lon="4.06792">
        <ele>536</ele>
        <time>2017-11-20T11:56:34Z</time>
      </trkpt>
      <trkpt lat="44.33447" lon="4.0679">
        <ele>537</ele>
        <time>2017-11-20T11:56:40Z</time>
      </trkpt>
      <trkpt lat="44.33451" lon="4.06788">
        <ele>537</ele>
        <time>2017-11-20T11:56:44Z</time>
      </trkpt>
      <trkpt lat="44.33453" lon="4.06787">
        <ele>538</ele>
        <time>2017-11-20T11:56:46Z</time>
      </trkpt>
      <trkpt lat="44.33457" lon="4.06785">
        <ele>539</ele>
        <time>2017-11-20T11:56:50Z</time>
      </trkpt>
      <trkpt lat="44.3346" lon="4.06784">
        <ele>539</ele>
        <time>2017-11-20T11:56:53Z</time>
      </trkpt>
      <trkpt lat="44.33466" lon="4.06782">
        <ele>540</ele>
        <time>2017-11-20T11:56:58Z</time>
      </trkpt>
      <trkpt lat="44.33468" lon="4.06781">
        <ele>540</ele>
        <time>2017-11-20T11:57:00Z</time>
      </trkpt>
      <trkpt lat="44.33475" lon="4.06778">
        <ele>541</ele>
        <time>2017-11-20T11:57:07Z</time>
      </trkpt>
      <trkpt lat="44.3348" lon="4.06775">
        <ele>542</ele>
        <time>2017-11-20T11:57:12Z</time>
      </trkpt>
      <trkpt lat="44.33482" lon="4.06774">
        <ele>542</ele>
        <time>2017-11-20T11:57:14Z</time>
      </trkpt>
      <trkpt lat="44.33489" lon="4.0677">
        <ele>544</ele>
        <time>2017-11-20T11:57:22Z</time>
      </trkpt>
      <trkpt lat="44.33497" lon="4.06764">
        <ele>545</ele>
        <time>2017-11-20T11:57:30Z</time>
      </trkpt>
      <trkpt lat="44.33505" lon="4.06759">
        <ele>546</ele>
        <time>2017-11-20T11:57:37Z</time>
      </trkpt>
      <trkpt lat="44.33515" lon="4.06754">
        <ele>547</ele>
        <time>2017-11-20T11:57:45Z</time>
      </trkpt>
      <trkpt lat="44.33525" lon="4.06749">
        <ele>547</ele>
        <time>2017-11-20T11:57:52Z</time>
      </trkpt>
      <trkpt lat="44.33527" lon="4.06747">
        <ele>548</ele>
        <time>2017-11-20T11:57:54Z</time>
      </trkpt>
      <trkpt lat="44.33531" lon="4.06744">
        <ele>549</ele>
        <time>2017-11-20T11:57:57Z</time>
      </trkpt>
      <trkpt lat="44.33532" lon="4.06743">
        <ele>549</ele>
        <time>2017-11-20T11:57:58Z</time>
      </trkpt>
      <trkpt lat="44.33539" lon="4.06737">
        <ele>550</ele>
        <time>2017-11-20T11:58:04Z</time>
      </trkpt>
      <trkpt lat="44.33544" lon="4.06733">
        <ele>551</ele>
        <time>2017-11-20T11:58:09Z</time>
      </trkpt>
      <trkpt lat="44.33548" lon="4.0673">
        <ele>552</ele>
        <time>2017-11-20T11:58:13Z</time>
      </trkpt>
      <trkpt lat="44.3355" lon="4.06728">
        <ele>552</ele>
        <time>2017-11-20T11:58:15Z</time>
      </trkpt>
      <trkpt lat="44.33556" lon="4.06722">
        <ele>553</ele>
        <time>2017-11-20T11:58:21Z</time>
      </trkpt>
      <trkpt lat="44.33559" lon="4.06718">
        <ele>554</ele>
        <time>2017-11-20T11:58:24Z</time>
      </trkpt>
      <trkpt lat="44.33561" lon="4.06713">
        <ele>554</ele>
        <time>2017-11-20T11:58:27Z</time>
      </trkpt>
      <trkpt lat="44.33564" lon="4.06695">
        <ele>556</ele>
        <time>2017-11-20T11:58:37Z</time>
      </trkpt>
      <trkpt lat="44.33589" lon="4.06627">
        <ele>557</ele>
        <time>2017-11-20T11:59:09Z</time>
      </trkpt>
      <trkpt lat="44.33599" lon="4.06611">
        <ele>558</ele>
        <time>2017-11-20T11:59:18Z</time>
      </trkpt>
      <trkpt lat="44.33604" lon="4.06608">
        <ele>559</ele>
        <time>2017-11-20T11:59:24Z</time>
      </trkpt>
      <trkpt lat="44.33605" lon="4.06609">
        <ele>559</ele>
        <time>2017-11-20T11:59:25Z</time>
      </trkpt>
      <trkpt lat="44.33608" lon="4.06616">
        <ele>561</ele>
        <time>2017-11-20T11:59:29Z</time>
      </trkpt>
      <trkpt lat="44.33609" lon="4.0662">
        <ele>561</ele>
        <time>2017-11-20T11:59:31Z</time>
      </trkpt>
      <trkpt lat="44.33607" lon="4.06631">
        <ele>561</ele>
        <time>2017-11-20T11:59:36Z</time>
      </trkpt>
      <trkpt lat="44.33603" lon="4.06639">
        <ele>562</ele>
        <time>2017-11-20T11:59:41Z</time>
      </trkpt>
      <trkpt lat="44.336" lon="4.06655">
        <ele>563</ele>
        <time>2017-11-20T11:59:49Z</time>
      </trkpt>
      <trkpt lat="44.336" lon="4.06665">
        <ele>564</ele>
        <time>2017-11-20T11:59:54Z</time>
      </trkpt>
      <trkpt lat="44.33598" lon="4.06685">
        <ele>565</ele>
        <time>2017-11-20T12:00:04Z</time>
      </trkpt>
      <trkpt lat="44.33598" lon="4.06708">
        <ele>566</ele>
        <time>2017-11-20T12:00:15Z</time>
      </trkpt>
      <trkpt lat="44.33641" lon="4.06718">
        <ele>567</ele>
        <time>2017-11-20T12:00:40Z</time>
      </trkpt>
      <trkpt lat="44.33692" lon="4.06711">
        <ele>567</ele>
        <time>2017-11-20T12:00:56Z</time>
      </trkpt>
      <trkpt lat="44.33718" lon="4.067">
        <ele>567</ele>
        <time>2017-11-20T12:01:00Z</time>
      </trkpt>
      <trkpt lat="44.33733" lon="4.06697">
        <ele>565</ele>
        <time>2017-11-20T12:01:02Z</time>
      </trkpt>
      <trkpt lat="44.3374" lon="4.06698">
        <ele>565</ele>
        <time>2017-11-20T12:01:03Z</time>
      </trkpt>
      <trkpt lat="44.33746" lon="4.067">
        <ele>564</ele>
        <time>2017-11-20T12:01:04Z</time>
      </trkpt>
      <trkpt lat="44.33757" lon="4.06706">
        <ele>563</ele>
        <time>2017-11-20T12:01:06Z</time>
      </trkpt>
      <trkpt lat="44.33765" lon="4.0671">
        <ele>561</ele>
        <time>2017-11-20T12:01:08Z</time>
      </trkpt>
      <trkpt lat="44.33777" lon="4.06715">
        <ele>560</ele>
        <time>2017-11-20T12:01:15Z</time>
      </trkpt>
      <trkpt lat="44.33784" lon="4.06715">
        <ele>561</ele>
        <time>2017-11-20T12:01:19Z</time>
      </trkpt>
      <trkpt lat="44.33788" lon="4.06715">
        <ele>563</ele>
        <time>2017-11-20T12:01:21Z</time>
      </trkpt>
      <trkpt lat="44.3379" lon="4.06715">
        <ele>564</ele>
        <time>2017-11-20T12:01:23Z</time>
      </trkpt>
      <trkpt lat="44.33792" lon="4.06715">
        <ele>564</ele>
        <time>2017-11-20T12:01:24Z</time>
      </trkpt>
      <trkpt lat="44.33799" lon="4.06713">
        <ele>565</ele>
        <time>2017-11-20T12:01:28Z</time>
      </trkpt>
      <trkpt lat="44.33801" lon="4.06713">
        <ele>565</ele>
        <time>2017-11-20T12:01:30Z</time>
      </trkpt>
      <trkpt lat="44.33804" lon="4.06713">
        <ele>566</ele>
        <time>2017-11-20T12:01:35Z</time>
      </trkpt>
      <trkpt lat="44.33804" lon="4.06713">
        <ele>566</ele>
        <time>2017-11-20T12:01:51Z</time>
      </trkpt>
      <trkpt lat="44.33856" lon="4.06692">
        <ele>566</ele>
        <time>2017-11-20T12:02:38Z</time>
      </trkpt>
      <trkpt lat="44.33863" lon="4.06691">
        <ele>567</ele>
        <time>2017-11-20T12:02:42Z</time>
      </trkpt>
      <trkpt lat="44.33872" lon="4.06691">
        <ele>568</ele>
        <time>2017-11-20T12:02:47Z</time>
      </trkpt>
      <trkpt lat="44.33879" lon="4.0669">
        <ele>569</ele>
        <time>2017-11-20T12:02:51Z</time>
      </trkpt>
      <trkpt lat="44.33882" lon="4.06688">
        <ele>569</ele>
        <time>2017-11-20T12:02:53Z</time>
      </trkpt>
      <trkpt lat="44.33894" lon="4.06687">
        <ele>570</ele>
        <time>2017-11-20T12:03:00Z</time>
      </trkpt>
      <trkpt lat="44.33906" lon="4.06685">
        <ele>571</ele>
        <time>2017-11-20T12:03:08Z</time>
      </trkpt>
      <trkpt lat="44.3392" lon="4.06681">
        <ele>572</ele>
        <time>2017-11-20T12:03:16Z</time>
      </trkpt>
      <trkpt lat="44.3394" lon="4.06674">
        <ele>573</ele>
        <time>2017-11-20T12:03:28Z</time>
      </trkpt>
      <trkpt lat="44.33979" lon="4.06655">
        <ele>574</ele>
        <time>2017-11-20T12:03:50Z</time>
      </trkpt>
      <trkpt lat="44.34" lon="4.06645">
        <ele>575</ele>
        <time>2017-11-20T12:04:06Z</time>
      </trkpt>
      <trkpt lat="44.34022" lon="4.06629">
        <ele>576</ele>
        <time>2017-11-20T12:04:21Z</time>
      </trkpt>
      <trkpt lat="44.34024" lon="4.06608">
        <ele>577</ele>
        <time>2017-11-20T12:04:30Z</time>
      </trkpt>
      <trkpt lat="44.34005" lon="4.06539">
        <ele>578</ele>
        <time>2017-11-20T12:04:52Z</time>
      </trkpt>
      <trkpt lat="44.34025" lon="4.06484">
        <ele>580</ele>
        <time>2017-11-20T12:05:08Z</time>
      </trkpt>
      <trkpt lat="44.34034" lon="4.06453">
        <ele>581</ele>
        <time>2017-11-20T12:05:18Z</time>
      </trkpt>
      <trkpt lat="44.34034" lon="4.06439">
        <ele>582</ele>
        <time>2017-11-20T12:05:22Z</time>
      </trkpt>
      <trkpt lat="44.34034" lon="4.06417">
        <ele>583</ele>
        <time>2017-11-20T12:05:30Z</time>
      </trkpt>
      <trkpt lat="44.34034" lon="4.06403">
        <ele>584</ele>
        <time>2017-11-20T12:05:35Z</time>
      </trkpt>
      <trkpt lat="44.34035" lon="4.06378">
        <ele>585</ele>
        <time>2017-11-20T12:05:45Z</time>
      </trkpt>
      <trkpt lat="44.34035" lon="4.06371">
        <ele>585</ele>
        <time>2017-11-20T12:05:48Z</time>
      </trkpt>
      <trkpt lat="44.34058" lon="4.06309">
        <ele>586</ele>
        <time>2017-11-20T12:06:12Z</time>
      </trkpt>
      <trkpt lat="44.34068" lon="4.06304">
        <ele>586</ele>
        <time>2017-11-20T12:06:17Z</time>
      </trkpt>
      <trkpt lat="44.34079" lon="4.06297">
        <ele>587</ele>
        <time>2017-11-20T12:06:24Z</time>
      </trkpt>
      <trkpt lat="44.34083" lon="4.06295">
        <ele>587</ele>
        <time>2017-11-20T12:06:28Z</time>
      </trkpt>
      <trkpt lat="44.34084" lon="4.06295">
        <ele>587</ele>
        <time>2017-11-20T12:06:29Z</time>
      </trkpt>
      <trkpt lat="44.34089" lon="4.06293">
        <ele>588</ele>
        <time>2017-11-20T12:06:33Z</time>
      </trkpt>
      <trkpt lat="44.34095" lon="4.0629">
        <ele>589</ele>
        <time>2017-11-20T12:06:38Z</time>
      </trkpt>
      <trkpt lat="44.34105" lon="4.06289">
        <ele>589</ele>
        <time>2017-11-20T12:06:44Z</time>
      </trkpt>
      <trkpt lat="44.34109" lon="4.06289">
        <ele>590</ele>
        <time>2017-11-20T12:06:47Z</time>
      </trkpt>
      <trkpt lat="44.34123" lon="4.06288">
        <ele>590</ele>
        <time>2017-11-20T12:06:56Z</time>
      </trkpt>
      <trkpt lat="44.34147" lon="4.06281">
        <ele>591</ele>
        <time>2017-11-20T12:07:10Z</time>
      </trkpt>
      <trkpt lat="44.3417" lon="4.06243">
        <ele>592</ele>
        <time>2017-11-20T12:07:31Z</time>
      </trkpt>
      <trkpt lat="44.34174" lon="4.06186">
        <ele>593</ele>
        <time>2017-11-20T12:07:47Z</time>
      </trkpt>
      <trkpt lat="44.34174" lon="4.06168">
        <ele>593</ele>
        <time>2017-11-20T12:07:52Z</time>
      </trkpt>
      <trkpt lat="44.34171" lon="4.06144">
        <ele>594</ele>
        <time>2017-11-20T12:07:59Z</time>
      </trkpt>
      <trkpt lat="44.34163" lon="4.06124">
        <ele>595</ele>
        <time>2017-11-20T12:08:06Z</time>
      </trkpt>
      <trkpt lat="44.34135" lon="4.06058">
        <ele>596</ele>
        <time>2017-11-20T12:08:24Z</time>
      </trkpt>
      <trkpt lat="44.34105" lon="4.05994">
        <ele>595</ele>
        <time>2017-11-20T12:08:45Z</time>
      </trkpt>
      <trkpt lat="44.34103" lon="4.0599">
        <ele>596</ele>
        <time>2017-11-20T12:08:48Z</time>
      </trkpt>
      <trkpt lat="44.34099" lon="4.05985">
        <ele>597</ele>
        <time>2017-11-20T12:08:52Z</time>
      </trkpt>
      <trkpt lat="44.34094" lon="4.05977">
        <ele>598</ele>
        <time>2017-11-20T12:08:58Z</time>
      </trkpt>
      <trkpt lat="44.34089" lon="4.05963">
        <ele>599</ele>
        <time>2017-11-20T12:09:06Z</time>
      </trkpt>
      <trkpt lat="44.34087" lon="4.05948">
        <ele>600</ele>
        <time>2017-11-20T12:09:14Z</time>
      </trkpt>
      <trkpt lat="44.34087" lon="4.05945">
        <ele>601</ele>
        <time>2017-11-20T12:09:27Z</time>
      </trkpt>
      <trkpt lat="44.34086" lon="4.05912">
        <ele>602</ele>
        <time>2017-11-20T12:10:48Z</time>
      </trkpt>
      <trkpt lat="44.34085" lon="4.05902">
        <ele>603</ele>
        <time>2017-11-20T12:10:53Z</time>
      </trkpt>
      <trkpt lat="44.34082" lon="4.05877">
        <ele>604</ele>
        <time>2017-11-20T12:11:05Z</time>
      </trkpt>
      <trkpt lat="44.34081" lon="4.05859">
        <ele>605</ele>
        <time>2017-11-20T12:11:14Z</time>
      </trkpt>
      <trkpt lat="44.34081" lon="4.05856">
        <ele>605</ele>
        <time>2017-11-20T12:11:16Z</time>
      </trkpt>
      <trkpt lat="44.34082" lon="4.0584">
        <ele>606</ele>
        <time>2017-11-20T12:11:24Z</time>
      </trkpt>
      <trkpt lat="44.34081" lon="4.05834">
        <ele>607</ele>
        <time>2017-11-20T12:11:27Z</time>
      </trkpt>
      <trkpt lat="44.3408" lon="4.05828">
        <ele>607</ele>
        <time>2017-11-20T12:11:30Z</time>
      </trkpt>
      <trkpt lat="44.34075" lon="4.05808">
        <ele>608</ele>
        <time>2017-11-20T12:11:40Z</time>
      </trkpt>
      <trkpt lat="44.34067" lon="4.05782">
        <ele>609</ele>
        <time>2017-11-20T12:11:52Z</time>
      </trkpt>
      <trkpt lat="44.34065" lon="4.05775">
        <ele>609</ele>
        <time>2017-11-20T12:11:55Z</time>
      </trkpt>
      <trkpt lat="44.34063" lon="4.05767">
        <ele>610</ele>
        <time>2017-11-20T12:12:01Z</time>
      </trkpt>
      <trkpt lat="44.34061" lon="4.05765">
        <ele>610</ele>
        <time>2017-11-20T12:12:06Z</time>
      </trkpt>
      <trkpt lat="44.3406" lon="4.05745">
        <ele>611</ele>
        <time>2017-11-20T12:12:24Z</time>
      </trkpt>
      <trkpt lat="44.34059" lon="4.05744">
        <ele>612</ele>
        <time>2017-11-20T12:12:26Z</time>
      </trkpt>
      <trkpt lat="44.34058" lon="4.05741">
        <ele>612</ele>
        <time>2017-11-20T12:12:28Z</time>
      </trkpt>
      <trkpt lat="44.34056" lon="4.05705">
        <ele>613</ele>
        <time>2017-11-20T12:12:43Z</time>
      </trkpt>
      <trkpt lat="44.34049" lon="4.05702">
        <ele>613</ele>
        <time>2017-11-20T12:13:01Z</time>
      </trkpt>
      <trkpt lat="44.34046" lon="4.05707">
        <ele>614</ele>
        <time>2017-11-20T12:13:05Z</time>
      </trkpt>
      <trkpt lat="44.34043" lon="4.05708">
        <ele>615</ele>
        <time>2017-11-20T12:13:12Z</time>
      </trkpt>
      <trkpt lat="44.34039" lon="4.05711">
        <ele>616</ele>
        <time>2017-11-20T12:13:18Z</time>
      </trkpt>
      <trkpt lat="44.34038" lon="4.05719">
        <ele>617</ele>
        <time>2017-11-20T12:13:28Z</time>
      </trkpt>
      <trkpt lat="44.34036" lon="4.05718">
        <ele>618</ele>
        <time>2017-11-20T12:13:40Z</time>
      </trkpt>
      <trkpt lat="44.34035" lon="4.05717">
        <ele>618</ele>
        <time>2017-11-20T12:13:44Z</time>
      </trkpt>
      <trkpt lat="44.34031" lon="4.05715">
        <ele>618</ele>
        <time>2017-11-20T12:13:49Z</time>
      </trkpt>
      <trkpt lat="44.34027" lon="4.05692">
        <ele>618</ele>
        <time>2017-11-20T12:14:05Z</time>
      </trkpt>
      <trkpt lat="44.34028" lon="4.05688">
        <ele>618</ele>
        <time>2017-11-20T12:16:24Z</time>
      </trkpt>
      <trkpt lat="44.34028" lon="4.05688">
        <ele>618</ele>
        <time>2017-11-20T12:17:45Z</time>
      </trkpt>
      <trkpt lat="44.34028" lon="4.05688">
        <ele>619</ele>
        <time>2017-11-20T12:19:56Z</time>
      </trkpt>
      <trkpt lat="44.34028" lon="4.05688">
        <ele>619</ele>
        <time>2017-11-20T12:24:35Z</time>
      </trkpt>
      <trkpt lat="44.34028" lon="4.05688">
        <ele>619</ele>
        <time>2017-11-20T12:24:47Z</time>
      </trkpt>
      <trkpt lat="44.34028" lon="4.05689">
        <ele>619</ele>
        <time>2017-11-20T12:26:58Z</time>
      </trkpt>
      <trkpt lat="44.34028" lon="4.05691">
        <ele>619</ele>
        <time>2017-11-20T12:32:50Z</time>
      </trkpt>
      <trkpt lat="44.34028" lon="4.0569">
        <ele>619</ele>
        <time>2017-11-20T12:34:51Z</time>
      </trkpt>
      <trkpt lat="44.34026" lon="4.05687">
        <ele>620</ele>
        <time>2017-11-20T12:39:22Z</time>
      </trkpt>
      <trkpt lat="44.34025" lon="4.05676">
        <ele>620</ele>
        <time>2017-11-20T12:39:27Z</time>
      </trkpt>
      <trkpt lat="44.34034" lon="4.05615">
        <ele>620</ele>
        <time>2017-11-20T12:39:45Z</time>
      </trkpt>
      <trkpt lat="44.34033" lon="4.05608">
        <ele>620</ele>
        <time>2017-11-20T12:39:49Z</time>
      </trkpt>
      <trkpt lat="44.34032" lon="4.05604">
        <ele>620</ele>
        <time>2017-11-20T12:39:51Z</time>
      </trkpt>
      <trkpt lat="44.34029" lon="4.05591">
        <ele>622</ele>
        <time>2017-11-20T12:40:03Z</time>
      </trkpt>
      <trkpt lat="44.34023" lon="4.05518">
        <ele>621</ele>
        <time>2017-11-20T12:40:21Z</time>
      </trkpt>
      <trkpt lat="44.34026" lon="4.05498">
        <ele>620</ele>
        <time>2017-11-20T12:40:25Z</time>
      </trkpt>
      <trkpt lat="44.34026" lon="4.0547">
        <ele>620</ele>
        <time>2017-11-20T12:40:30Z</time>
      </trkpt>
      <trkpt lat="44.34024" lon="4.05439">
        <ele>619</ele>
        <time>2017-11-20T12:40:34Z</time>
      </trkpt>
      <trkpt lat="44.34022" lon="4.05421">
        <ele>619</ele>
        <time>2017-11-20T12:40:36Z</time>
      </trkpt>
      <trkpt lat="44.34018" lon="4.05412">
        <ele>618</ele>
        <time>2017-11-20T12:40:38Z</time>
      </trkpt>
      <trkpt lat="44.34017" lon="4.0541">
        <ele>617</ele>
        <time>2017-11-20T12:40:40Z</time>
      </trkpt>
      <trkpt lat="44.34016" lon="4.05407">
        <ele>616</ele>
        <time>2017-11-20T12:40:42Z</time>
      </trkpt>
      <trkpt lat="44.34016" lon="4.05405">
        <ele>616</ele>
        <time>2017-11-20T12:40:54Z</time>
      </trkpt>
      <trkpt lat="44.34014" lon="4.05401">
        <ele>615</ele>
        <time>2017-11-20T12:41:10Z</time>
      </trkpt>
      <trkpt lat="44.34013" lon="4.05398">
        <ele>615</ele>
        <time>2017-11-20T12:41:17Z</time>
      </trkpt>
      <trkpt lat="44.3401" lon="4.05384">
        <ele>615</ele>
        <time>2017-11-20T12:41:24Z</time>
      </trkpt>
      <trkpt lat="44.33982" lon="4.05352">
        <ele>615</ele>
        <time>2017-11-20T12:41:40Z</time>
      </trkpt>
      <trkpt lat="44.33965" lon="4.05355">
        <ele>613</ele>
        <time>2017-11-20T12:41:46Z</time>
      </trkpt>
      <trkpt lat="44.33958" lon="4.05355">
        <ele>612</ele>
        <time>2017-11-20T12:41:48Z</time>
      </trkpt>
      <trkpt lat="44.33952" lon="4.05355">
        <ele>611</ele>
        <time>2017-11-20T12:41:49Z</time>
      </trkpt>
      <trkpt lat="44.33946" lon="4.05356">
        <ele>610</ele>
        <time>2017-11-20T12:41:50Z</time>
      </trkpt>
      <trkpt lat="44.33938" lon="4.05356">
        <ele>608</ele>
        <time>2017-11-20T12:41:51Z</time>
      </trkpt>
      <trkpt lat="44.33926" lon="4.05354">
        <ele>607</ele>
        <time>2017-11-20T12:41:53Z</time>
      </trkpt>
      <trkpt lat="44.33913" lon="4.05353">
        <ele>606</ele>
        <time>2017-11-20T12:41:55Z</time>
      </trkpt>
      <trkpt lat="44.339" lon="4.05357">
        <ele>604</ele>
        <time>2017-11-20T12:41:57Z</time>
      </trkpt>
      <trkpt lat="44.33893" lon="4.0536">
        <ele>602</ele>
        <time>2017-11-20T12:41:58Z</time>
      </trkpt>
      <trkpt lat="44.33886" lon="4.05362">
        <ele>600</ele>
        <time>2017-11-20T12:41:59Z</time>
      </trkpt>
      <trkpt lat="44.33879" lon="4.05363">
        <ele>598</ele>
        <time>2017-11-20T12:42:00Z</time>
      </trkpt>
      <trkpt lat="44.33871" lon="4.05365">
        <ele>596</ele>
        <time>2017-11-20T12:42:01Z</time>
      </trkpt>
      <trkpt lat="44.33865" lon="4.05367">
        <ele>595</ele>
        <time>2017-11-20T12:42:02Z</time>
      </trkpt>
      <trkpt lat="44.33859" lon="4.05369">
        <ele>593</ele>
        <time>2017-11-20T12:42:03Z</time>
      </trkpt>
      <trkpt lat="44.33855" lon="4.0537">
        <ele>591</ele>
        <time>2017-11-20T12:42:04Z</time>
      </trkpt>
      <trkpt lat="44.33852" lon="4.05371">
        <ele>590</ele>
        <time>2017-11-20T12:42:05Z</time>
      </trkpt>
      <trkpt lat="44.33851" lon="4.05373">
        <ele>587</ele>
        <time>2017-11-20T12:42:06Z</time>
      </trkpt>
      <trkpt lat="44.3385" lon="4.05375">
        <ele>585</ele>
        <time>2017-11-20T12:42:07Z</time>
      </trkpt>
      <trkpt lat="44.33849" lon="4.05377">
        <ele>583</ele>
        <time>2017-11-20T12:42:08Z</time>
      </trkpt>
      <trkpt lat="44.33849" lon="4.05378">
        <ele>579</ele>
        <time>2017-11-20T12:42:09Z</time>
      </trkpt>
      <trkpt lat="44.33849" lon="4.05378">
        <ele>578</ele>
        <time>2017-11-20T12:42:10Z</time>
      </trkpt>
      <trkpt lat="44.33849" lon="4.0538">
        <ele>576</ele>
        <time>2017-11-20T12:42:11Z</time>
      </trkpt>
      <trkpt lat="44.33847" lon="4.05383">
        <ele>575</ele>
        <time>2017-11-20T12:42:12Z</time>
      </trkpt>
      <trkpt lat="44.33844" lon="4.05386">
        <ele>574</ele>
        <time>2017-11-20T12:42:13Z</time>
      </trkpt>
      <trkpt lat="44.33841" lon="4.05389">
        <ele>574</ele>
        <time>2017-11-20T12:42:14Z</time>
      </trkpt>
      <trkpt lat="44.33828" lon="4.05383">
        <ele>573</ele>
        <time>2017-11-20T12:42:18Z</time>
      </trkpt>
      <trkpt lat="44.33824" lon="4.05381">
        <ele>573</ele>
        <time>2017-11-20T12:42:20Z</time>
      </trkpt>
      <trkpt lat="44.3382" lon="4.05374">
        <ele>570</ele>
        <time>2017-11-20T12:42:22Z</time>
      </trkpt>
      <trkpt lat="44.33819" lon="4.05369">
        <ele>569</ele>
        <time>2017-11-20T12:42:23Z</time>
      </trkpt>
      <trkpt lat="44.33818" lon="4.05363">
        <ele>569</ele>
        <time>2017-11-20T12:42:24Z</time>
      </trkpt>
      <trkpt lat="44.33818" lon="4.05354">
        <ele>567</ele>
        <time>2017-11-20T12:42:26Z</time>
      </trkpt>
      <trkpt lat="44.33816" lon="4.05348">
        <ele>566</ele>
        <time>2017-11-20T12:42:28Z</time>
      </trkpt>
      <trkpt lat="44.33811" lon="4.0535">
        <ele>564</ele>
        <time>2017-11-20T12:42:30Z</time>
      </trkpt>
      <trkpt lat="44.33805" lon="4.05359">
        <ele>562</ele>
        <time>2017-11-20T12:42:32Z</time>
      </trkpt>
      <trkpt lat="44.33803" lon="4.0537">
        <ele>561</ele>
        <time>2017-11-20T12:42:34Z</time>
      </trkpt>
      <trkpt lat="44.33803" lon="4.05377">
        <ele>560</ele>
        <time>2017-11-20T12:42:36Z</time>
      </trkpt>
      <trkpt lat="44.33802" lon="4.05382">
        <ele>558</ele>
        <time>2017-11-20T12:42:38Z</time>
      </trkpt>
      <trkpt lat="44.33801" lon="4.05388">
        <ele>557</ele>
        <time>2017-11-20T12:42:40Z</time>
      </trkpt>
      <trkpt lat="44.33801" lon="4.05403">
        <ele>555</ele>
        <time>2017-11-20T12:42:44Z</time>
      </trkpt>
      <trkpt lat="44.33805" lon="4.05411">
        <ele>554</ele>
        <time>2017-11-20T12:42:47Z</time>
      </trkpt>
      <trkpt lat="44.33808" lon="4.05413">
        <ele>554</ele>
        <time>2017-11-20T12:42:49Z</time>
      </trkpt>
      <trkpt lat="44.33815" lon="4.05423">
        <ele>554</ele>
        <time>2017-11-20T12:43:18Z</time>
      </trkpt>
      <trkpt lat="44.33817" lon="4.05426">
        <ele>554</ele>
        <time>2017-11-20T12:43:46Z</time>
      </trkpt>
      <trkpt lat="44.33817" lon="4.05428">
        <ele>554</ele>
        <time>2017-11-20T12:43:59Z</time>
      </trkpt>
      <trkpt lat="44.33826" lon="4.05441">
        <ele>553</ele>
        <time>2017-11-20T12:44:06Z</time>
      </trkpt>
      <trkpt lat="44.3383" lon="4.05449">
        <ele>552</ele>
        <time>2017-11-20T12:44:12Z</time>
      </trkpt>
      <trkpt lat="44.33829" lon="4.0545">
        <ele>552</ele>
        <time>2017-11-20T12:44:13Z</time>
      </trkpt>
      <trkpt lat="44.33827" lon="4.05449">
        <ele>551</ele>
        <time>2017-11-20T12:44:14Z</time>
      </trkpt>
      <trkpt lat="44.33824" lon="4.05448">
        <ele>549</ele>
        <time>2017-11-20T12:44:16Z</time>
      </trkpt>
      <trkpt lat="44.3382" lon="4.05447">
        <ele>548</ele>
        <time>2017-11-20T12:44:18Z</time>
      </trkpt>
      <trkpt lat="44.33815" lon="4.05447">
        <ele>548</ele>
        <time>2017-11-20T12:44:20Z</time>
      </trkpt>
      <trkpt lat="44.33811" lon="4.05446">
        <ele>548</ele>
        <time>2017-11-20T12:44:21Z</time>
      </trkpt>
      <trkpt lat="44.33804" lon="4.05443">
        <ele>547</ele>
        <time>2017-11-20T12:44:23Z</time>
      </trkpt>
      <trkpt lat="44.33794" lon="4.05433">
        <ele>546</ele>
        <time>2017-11-20T12:44:28Z</time>
      </trkpt>
      <trkpt lat="44.33793" lon="4.05431">
        <ele>545</ele>
        <time>2017-11-20T12:44:29Z</time>
      </trkpt>
      <trkpt lat="44.33791" lon="4.05428">
        <ele>544</ele>
        <time>2017-11-20T12:44:34Z</time>
      </trkpt>
      <trkpt lat="44.33787" lon="4.05428">
        <ele>544</ele>
        <time>2017-11-20T12:44:43Z</time>
      </trkpt>
      <trkpt lat="44.33765" lon="4.05407">
        <ele>543</ele>
        <time>2017-11-20T12:44:54Z</time>
      </trkpt>
      <trkpt lat="44.33762" lon="4.05402">
        <ele>542</ele>
        <time>2017-11-20T12:44:57Z</time>
      </trkpt>
      <trkpt lat="44.33759" lon="4.05395">
        <ele>541</ele>
        <time>2017-11-20T12:44:59Z</time>
      </trkpt>
      <trkpt lat="44.33756" lon="4.05387">
        <ele>539</ele>
        <time>2017-11-20T12:45:01Z</time>
      </trkpt>
      <trkpt lat="44.33754" lon="4.05378">
        <ele>538</ele>
        <time>2017-11-20T12:45:04Z</time>
      </trkpt>
      <trkpt lat="44.33754" lon="4.05375">
        <ele>538</ele>
        <time>2017-11-20T12:45:05Z</time>
      </trkpt>
      <trkpt lat="44.33753" lon="4.05373">
        <ele>537</ele>
        <time>2017-11-20T12:45:07Z</time>
      </trkpt>
      <trkpt lat="44.33752" lon="4.0537">
        <ele>536</ele>
        <time>2017-11-20T12:45:10Z</time>
      </trkpt>
      <trkpt lat="44.33744" lon="4.05341">
        <ele>535</ele>
        <time>2017-11-20T12:45:19Z</time>
      </trkpt>
      <trkpt lat="44.33737" lon="4.05342">
        <ele>535</ele>
        <time>2017-11-20T12:45:22Z</time>
      </trkpt>
      <trkpt lat="44.33729" lon="4.05347">
        <ele>534</ele>
        <time>2017-11-20T12:45:24Z</time>
      </trkpt>
      <trkpt lat="44.33724" lon="4.05356">
        <ele>534</ele>
        <time>2017-11-20T12:45:26Z</time>
      </trkpt>
      <trkpt lat="44.33723" lon="4.05373">
        <ele>532</ele>
        <time>2017-11-20T12:45:29Z</time>
      </trkpt>
      <trkpt lat="44.33723" lon="4.0538">
        <ele>531</ele>
        <time>2017-11-20T12:45:30Z</time>
      </trkpt>
      <trkpt lat="44.33728" lon="4.05391">
        <ele>529</ele>
        <time>2017-11-20T12:45:32Z</time>
      </trkpt>
      <trkpt lat="44.33728" lon="4.05396">
        <ele>527</ele>
        <time>2017-11-20T12:45:33Z</time>
      </trkpt>
      <trkpt lat="44.33724" lon="4.05401">
        <ele>526</ele>
        <time>2017-11-20T12:45:35Z</time>
      </trkpt>
      <trkpt lat="44.33719" lon="4.05394">
        <ele>525</ele>
        <time>2017-11-20T12:45:37Z</time>
      </trkpt>
      <trkpt lat="44.33716" lon="4.05388">
        <ele>525</ele>
        <time>2017-11-20T12:45:38Z</time>
      </trkpt>
      <trkpt lat="44.33699" lon="4.05358">
        <ele>524</ele>
        <time>2017-11-20T12:45:42Z</time>
      </trkpt>
      <trkpt lat="44.33697" lon="4.05349">
        <ele>524</ele>
        <time>2017-11-20T12:45:43Z</time>
      </trkpt>
      <trkpt lat="44.33695" lon="4.05318">
        <ele>522</ele>
        <time>2017-11-20T12:45:46Z</time>
      </trkpt>
      <trkpt lat="44.33698" lon="4.05298">
        <ele>520</ele>
        <time>2017-11-20T12:45:48Z</time>
      </trkpt>
      <trkpt lat="44.33699" lon="4.05291">
        <ele>518</ele>
        <time>2017-11-20T12:45:49Z</time>
      </trkpt>
      <trkpt lat="44.337" lon="4.05285">
        <ele>517</ele>
        <time>2017-11-20T12:45:50Z</time>
      </trkpt>
      <trkpt lat="44.33699" lon="4.05281">
        <ele>516</ele>
        <time>2017-11-20T12:45:51Z</time>
      </trkpt>
      <trkpt lat="44.33696" lon="4.0528">
        <ele>515</ele>
        <time>2017-11-20T12:45:52Z</time>
      </trkpt>
      <trkpt lat="44.33685" lon="4.05281">
        <ele>513</ele>
        <time>2017-11-20T12:45:54Z</time>
      </trkpt>
      <trkpt lat="44.33674" lon="4.05286">
        <ele>511</ele>
        <time>2017-11-20T12:45:56Z</time>
      </trkpt>
      <trkpt lat="44.3367" lon="4.05286">
        <ele>511</ele>
        <time>2017-11-20T12:45:57Z</time>
      </trkpt>
      <trkpt lat="44.33667" lon="4.05278">
        <ele>510</ele>
        <time>2017-11-20T12:45:59Z</time>
      </trkpt>
      <trkpt lat="44.33673" lon="4.0527">
        <ele>508</ele>
        <time>2017-11-20T12:46:01Z</time>
      </trkpt>
      <trkpt lat="44.33677" lon="4.05267">
        <ele>506</ele>
        <time>2017-11-20T12:46:02Z</time>
      </trkpt>
      <trkpt lat="44.33681" lon="4.05264">
        <ele>505</ele>
        <time>2017-11-20T12:46:03Z</time>
      </trkpt>
      <trkpt lat="44.33686" lon="4.05262">
        <ele>505</ele>
        <time>2017-11-20T12:46:04Z</time>
      </trkpt>
      <trkpt lat="44.33709" lon="4.05255">
        <ele>503</ele>
        <time>2017-11-20T12:46:09Z</time>
      </trkpt>
      <trkpt lat="44.33713" lon="4.05252">
        <ele>502</ele>
        <time>2017-11-20T12:46:10Z</time>
      </trkpt>
      <trkpt lat="44.33722" lon="4.05245">
        <ele>502</ele>
        <time>2017-11-20T12:46:12Z</time>
      </trkpt>
      <trkpt lat="44.33736" lon="4.05241">
        <ele>502</ele>
        <time>2017-11-20T12:46:15Z</time>
      </trkpt>
      <trkpt lat="44.3374" lon="4.05239">
        <ele>501</ele>
        <time>2017-11-20T12:46:16Z</time>
      </trkpt>
      <trkpt lat="44.33749" lon="4.05233">
        <ele>500</ele>
        <time>2017-11-20T12:46:19Z</time>
      </trkpt>
      <trkpt lat="44.33755" lon="4.05228">
        <ele>500</ele>
        <time>2017-11-20T12:47:45Z</time>
      </trkpt>
      <trkpt lat="44.3376" lon="4.05222">
        <ele>500</ele>
        <time>2017-11-20T12:47:49Z</time>
      </trkpt>
      <trkpt lat="44.33794" lon="4.05162">
        <ele>501</ele>
        <time>2017-11-20T12:48:07Z</time>
      </trkpt>
      <trkpt lat="44.33801" lon="4.05145">
        <ele>501</ele>
        <time>2017-11-20T12:48:10Z</time>
      </trkpt>
      <trkpt lat="44.33843" lon="4.05103">
        <ele>499</ele>
        <time>2017-11-20T12:48:20Z</time>
      </trkpt>
      <trkpt lat="44.33852" lon="4.05094">
        <ele>499</ele>
        <time>2017-11-20T12:48:22Z</time>
      </trkpt>
      <trkpt lat="44.33862" lon="4.05077">
        <ele>499</ele>
        <time>2017-11-20T12:48:25Z</time>
      </trkpt>
      <trkpt lat="44.33873" lon="4.05042">
        <ele>499</ele>
        <time>2017-11-20T12:48:31Z</time>
      </trkpt>
      <trkpt lat="44.33888" lon="4.05012">
        <ele>499</ele>
        <time>2017-11-20T12:48:36Z</time>
      </trkpt>
      <trkpt lat="44.33901" lon="4.04998">
        <ele>499</ele>
        <time>2017-11-20T12:48:39Z</time>
      </trkpt>
      <trkpt lat="44.3391" lon="4.0499">
        <ele>499</ele>
        <time>2017-11-20T12:48:41Z</time>
      </trkpt>
      <trkpt lat="44.33933" lon="4.0497">
        <ele>498</ele>
        <time>2017-11-20T12:48:46Z</time>
      </trkpt>
      <trkpt lat="44.3394" lon="4.04928">
        <ele>497</ele>
        <time>2017-11-20T12:48:54Z</time>
      </trkpt>
      <trkpt lat="44.33926" lon="4.04901">
        <ele>499</ele>
        <time>2017-11-20T12:49:04Z</time>
      </trkpt>
      <trkpt lat="44.33911" lon="4.04866">
        <ele>500</ele>
        <time>2017-11-20T12:49:19Z</time>
      </trkpt>
      <trkpt lat="44.33911" lon="4.04866">
        <ele>501</ele>
        <time>2017-11-20T12:49:58Z</time>
      </trkpt>
      <trkpt lat="44.33911" lon="4.04866">
        <ele>501</ele>
        <time>2017-11-20T12:50:02Z</time>
      </trkpt>
      <trkpt lat="44.33911" lon="4.04866">
        <ele>501</ele>
        <time>2017-11-20T12:51:16Z</time>
      </trkpt>
      <trkpt lat="44.33909" lon="4.04864">
        <ele>501</ele>
        <time>2017-11-20T12:51:43Z</time>
      </trkpt>
      <trkpt lat="44.33914" lon="4.04877">
        <ele>501</ele>
        <time>2017-11-20T12:51:48Z</time>
      </trkpt>
      <trkpt lat="44.3394" lon="4.04936">
        <ele>500</ele>
        <time>2017-11-20T12:52:01Z</time>
      </trkpt>
      <trkpt lat="44.33924" lon="4.04976">
        <ele>499</ele>
        <time>2017-11-20T12:52:09Z</time>
      </trkpt>
      <trkpt lat="44.33921" lon="4.04979">
        <ele>499</ele>
        <time>2017-11-20T12:52:10Z</time>
      </trkpt>
      <trkpt lat="44.33907" lon="4.04989">
        <ele>498</ele>
        <time>2017-11-20T12:52:14Z</time>
      </trkpt>
      <trkpt lat="44.33873" lon="4.05033">
        <ele>498</ele>
        <time>2017-11-20T12:52:27Z</time>
      </trkpt>
      <trkpt lat="44.33864" lon="4.05064">
        <ele>499</ele>
        <time>2017-11-20T12:52:35Z</time>
      </trkpt>
      <trkpt lat="44.33823" lon="4.05115">
        <ele>499</ele>
        <time>2017-11-20T12:52:50Z</time>
      </trkpt>
      <trkpt lat="44.33789" lon="4.05174">
        <ele>500</ele>
        <time>2017-11-20T12:53:10Z</time>
      </trkpt>
      <trkpt lat="44.33788" lon="4.05179">
        <ele>500</ele>
        <time>2017-11-20T12:53:12Z</time>
      </trkpt>
      <trkpt lat="44.33789" lon="4.05182">
        <ele>500</ele>
        <time>2017-11-20T12:53:13Z</time>
      </trkpt>
      <trkpt lat="44.33795" lon="4.05182">
        <ele>501</ele>
        <time>2017-11-20T12:53:22Z</time>
      </trkpt>
      <trkpt lat="44.33796" lon="4.05179">
        <ele>502</ele>
        <time>2017-11-20T12:53:24Z</time>
      </trkpt>
      <trkpt lat="44.33798" lon="4.05173">
        <ele>503</ele>
        <time>2017-11-20T12:53:27Z</time>
      </trkpt>
      <trkpt lat="44.33802" lon="4.05165">
        <ele>504</ele>
        <time>2017-11-20T12:53:35Z</time>
      </trkpt>
      <trkpt lat="44.33801" lon="4.05166">
        <ele>505</ele>
        <time>2017-11-20T12:53:40Z</time>
      </trkpt>
      <trkpt lat="44.33802" lon="4.05165">
        <ele>506</ele>
        <time>2017-11-20T12:54:25Z</time>
      </trkpt>
      <trkpt lat="44.33808" lon="4.05159">
        <ele>506</ele>
        <time>2017-11-20T12:54:31Z</time>
      </trkpt>
      <trkpt lat="44.33811" lon="4.05155">
        <ele>506</ele>
        <time>2017-11-20T12:54:34Z</time>
      </trkpt>
      <trkpt lat="44.33814" lon="4.05151">
        <ele>506</ele>
        <time>2017-11-20T12:54:37Z</time>
      </trkpt>
      <trkpt lat="44.33815" lon="4.0515">
        <ele>506</ele>
        <time>2017-11-20T12:54:38Z</time>
      </trkpt>
      <trkpt lat="44.33818" lon="4.05148">
        <ele>507</ele>
        <time>2017-11-20T12:54:41Z</time>
      </trkpt>
      <trkpt lat="44.33821" lon="4.05145">
        <ele>508</ele>
        <time>2017-11-20T12:54:44Z</time>
      </trkpt>
      <trkpt lat="44.33823" lon="4.05143">
        <ele>508</ele>
        <time>2017-11-20T12:54:46Z</time>
      </trkpt>
      <trkpt lat="44.3383" lon="4.05138">
        <ele>509</ele>
        <time>2017-11-20T12:54:52Z</time>
      </trkpt>
      <trkpt lat="44.33833" lon="4.05136">
        <ele>510</ele>
        <time>2017-11-20T12:54:56Z</time>
      </trkpt>
      <trkpt lat="44.33838" lon="4.05135">
        <ele>511</ele>
        <time>2017-11-20T12:55:01Z</time>
      </trkpt>
      <trkpt lat="44.33845" lon="4.05135">
        <ele>513</ele>
        <time>2017-11-20T12:55:08Z</time>
      </trkpt>
      <trkpt lat="44.33846" lon="4.05136">
        <ele>513</ele>
        <time>2017-11-20T12:55:09Z</time>
      </trkpt>
      <trkpt lat="44.33849" lon="4.0514">
        <ele>514</ele>
        <time>2017-11-20T12:55:12Z</time>
      </trkpt>
      <trkpt lat="44.33846" lon="4.05147">
        <ele>515</ele>
        <time>2017-11-20T12:55:19Z</time>
      </trkpt>
      <trkpt lat="44.33845" lon="4.05148">
        <ele>515</ele>
        <time>2017-11-20T12:55:20Z</time>
      </trkpt>
      <trkpt lat="44.33844" lon="4.05148">
        <ele>515</ele>
        <time>2017-11-20T12:55:21Z</time>
      </trkpt>
      <trkpt lat="44.33838" lon="4.05151">
        <ele>515</ele>
        <time>2017-11-20T12:55:25Z</time>
      </trkpt>
      <trkpt lat="44.3383" lon="4.05159">
        <ele>516</ele>
        <time>2017-11-20T12:55:32Z</time>
      </trkpt>
      <trkpt lat="44.33821" lon="4.05176">
        <ele>517</ele>
        <time>2017-11-20T12:55:42Z</time>
      </trkpt>
      <trkpt lat="44.33812" lon="4.05198">
        <ele>518</ele>
        <time>2017-11-20T12:55:54Z</time>
      </trkpt>
      <trkpt lat="44.33805" lon="4.05218">
        <ele>519</ele>
        <time>2017-11-20T12:56:04Z</time>
      </trkpt>
      <trkpt lat="44.33799" lon="4.05229">
        <ele>520</ele>
        <time>2017-11-20T12:56:10Z</time>
      </trkpt>
      <trkpt lat="44.33798" lon="4.05231">
        <ele>520</ele>
        <time>2017-11-20T12:56:11Z</time>
      </trkpt>
      <trkpt lat="44.33802" lon="4.05244">
        <ele>521</ele>
        <time>2017-11-20T12:56:18Z</time>
      </trkpt>
      <trkpt lat="44.33804" lon="4.05243">
        <ele>521</ele>
        <time>2017-11-20T12:56:20Z</time>
      </trkpt>
      <trkpt lat="44.33808" lon="4.05233">
        <ele>522</ele>
        <time>2017-11-20T12:56:26Z</time>
      </trkpt>
      <trkpt lat="44.33814" lon="4.0522">
        <ele>523</ele>
        <time>2017-11-20T12:56:33Z</time>
      </trkpt>
      <trkpt lat="44.3382" lon="4.05209">
        <ele>524</ele>
        <time>2017-11-20T12:56:39Z</time>
      </trkpt>
      <trkpt lat="44.33823" lon="4.05203">
        <ele>526</ele>
        <time>2017-11-20T12:56:45Z</time>
      </trkpt>
      <trkpt lat="44.33823" lon="4.05203">
        <ele>527</ele>
        <time>2017-11-20T12:56:54Z</time>
      </trkpt>
      <trkpt lat="44.33843" lon="4.05182">
        <ele>528</ele>
        <time>2017-11-20T12:57:22Z</time>
      </trkpt>
      <trkpt lat="44.3386" lon="4.05169">
        <ele>529</ele>
        <time>2017-11-20T12:57:34Z</time>
      </trkpt>
      <trkpt lat="44.33875" lon="4.05163">
        <ele>530</ele>
        <time>2017-11-20T12:57:43Z</time>
      </trkpt>
      <trkpt lat="44.33897" lon="4.05142">
        <ele>531</ele>
        <time>2017-11-20T12:57:57Z</time>
      </trkpt>
      <trkpt lat="44.33901" lon="4.05127">
        <ele>532</ele>
        <time>2017-11-20T12:58:03Z</time>
      </trkpt>
      <trkpt lat="44.33907" lon="4.05109">
        <ele>533</ele>
        <time>2017-11-20T12:58:11Z</time>
      </trkpt>
      <trkpt lat="44.33915" lon="4.05095">
        <ele>534</ele>
        <time>2017-11-20T12:58:18Z</time>
      </trkpt>
      <trkpt lat="44.33926" lon="4.05081">
        <ele>535</ele>
        <time>2017-11-20T12:58:27Z</time>
      </trkpt>
      <trkpt lat="44.33937" lon="4.05067">
        <ele>536</ele>
        <time>2017-11-20T12:58:36Z</time>
      </trkpt>
      <trkpt lat="44.3395" lon="4.05057">
        <ele>537</ele>
        <time>2017-11-20T12:58:45Z</time>
      </trkpt>
      <trkpt lat="44.33959" lon="4.05051">
        <ele>539</ele>
        <time>2017-11-20T12:58:52Z</time>
      </trkpt>
      <trkpt lat="44.33968" lon="4.05046">
        <ele>540</ele>
        <time>2017-11-20T12:58:58Z</time>
      </trkpt>
      <trkpt lat="44.33977" lon="4.05043">
        <ele>541</ele>
        <time>2017-11-20T12:59:04Z</time>
      </trkpt>
      <trkpt lat="44.33992" lon="4.05039">
        <ele>542</ele>
        <time>2017-11-20T12:59:13Z</time>
      </trkpt>
      <trkpt lat="44.34005" lon="4.05035">
        <ele>543</ele>
        <time>2017-11-20T12:59:23Z</time>
      </trkpt>
      <trkpt lat="44.34006" lon="4.05035">
        <ele>543</ele>
        <time>2017-11-20T12:59:24Z</time>
      </trkpt>
      <trkpt lat="44.34006" lon="4.05035">
        <ele>544</ele>
        <time>2017-11-20T13:00:37Z</time>
      </trkpt>
      <trkpt lat="44.34009" lon="4.05034">
        <ele>544</ele>
        <time>2017-11-20T13:00:44Z</time>
      </trkpt>
      <trkpt lat="44.34014" lon="4.0503">
        <ele>544</ele>
        <time>2017-11-20T13:00:48Z</time>
      </trkpt>
      <trkpt lat="44.3402" lon="4.05027">
        <ele>544</ele>
        <time>2017-11-20T13:00:52Z</time>
      </trkpt>
      <trkpt lat="44.34028" lon="4.05025">
        <ele>544</ele>
        <time>2017-11-20T13:00:57Z</time>
      </trkpt>
      <trkpt lat="44.34034" lon="4.05026">
        <ele>545</ele>
        <time>2017-11-20T13:01:01Z</time>
      </trkpt>
      <trkpt lat="44.34041" lon="4.05025">
        <ele>546</ele>
        <time>2017-11-20T13:01:06Z</time>
      </trkpt>
      <trkpt lat="44.34049" lon="4.05028">
        <ele>547</ele>
        <time>2017-11-20T13:01:12Z</time>
      </trkpt>
      <trkpt lat="44.34059" lon="4.05025">
        <ele>548</ele>
        <time>2017-11-20T13:01:20Z</time>
      </trkpt>
      <trkpt lat="44.34063" lon="4.05019">
        <ele>550</ele>
        <time>2017-11-20T13:01:24Z</time>
      </trkpt>
      <trkpt lat="44.34065" lon="4.05009">
        <ele>551</ele>
        <time>2017-11-20T13:01:29Z</time>
      </trkpt>
      <trkpt lat="44.34064" lon="4.04993">
        <ele>552</ele>
        <time>2017-11-20T13:01:37Z</time>
      </trkpt>
      <trkpt lat="44.34057" lon="4.04978">
        <ele>553</ele>
        <time>2017-11-20T13:01:46Z</time>
      </trkpt>
      <trkpt lat="44.34049" lon="4.04958">
        <ele>554</ele>
        <time>2017-11-20T13:01:57Z</time>
      </trkpt>
      <trkpt lat="44.34039" lon="4.04933">
        <ele>555</ele>
        <time>2017-11-20T13:02:10Z</time>
      </trkpt>
      <trkpt lat="44.34033" lon="4.04921">
        <ele>556</ele>
        <time>2017-11-20T13:02:16Z</time>
      </trkpt>
      <trkpt lat="44.34025" lon="4.04899">
        <ele>557</ele>
        <time>2017-11-20T13:02:26Z</time>
      </trkpt>
      <trkpt lat="44.34022" lon="4.0489">
        <ele>558</ele>
        <time>2017-11-20T13:02:31Z</time>
      </trkpt>
      <trkpt lat="44.34022" lon="4.04888">
        <ele>558</ele>
        <time>2017-11-20T13:02:32Z</time>
      </trkpt>
      <trkpt lat="44.34021" lon="4.04877">
        <ele>559</ele>
        <time>2017-11-20T13:02:38Z</time>
      </trkpt>
      <trkpt lat="44.34019" lon="4.04861">
        <ele>560</ele>
        <time>2017-11-20T13:02:45Z</time>
      </trkpt>
      <trkpt lat="44.34022" lon="4.04847">
        <ele>561</ele>
        <time>2017-11-20T13:02:52Z</time>
      </trkpt>
      <trkpt lat="44.34026" lon="4.04836">
        <ele>562</ele>
        <time>2017-11-20T13:02:58Z</time>
      </trkpt>
      <trkpt lat="44.34036" lon="4.04821">
        <ele>563</ele>
        <time>2017-11-20T13:03:07Z</time>
      </trkpt>
      <trkpt lat="44.34046" lon="4.0481">
        <ele>564</ele>
        <time>2017-11-20T13:03:15Z</time>
      </trkpt>
      <trkpt lat="44.34057" lon="4.04799">
        <ele>565</ele>
        <time>2017-11-20T13:03:23Z</time>
      </trkpt>
      <trkpt lat="44.34063" lon="4.04793">
        <ele>566</ele>
        <time>2017-11-20T13:03:28Z</time>
      </trkpt>
      <trkpt lat="44.34065" lon="4.0479">
        <ele>567</ele>
        <time>2017-11-20T13:03:30Z</time>
      </trkpt>
      <trkpt lat="44.34073" lon="4.04781">
        <ele>568</ele>
        <time>2017-11-20T13:03:38Z</time>
      </trkpt>
      <trkpt lat="44.34085" lon="4.04771">
        <ele>569</ele>
        <time>2017-11-20T13:03:47Z</time>
      </trkpt>
      <trkpt lat="44.34094" lon="4.04766">
        <ele>570</ele>
        <time>2017-11-20T13:03:54Z</time>
      </trkpt>
      <trkpt lat="44.34102" lon="4.04761">
        <ele>571</ele>
        <time>2017-11-20T13:04:01Z</time>
      </trkpt>
      <trkpt lat="44.34102" lon="4.04761">
        <ele>572</ele>
        <time>2017-11-20T13:04:36Z</time>
      </trkpt>
      <trkpt lat="44.34102" lon="4.04761">
        <ele>573</ele>
        <time>2017-11-20T13:05:21Z</time>
      </trkpt>
      <trkpt lat="44.34143" lon="4.04748">
        <ele>574</ele>
        <time>2017-11-20T13:05:59Z</time>
      </trkpt>
      <trkpt lat="44.34156" lon="4.04744">
        <ele>575</ele>
        <time>2017-11-20T13:06:06Z</time>
      </trkpt>
      <trkpt lat="44.34165" lon="4.04733">
        <ele>576</ele>
        <time>2017-11-20T13:06:12Z</time>
      </trkpt>
      <trkpt lat="44.34171" lon="4.04722">
        <ele>577</ele>
        <time>2017-11-20T13:06:17Z</time>
      </trkpt>
      <trkpt lat="44.3418" lon="4.04707">
        <ele>578</ele>
        <time>2017-11-20T13:06:24Z</time>
      </trkpt>
      <trkpt lat="44.34187" lon="4.04696">
        <ele>579</ele>
        <time>2017-11-20T13:06:30Z</time>
      </trkpt>
      <trkpt lat="44.34192" lon="4.04682">
        <ele>580</ele>
        <time>2017-11-20T13:06:36Z</time>
      </trkpt>
      <trkpt lat="44.34195" lon="4.04662">
        <ele>581</ele>
        <time>2017-11-20T13:06:45Z</time>
      </trkpt>
      <trkpt lat="44.34196" lon="4.0465">
        <ele>582</ele>
        <time>2017-11-20T13:06:51Z</time>
      </trkpt>
      <trkpt lat="44.34197" lon="4.04639">
        <ele>583</ele>
        <time>2017-11-20T13:06:57Z</time>
      </trkpt>
      <trkpt lat="44.34199" lon="4.04628">
        <ele>584</ele>
        <time>2017-11-20T13:07:03Z</time>
      </trkpt>
      <trkpt lat="44.34201" lon="4.04613">
        <ele>585</ele>
        <time>2017-11-20T13:07:11Z</time>
      </trkpt>
      <trkpt lat="44.34206" lon="4.04601">
        <ele>587</ele>
        <time>2017-11-20T13:07:18Z</time>
      </trkpt>
      <trkpt lat="44.34212" lon="4.04588">
        <ele>588</ele>
        <time>2017-11-20T13:07:26Z</time>
      </trkpt>
      <trkpt lat="44.34216" lon="4.0458">
        <ele>589</ele>
        <time>2017-11-20T13:07:32Z</time>
      </trkpt>
      <trkpt lat="44.34222" lon="4.04572">
        <ele>590</ele>
        <time>2017-11-20T13:07:40Z</time>
      </trkpt>
      <trkpt lat="44.34226" lon="4.04565">
        <ele>591</ele>
        <time>2017-11-20T13:07:45Z</time>
      </trkpt>
      <trkpt lat="44.34232" lon="4.04553">
        <ele>592</ele>
        <time>2017-11-20T13:07:53Z</time>
      </trkpt>
      <trkpt lat="44.34234" lon="4.04549">
        <ele>592</ele>
        <time>2017-11-20T13:07:55Z</time>
      </trkpt>
      <trkpt lat="44.34237" lon="4.04543">
        <ele>593</ele>
        <time>2017-11-20T13:07:59Z</time>
      </trkpt>
      <trkpt lat="44.3424" lon="4.04539">
        <ele>593</ele>
        <time>2017-11-20T13:08:02Z</time>
      </trkpt>
      <trkpt lat="44.34246" lon="4.04529">
        <ele>594</ele>
        <time>2017-11-20T13:08:09Z</time>
      </trkpt>
      <trkpt lat="44.34254" lon="4.0452">
        <ele>595</ele>
        <time>2017-11-20T13:08:17Z</time>
      </trkpt>
      <trkpt lat="44.34255" lon="4.04517">
        <ele>595</ele>
        <time>2017-11-20T13:08:19Z</time>
      </trkpt>
      <trkpt lat="44.34262" lon="4.04508">
        <ele>596</ele>
        <time>2017-11-20T13:08:26Z</time>
      </trkpt>
      <trkpt lat="44.34262" lon="4.04506">
        <ele>596</ele>
        <time>2017-11-20T13:08:27Z</time>
      </trkpt>
      <trkpt lat="44.34265" lon="4.04499">
        <ele>597</ele>
        <time>2017-11-20T13:08:32Z</time>
      </trkpt>
      <trkpt lat="44.34272" lon="4.0449">
        <ele>599</ele>
        <time>2017-11-20T13:08:39Z</time>
      </trkpt>
      <trkpt lat="44.34277" lon="4.04482">
        <ele>599</ele>
        <time>2017-11-20T13:08:45Z</time>
      </trkpt>
      <trkpt lat="44.34281" lon="4.04474">
        <ele>600</ele>
        <time>2017-11-20T13:08:51Z</time>
      </trkpt>
      <trkpt lat="44.34288" lon="4.04464">
        <ele>601</ele>
        <time>2017-11-20T13:08:58Z</time>
      </trkpt>
      <trkpt lat="44.343" lon="4.04452">
        <ele>602</ele>
        <time>2017-11-20T13:09:08Z</time>
      </trkpt>
      <trkpt lat="44.3431" lon="4.04445">
        <ele>603</ele>
        <time>2017-11-20T13:09:16Z</time>
      </trkpt>
      <trkpt lat="44.34314" lon="4.04445">
        <ele>603</ele>
        <time>2017-11-20T13:09:20Z</time>
      </trkpt>
      <trkpt lat="44.34317" lon="4.04443">
        <ele>604</ele>
        <time>2017-11-20T13:09:23Z</time>
      </trkpt>
      <trkpt lat="44.34321" lon="4.0444">
        <ele>604</ele>
        <time>2017-11-20T13:09:26Z</time>
      </trkpt>
      <trkpt lat="44.3433" lon="4.04439">
        <ele>605</ele>
        <time>2017-11-20T13:09:34Z</time>
      </trkpt>
      <trkpt lat="44.3434" lon="4.04439">
        <ele>607</ele>
        <time>2017-11-20T13:09:42Z</time>
      </trkpt>
      <trkpt lat="44.34359" lon="4.04439">
        <ele>608</ele>
        <time>2017-11-20T13:09:55Z</time>
      </trkpt>
      <trkpt lat="44.34371" lon="4.0444">
        <ele>609</ele>
        <time>2017-11-20T13:10:02Z</time>
      </trkpt>
      <trkpt lat="44.34397" lon="4.04442">
        <ele>610</ele>
        <time>2017-11-20T13:10:17Z</time>
      </trkpt>
      <trkpt lat="44.34412" lon="4.04441">
        <ele>611</ele>
        <time>2017-11-20T13:10:26Z</time>
      </trkpt>
      <trkpt lat="44.34426" lon="4.04437">
        <ele>612</ele>
        <time>2017-11-20T13:10:33Z</time>
      </trkpt>
      <trkpt lat="44.34438" lon="4.04432">
        <ele>613</ele>
        <time>2017-11-20T13:10:39Z</time>
      </trkpt>
      <trkpt lat="44.34454" lon="4.04418">
        <ele>614</ele>
        <time>2017-11-20T13:10:48Z</time>
      </trkpt>
      <trkpt lat="44.34468" lon="4.04396">
        <ele>615</ele>
        <time>2017-11-20T13:10:59Z</time>
      </trkpt>
      <trkpt lat="44.34476" lon="4.04379">
        <ele>616</ele>
        <time>2017-11-20T13:11:06Z</time>
      </trkpt>
      <trkpt lat="44.34485" lon="4.04358">
        <ele>617</ele>
        <time>2017-11-20T13:11:15Z</time>
      </trkpt>
      <trkpt lat="44.34491" lon="4.0434">
        <ele>618</ele>
        <time>2017-11-20T13:11:23Z</time>
      </trkpt>
      <trkpt lat="44.345" lon="4.04318">
        <ele>619</ele>
        <time>2017-11-20T13:11:33Z</time>
      </trkpt>
      <trkpt lat="44.34514" lon="4.043">
        <ele>620</ele>
        <time>2017-11-20T13:11:44Z</time>
      </trkpt>
      <trkpt lat="44.34526" lon="4.04292">
        <ele>621</ele>
        <time>2017-11-20T13:11:52Z</time>
      </trkpt>
      <trkpt lat="44.34546" lon="4.04282">
        <ele>622</ele>
        <time>2017-11-20T13:12:04Z</time>
      </trkpt>
      <trkpt lat="44.3456" lon="4.04269">
        <ele>624</ele>
        <time>2017-11-20T13:12:13Z</time>
      </trkpt>
      <trkpt lat="44.34571" lon="4.04259">
        <ele>625</ele>
        <time>2017-11-20T13:12:19Z</time>
      </trkpt>
      <trkpt lat="44.34585" lon="4.04241">
        <ele>626</ele>
        <time>2017-11-20T13:12:28Z</time>
      </trkpt>
      <trkpt lat="44.3459" lon="4.04221">
        <ele>627</ele>
        <time>2017-11-20T13:12:37Z</time>
      </trkpt>
      <trkpt lat="44.34595" lon="4.04197">
        <ele>628</ele>
        <time>2017-11-20T13:12:47Z</time>
      </trkpt>
      <trkpt lat="44.346" lon="4.04181">
        <ele>629</ele>
        <time>2017-11-20T13:12:55Z</time>
      </trkpt>
      <trkpt lat="44.34605" lon="4.04164">
        <ele>630</ele>
        <time>2017-11-20T13:13:03Z</time>
      </trkpt>
      <trkpt lat="44.34619" lon="4.04138">
        <ele>631</ele>
        <time>2017-11-20T13:13:20Z</time>
      </trkpt>
      <trkpt lat="44.34653" lon="4.04132">
        <ele>633</ele>
        <time>2017-11-20T13:14:25Z</time>
      </trkpt>
      <trkpt lat="44.34663" lon="4.04133">
        <ele>633</ele>
        <time>2017-11-20T13:14:31Z</time>
      </trkpt>
      <trkpt lat="44.34666" lon="4.04132">
        <ele>634</ele>
        <time>2017-11-20T13:14:35Z</time>
      </trkpt>
      <trkpt lat="44.34666" lon="4.04131">
        <ele>635</ele>
        <time>2017-11-20T13:14:43Z</time>
      </trkpt>
      <trkpt lat="44.34669" lon="4.0413">
        <ele>635</ele>
        <time>2017-11-20T13:14:57Z</time>
      </trkpt>
      <trkpt lat="44.34707" lon="4.04121">
        <ele>636</ele>
        <time>2017-11-20T13:15:19Z</time>
      </trkpt>
      <trkpt lat="44.34718" lon="4.04113">
        <ele>637</ele>
        <time>2017-11-20T13:15:26Z</time>
      </trkpt>
      <trkpt lat="44.3472" lon="4.04107">
        <ele>637</ele>
        <time>2017-11-20T13:15:28Z</time>
      </trkpt>
      <trkpt lat="44.34723" lon="4.04098">
        <ele>638</ele>
        <time>2017-11-20T13:15:32Z</time>
      </trkpt>
      <trkpt lat="44.34724" lon="4.0409">
        <ele>638</ele>
        <time>2017-11-20T13:15:36Z</time>
      </trkpt>
      <trkpt lat="44.34727" lon="4.04082">
        <ele>639</ele>
        <time>2017-11-20T13:15:40Z</time>
      </trkpt>
      <trkpt lat="44.34727" lon="4.0408">
        <ele>639</ele>
        <time>2017-11-20T13:15:41Z</time>
      </trkpt>
      <trkpt lat="44.34729" lon="4.04075">
        <ele>640</ele>
        <time>2017-11-20T13:15:44Z</time>
      </trkpt>
      <trkpt lat="44.34734" lon="4.04067">
        <ele>641</ele>
        <time>2017-11-20T13:15:50Z</time>
      </trkpt>
      <trkpt lat="44.34739" lon="4.04059">
        <ele>641</ele>
        <time>2017-11-20T13:15:55Z</time>
      </trkpt>
      <trkpt lat="44.34746" lon="4.04045">
        <ele>642</ele>
        <time>2017-11-20T13:16:04Z</time>
      </trkpt>
      <trkpt lat="44.34758" lon="4.04018">
        <ele>643</ele>
        <time>2017-11-20T13:16:20Z</time>
      </trkpt>
      <trkpt lat="44.34771" lon="4.03989">
        <ele>644</ele>
        <time>2017-11-20T13:16:34Z</time>
      </trkpt>
      <trkpt lat="44.34784" lon="4.03972">
        <ele>645</ele>
        <time>2017-11-20T13:16:44Z</time>
      </trkpt>
      <trkpt lat="44.3479" lon="4.03955">
        <ele>646</ele>
        <time>2017-11-20T13:16:51Z</time>
      </trkpt>
      <trkpt lat="44.34789" lon="4.03933">
        <ele>647</ele>
        <time>2017-11-20T13:16:59Z</time>
      </trkpt>
      <trkpt lat="44.34784" lon="4.03857">
        <ele>647</ele>
        <time>2017-11-20T13:17:21Z</time>
      </trkpt>
      <trkpt lat="44.3479" lon="4.03837">
        <ele>646</ele>
        <time>2017-11-20T13:17:27Z</time>
      </trkpt>
      <trkpt lat="44.34821" lon="4.03787">
        <ele>645</ele>
        <time>2017-11-20T13:17:42Z</time>
      </trkpt>
      <trkpt lat="44.34838" lon="4.03773">
        <ele>645</ele>
        <time>2017-11-20T13:17:47Z</time>
      </trkpt>
      <trkpt lat="44.34861" lon="4.03769">
        <ele>645</ele>
        <time>2017-11-20T13:17:53Z</time>
      </trkpt>
      <trkpt lat="44.34895" lon="4.03743">
        <ele>646</ele>
        <time>2017-11-20T13:18:11Z</time>
      </trkpt>
      <trkpt lat="44.34906" lon="4.03715">
        <ele>647</ele>
        <time>2017-11-20T13:18:22Z</time>
      </trkpt>
      <trkpt lat="44.34912" lon="4.03698">
        <ele>649</ele>
        <time>2017-11-20T13:18:28Z</time>
      </trkpt>
      <trkpt lat="44.34917" lon="4.03682">
        <ele>650</ele>
        <time>2017-11-20T13:18:34Z</time>
      </trkpt>
      <trkpt lat="44.34921" lon="4.0367">
        <ele>651</ele>
        <time>2017-11-20T13:18:39Z</time>
      </trkpt>
      <trkpt lat="44.34928" lon="4.03656">
        <ele>652</ele>
        <time>2017-11-20T13:18:45Z</time>
      </trkpt>
      <trkpt lat="44.34937" lon="4.03644">
        <ele>653</ele>
        <time>2017-11-20T13:18:53Z</time>
      </trkpt>
      <trkpt lat="44.34945" lon="4.03637">
        <ele>654</ele>
        <time>2017-11-20T13:18:59Z</time>
      </trkpt>
      <trkpt lat="44.34951" lon="4.03634">
        <ele>655</ele>
        <time>2017-11-20T13:19:04Z</time>
      </trkpt>
      <trkpt lat="44.34953" lon="4.03635">
        <ele>655</ele>
        <time>2017-11-20T13:19:06Z</time>
      </trkpt>
      <trkpt lat="44.3496" lon="4.03637">
        <ele>656</ele>
        <time>2017-11-20T13:19:12Z</time>
      </trkpt>
      <trkpt lat="44.34961" lon="4.03637">
        <ele>657</ele>
        <time>2017-11-20T13:19:13Z</time>
      </trkpt>
      <trkpt lat="44.34971" lon="4.03635">
        <ele>657</ele>
        <time>2017-11-20T13:19:22Z</time>
      </trkpt>
      <trkpt lat="44.34976" lon="4.03633">
        <ele>658</ele>
        <time>2017-11-20T13:19:26Z</time>
      </trkpt>
      <trkpt lat="44.34981" lon="4.03629">
        <ele>658</ele>
        <time>2017-11-20T13:19:30Z</time>
      </trkpt>
      <trkpt lat="44.34993" lon="4.03611">
        <ele>660</ele>
        <time>2017-11-20T13:19:41Z</time>
      </trkpt>
      <trkpt lat="44.34996" lon="4.03572">
        <ele>660</ele>
        <time>2017-11-20T13:19:57Z</time>
      </trkpt>
      <trkpt lat="44.34996" lon="4.03558">
        <ele>661</ele>
        <time>2017-11-20T13:20:03Z</time>
      </trkpt>
      <trkpt lat="44.34997" lon="4.03546">
        <ele>663</ele>
        <time>2017-11-20T13:20:08Z</time>
      </trkpt>
      <trkpt lat="44.34997" lon="4.03528">
        <ele>664</ele>
        <time>2017-11-20T13:20:15Z</time>
      </trkpt>
      <trkpt lat="44.34997" lon="4.03499">
        <ele>665</ele>
        <time>2017-11-20T13:20:27Z</time>
      </trkpt>
      <trkpt lat="44.35001" lon="4.03468">
        <ele>666</ele>
        <time>2017-11-20T13:20:40Z</time>
      </trkpt>
      <trkpt lat="44.35003" lon="4.03448">
        <ele>667</ele>
        <time>2017-11-20T13:20:49Z</time>
      </trkpt>
      <trkpt lat="44.35001" lon="4.03413">
        <ele>668</ele>
        <time>2017-11-20T13:21:05Z</time>
      </trkpt>
      <trkpt lat="44.35" lon="4.03402">
        <ele>669</ele>
        <time>2017-11-20T13:21:16Z</time>
      </trkpt>
      <trkpt lat="44.34999" lon="4.03399">
        <ele>670</ele>
        <time>2017-11-20T13:21:26Z</time>
      </trkpt>
      <trkpt lat="44.34999" lon="4.03376">
        <ele>670</ele>
        <time>2017-11-20T13:21:38Z</time>
      </trkpt>
      <trkpt lat="44.34998" lon="4.03365">
        <ele>671</ele>
        <time>2017-11-20T13:21:44Z</time>
      </trkpt>
      <trkpt lat="44.35003" lon="4.03338">
        <ele>672</ele>
        <time>2017-11-20T13:21:57Z</time>
      </trkpt>
      <trkpt lat="44.35004" lon="4.03323">
        <ele>673</ele>
        <time>2017-11-20T13:22:05Z</time>
      </trkpt>
      <trkpt lat="44.35004" lon="4.03319">
        <ele>673</ele>
        <time>2017-11-20T13:22:09Z</time>
      </trkpt>
      <trkpt lat="44.35005" lon="4.03317">
        <ele>674</ele>
        <time>2017-11-20T13:22:24Z</time>
      </trkpt>
      <trkpt lat="44.35009" lon="4.03302">
        <ele>674</ele>
        <time>2017-11-20T13:22:32Z</time>
      </trkpt>
      <trkpt lat="44.35011" lon="4.03293">
        <ele>675</ele>
        <time>2017-11-20T13:22:36Z</time>
      </trkpt>
      <trkpt lat="44.35014" lon="4.03275">
        <ele>675</ele>
        <time>2017-11-20T13:22:44Z</time>
      </trkpt>
      <trkpt lat="44.35018" lon="4.03253">
        <ele>676</ele>
        <time>2017-11-20T13:22:54Z</time>
      </trkpt>
      <trkpt lat="44.35017" lon="4.0324">
        <ele>677</ele>
        <time>2017-11-20T13:23:00Z</time>
      </trkpt>
      <trkpt lat="44.35016" lon="4.03239">
        <ele>678</ele>
        <time>2017-11-20T13:23:01Z</time>
      </trkpt>
      <trkpt lat="44.35015" lon="4.03237">
        <ele>678</ele>
        <time>2017-11-20T13:23:02Z</time>
      </trkpt>
      <trkpt lat="44.35015" lon="4.03233">
        <ele>678</ele>
        <time>2017-11-20T13:23:04Z</time>
      </trkpt>
      <trkpt lat="44.35017" lon="4.03219">
        <ele>679</ele>
        <time>2017-11-20T13:23:11Z</time>
      </trkpt>
      <trkpt lat="44.35017" lon="4.03217">
        <ele>680</ele>
        <time>2017-11-20T13:23:24Z</time>
      </trkpt>
      <trkpt lat="44.35018" lon="4.03213">
        <ele>680</ele>
        <time>2017-11-20T13:23:27Z</time>
      </trkpt>
      <trkpt lat="44.35016" lon="4.03179">
        <ele>681</ele>
        <time>2017-11-20T13:23:43Z</time>
      </trkpt>
      <trkpt lat="44.35015" lon="4.03167">
        <ele>681</ele>
        <time>2017-11-20T13:23:48Z</time>
      </trkpt>
      <trkpt lat="44.35014" lon="4.03158">
        <ele>682</ele>
        <time>2017-11-20T13:23:52Z</time>
      </trkpt>
      <trkpt lat="44.35013" lon="4.03137">
        <ele>683</ele>
        <time>2017-11-20T13:24:02Z</time>
      </trkpt>
      <trkpt lat="44.3501" lon="4.03131">
        <ele>684</ele>
        <time>2017-11-20T13:24:11Z</time>
      </trkpt>
      <trkpt lat="44.35009" lon="4.03128">
        <ele>684</ele>
        <time>2017-11-20T13:24:20Z</time>
      </trkpt>
      <trkpt lat="44.35007" lon="4.031">
        <ele>685</ele>
        <time>2017-11-20T13:24:32Z</time>
      </trkpt>
      <trkpt lat="44.35009" lon="4.03075">
        <ele>686</ele>
        <time>2017-11-20T13:24:43Z</time>
      </trkpt>
      <trkpt lat="44.35014" lon="4.03046">
        <ele>687</ele>
        <time>2017-11-20T13:24:56Z</time>
      </trkpt>
      <trkpt lat="44.35019" lon="4.03031">
        <ele>688</ele>
        <time>2017-11-20T13:25:04Z</time>
      </trkpt>
      <trkpt lat="44.35019" lon="4.03024">
        <ele>688</ele>
        <time>2017-11-20T13:25:07Z</time>
      </trkpt>
      <trkpt lat="44.35022" lon="4.03">
        <ele>689</ele>
        <time>2017-11-20T13:25:18Z</time>
      </trkpt>
      <trkpt lat="44.35024" lon="4.02989">
        <ele>690</ele>
        <time>2017-11-20T13:25:24Z</time>
      </trkpt>
      <trkpt lat="44.35028" lon="4.02979">
        <ele>691</ele>
        <time>2017-11-20T13:25:30Z</time>
      </trkpt>
      <trkpt lat="44.35036" lon="4.02963">
        <ele>693</ele>
        <time>2017-11-20T13:25:39Z</time>
      </trkpt>
      <trkpt lat="44.35045" lon="4.02943">
        <ele>694</ele>
        <time>2017-11-20T13:25:49Z</time>
      </trkpt>
      <trkpt lat="44.35047" lon="4.02935">
        <ele>694</ele>
        <time>2017-11-20T13:25:53Z</time>
      </trkpt>
      <trkpt lat="44.3505" lon="4.02929">
        <ele>695</ele>
        <time>2017-11-20T13:25:57Z</time>
      </trkpt>
      <trkpt lat="44.35059" lon="4.02895">
        <ele>696</ele>
        <time>2017-11-20T13:26:13Z</time>
      </trkpt>
      <trkpt lat="44.3506" lon="4.02881">
        <ele>697</ele>
        <time>2017-11-20T13:26:20Z</time>
      </trkpt>
      <trkpt lat="44.35062" lon="4.02865">
        <ele>698</ele>
        <time>2017-11-20T13:26:28Z</time>
      </trkpt>
      <trkpt lat="44.35069" lon="4.0284">
        <ele>699</ele>
        <time>2017-11-20T13:26:41Z</time>
      </trkpt>
      <trkpt lat="44.35075" lon="4.02824">
        <ele>700</ele>
        <time>2017-11-20T13:26:51Z</time>
      </trkpt>
      <trkpt lat="44.35082" lon="4.02809">
        <ele>701</ele>
        <time>2017-11-20T13:27:00Z</time>
      </trkpt>
      <trkpt lat="44.35094" lon="4.02789">
        <ele>703</ele>
        <time>2017-11-20T13:27:18Z</time>
      </trkpt>
      <trkpt lat="44.35099" lon="4.02779">
        <ele>703</ele>
        <time>2017-11-20T13:28:05Z</time>
      </trkpt>
      <trkpt lat="44.35103" lon="4.02772">
        <ele>703</ele>
        <time>2017-11-20T13:28:10Z</time>
      </trkpt>
      <trkpt lat="44.35106" lon="4.02763">
        <ele>704</ele>
        <time>2017-11-20T13:28:15Z</time>
      </trkpt>
      <trkpt lat="44.35111" lon="4.02754">
        <ele>705</ele>
        <time>2017-11-20T13:28:21Z</time>
      </trkpt>
      <trkpt lat="44.35112" lon="4.02753">
        <ele>705</ele>
        <time>2017-11-20T13:28:22Z</time>
      </trkpt>
      <trkpt lat="44.35117" lon="4.02747">
        <ele>705</ele>
        <time>2017-11-20T13:28:26Z</time>
      </trkpt>
      <trkpt lat="44.3513" lon="4.0273">
        <ele>706</ele>
        <time>2017-11-20T13:28:38Z</time>
      </trkpt>
      <trkpt lat="44.35136" lon="4.02724">
        <ele>707</ele>
        <time>2017-11-20T13:28:43Z</time>
      </trkpt>
      <trkpt lat="44.35149" lon="4.02711">
        <ele>708</ele>
        <time>2017-11-20T13:28:54Z</time>
      </trkpt>
      <trkpt lat="44.3516" lon="4.02701">
        <ele>709</ele>
        <time>2017-11-20T13:29:03Z</time>
      </trkpt>
      <trkpt lat="44.35174" lon="4.02686">
        <ele>710</ele>
        <time>2017-11-20T13:29:14Z</time>
      </trkpt>
      <trkpt lat="44.35179" lon="4.02682">
        <ele>711</ele>
        <time>2017-11-20T13:29:18Z</time>
      </trkpt>
      <trkpt lat="44.35193" lon="4.02673">
        <ele>712</ele>
        <time>2017-11-20T13:29:28Z</time>
      </trkpt>
      <trkpt lat="44.35199" lon="4.02669">
        <ele>713</ele>
        <time>2017-11-20T13:29:33Z</time>
      </trkpt>
      <trkpt lat="44.35215" lon="4.02662">
        <ele>715</ele>
        <time>2017-11-20T13:29:44Z</time>
      </trkpt>
      <trkpt lat="44.35223" lon="4.02658">
        <ele>716</ele>
        <time>2017-11-20T13:29:49Z</time>
      </trkpt>
      <trkpt lat="44.35234" lon="4.02652">
        <ele>717</ele>
        <time>2017-11-20T13:29:57Z</time>
      </trkpt>
      <trkpt lat="44.35235" lon="4.02651">
        <ele>717</ele>
        <time>2017-11-20T13:29:58Z</time>
      </trkpt>
      <trkpt lat="44.35244" lon="4.02648">
        <ele>718</ele>
        <time>2017-11-20T13:30:04Z</time>
      </trkpt>
      <trkpt lat="44.35255" lon="4.02641">
        <ele>719</ele>
        <time>2017-11-20T13:30:13Z</time>
      </trkpt>
      <trkpt lat="44.35259" lon="4.02642">
        <ele>719</ele>
        <time>2017-11-20T13:30:16Z</time>
      </trkpt>
      <trkpt lat="44.35261" lon="4.02641">
        <ele>720</ele>
        <time>2017-11-20T13:30:17Z</time>
      </trkpt>
      <trkpt lat="44.35264" lon="4.02638">
        <ele>720</ele>
        <time>2017-11-20T13:30:20Z</time>
      </trkpt>
      <trkpt lat="44.35283" lon="4.02629">
        <ele>721</ele>
        <time>2017-11-20T13:30:33Z</time>
      </trkpt>
      <trkpt lat="44.35292" lon="4.02622">
        <ele>722</ele>
        <time>2017-11-20T13:30:40Z</time>
      </trkpt>
      <trkpt lat="44.35294" lon="4.0262">
        <ele>722</ele>
        <time>2017-11-20T13:30:42Z</time>
      </trkpt>
      <trkpt lat="44.35298" lon="4.02614">
        <ele>723</ele>
        <time>2017-11-20T13:30:47Z</time>
      </trkpt>
      <trkpt lat="44.35303" lon="4.02613">
        <ele>723</ele>
        <time>2017-11-20T13:30:51Z</time>
      </trkpt>
      <trkpt lat="44.35317" lon="4.02604">
        <ele>725</ele>
        <time>2017-11-20T13:31:03Z</time>
      </trkpt>
      <trkpt lat="44.35336" lon="4.02592">
        <ele>726</ele>
        <time>2017-11-20T13:31:17Z</time>
      </trkpt>
      <trkpt lat="44.35338" lon="4.0259">
        <ele>726</ele>
        <time>2017-11-20T13:31:19Z</time>
      </trkpt>
      <trkpt lat="44.3534" lon="4.02589">
        <ele>727</ele>
        <time>2017-11-20T13:31:21Z</time>
      </trkpt>
      <trkpt lat="44.35345" lon="4.02587">
        <ele>728</ele>
        <time>2017-11-20T13:31:25Z</time>
      </trkpt>
      <trkpt lat="44.35363" lon="4.02581">
        <ele>729</ele>
        <time>2017-11-20T13:31:38Z</time>
      </trkpt>
      <trkpt lat="44.35366" lon="4.02578">
        <ele>729</ele>
        <time>2017-11-20T13:31:41Z</time>
      </trkpt>
      <trkpt lat="44.35371" lon="4.02575">
        <ele>730</ele>
        <time>2017-11-20T13:31:45Z</time>
      </trkpt>
      <trkpt lat="44.35382" lon="4.02571">
        <ele>731</ele>
        <time>2017-11-20T13:31:56Z</time>
      </trkpt>
      <trkpt lat="44.35382" lon="4.02571">
        <ele>732</ele>
        <time>2017-11-20T13:32:20Z</time>
      </trkpt>
      <trkpt lat="44.35382" lon="4.02572">
        <ele>732</ele>
        <time>2017-11-20T13:34:50Z</time>
      </trkpt>
      <trkpt lat="44.3541" lon="4.02569">
        <ele>733</ele>
        <time>2017-11-20T13:38:19Z</time>
      </trkpt>
      <trkpt lat="44.35421" lon="4.02569">
        <ele>734</ele>
        <time>2017-11-20T13:38:26Z</time>
      </trkpt>
      <trkpt lat="44.35439" lon="4.02576">
        <ele>735</ele>
        <time>2017-11-20T13:38:38Z</time>
      </trkpt>
      <trkpt lat="44.3544" lon="4.02577">
        <ele>735</ele>
        <time>2017-11-20T13:38:39Z</time>
      </trkpt>
      <trkpt lat="44.35452" lon="4.02583">
        <ele>737</ele>
        <time>2017-11-20T13:38:47Z</time>
      </trkpt>
      <trkpt lat="44.35458" lon="4.02587">
        <ele>738</ele>
        <time>2017-11-20T13:38:52Z</time>
      </trkpt>
      <trkpt lat="44.35462" lon="4.02591">
        <ele>738</ele>
        <time>2017-11-20T13:38:55Z</time>
      </trkpt>
      <trkpt lat="44.35487" lon="4.0261">
        <ele>739</ele>
        <time>2017-11-20T13:39:13Z</time>
      </trkpt>
      <trkpt lat="44.35496" lon="4.02612">
        <ele>740</ele>
        <time>2017-11-20T13:39:19Z</time>
      </trkpt>
      <trkpt lat="44.35501" lon="4.02612">
        <ele>741</ele>
        <time>2017-11-20T13:39:22Z</time>
      </trkpt>
      <trkpt lat="44.35516" lon="4.02615">
        <ele>742</ele>
        <time>2017-11-20T13:39:32Z</time>
      </trkpt>
      <trkpt lat="44.35525" lon="4.02618">
        <ele>743</ele>
        <time>2017-11-20T13:39:41Z</time>
      </trkpt>
      <trkpt lat="44.35536" lon="4.02618">
        <ele>744</ele>
        <time>2017-11-20T13:39:50Z</time>
      </trkpt>
      <trkpt lat="44.35539" lon="4.0262">
        <ele>745</ele>
        <time>2017-11-20T13:39:52Z</time>
      </trkpt>
      <trkpt lat="44.35546" lon="4.0262">
        <ele>745</ele>
        <time>2017-11-20T13:39:58Z</time>
      </trkpt>
      <trkpt lat="44.3555" lon="4.0262">
        <ele>746</ele>
        <time>2017-11-20T13:40:01Z</time>
      </trkpt>
      <trkpt lat="44.35563" lon="4.0262">
        <ele>747</ele>
        <time>2017-11-20T13:40:10Z</time>
      </trkpt>
      <trkpt lat="44.3558" lon="4.02621">
        <ele>748</ele>
        <time>2017-11-20T13:40:22Z</time>
      </trkpt>
      <trkpt lat="44.35587" lon="4.02622">
        <ele>749</ele>
        <time>2017-11-20T13:40:27Z</time>
      </trkpt>
      <trkpt lat="44.356" lon="4.02623">
        <ele>750</ele>
        <time>2017-11-20T13:40:35Z</time>
      </trkpt>
      <trkpt lat="44.35612" lon="4.02623">
        <ele>751</ele>
        <time>2017-11-20T13:40:43Z</time>
      </trkpt>
      <trkpt lat="44.35635" lon="4.02635">
        <ele>752</ele>
        <time>2017-11-20T13:41:00Z</time>
      </trkpt>
      <trkpt lat="44.35642" lon="4.02642">
        <ele>753</ele>
        <time>2017-11-20T13:41:06Z</time>
      </trkpt>
      <trkpt lat="44.35644" lon="4.02645">
        <ele>753</ele>
        <time>2017-11-20T13:41:08Z</time>
      </trkpt>
      <trkpt lat="44.35652" lon="4.02653">
        <ele>754</ele>
        <time>2017-11-20T13:41:16Z</time>
      </trkpt>
      <trkpt lat="44.35659" lon="4.02659">
        <ele>755</ele>
        <time>2017-11-20T13:41:23Z</time>
      </trkpt>
      <trkpt lat="44.35663" lon="4.02663">
        <ele>756</ele>
        <time>2017-11-20T13:41:26Z</time>
      </trkpt>
      <trkpt lat="44.35667" lon="4.02667">
        <ele>757</ele>
        <time>2017-11-20T13:41:30Z</time>
      </trkpt>
      <trkpt lat="44.35668" lon="4.02668">
        <ele>757</ele>
        <time>2017-11-20T13:41:31Z</time>
      </trkpt>
      <trkpt lat="44.35678" lon="4.02683">
        <ele>758</ele>
        <time>2017-11-20T13:41:41Z</time>
      </trkpt>
      <trkpt lat="44.35683" lon="4.02689">
        <ele>758</ele>
        <time>2017-11-20T13:41:45Z</time>
      </trkpt>
      <trkpt lat="44.3569" lon="4.02702">
        <ele>759</ele>
        <time>2017-11-20T13:41:53Z</time>
      </trkpt>
      <trkpt lat="44.35692" lon="4.02704">
        <ele>759</ele>
        <time>2017-11-20T13:41:55Z</time>
      </trkpt>
      <trkpt lat="44.35708" lon="4.02712">
        <ele>760</ele>
        <time>2017-11-20T13:42:07Z</time>
      </trkpt>
      <trkpt lat="44.35715" lon="4.02712">
        <ele>761</ele>
        <time>2017-11-20T13:42:11Z</time>
      </trkpt>
      <trkpt lat="44.35769" lon="4.0269">
        <ele>761</ele>
        <time>2017-11-20T13:42:29Z</time>
      </trkpt>
      <trkpt lat="44.35807" lon="4.0266">
        <ele>760</ele>
        <time>2017-11-20T13:42:40Z</time>
      </trkpt>
      <trkpt lat="44.35841" lon="4.02618">
        <ele>758</ele>
        <time>2017-11-20T13:42:51Z</time>
      </trkpt>
      <trkpt lat="44.35875" lon="4.02557">
        <ele>759</ele>
        <time>2017-11-20T13:43:07Z</time>
      </trkpt>
      <trkpt lat="44.35912" lon="4.02501">
        <ele>758</ele>
        <time>2017-11-20T13:43:22Z</time>
      </trkpt>
      <trkpt lat="44.35958" lon="4.0248">
        <ele>757</ele>
        <time>2017-11-20T13:43:36Z</time>
      </trkpt>
      <trkpt lat="44.36014" lon="4.02469">
        <ele>757</ele>
        <time>2017-11-20T13:43:52Z</time>
      </trkpt>
      <trkpt lat="44.36069" lon="4.02454">
        <ele>757</ele>
        <time>2017-11-20T13:44:09Z</time>
      </trkpt>
      <trkpt lat="44.36087" lon="4.02449">
        <ele>756</ele>
        <time>2017-11-20T13:44:15Z</time>
      </trkpt>
      <trkpt lat="44.36125" lon="4.02436">
        <ele>757</ele>
        <time>2017-11-20T13:44:30Z</time>
      </trkpt>
      <trkpt lat="44.36147" lon="4.02428">
        <ele>758</ele>
        <time>2017-11-20T13:44:41Z</time>
      </trkpt>
      <trkpt lat="44.36148" lon="4.02426">
        <ele>758</ele>
        <time>2017-11-20T13:44:45Z</time>
      </trkpt>
      <trkpt lat="44.36149" lon="4.02426">
        <ele>759</ele>
        <time>2017-11-20T13:44:54Z</time>
      </trkpt>
      <trkpt lat="44.3615" lon="4.02424">
        <ele>759</ele>
        <time>2017-11-20T13:45:43Z</time>
      </trkpt>
      <trkpt lat="44.36153" lon="4.02423">
        <ele>759</ele>
        <time>2017-11-20T13:45:46Z</time>
      </trkpt>
      <trkpt lat="44.36179" lon="4.02416">
        <ele>760</ele>
        <time>2017-11-20T13:46:04Z</time>
      </trkpt>
      <trkpt lat="44.36197" lon="4.02413">
        <ele>761</ele>
        <time>2017-11-20T13:46:16Z</time>
      </trkpt>
      <trkpt lat="44.3621" lon="4.0241">
        <ele>762</ele>
        <time>2017-11-20T13:46:25Z</time>
      </trkpt>
      <trkpt lat="44.36224" lon="4.02407">
        <ele>763</ele>
        <time>2017-11-20T13:46:34Z</time>
      </trkpt>
      <trkpt lat="44.36247" lon="4.02403">
        <ele>765</ele>
        <time>2017-11-20T13:46:47Z</time>
      </trkpt>
      <trkpt lat="44.3627" lon="4.02399">
        <ele>766</ele>
        <time>2017-11-20T13:47:01Z</time>
      </trkpt>
      <trkpt lat="44.36272" lon="4.02399">
        <ele>766</ele>
        <time>2017-11-20T13:47:03Z</time>
      </trkpt>
      <trkpt lat="44.3628" lon="4.02396">
        <ele>767</ele>
        <time>2017-11-20T13:47:08Z</time>
      </trkpt>
      <trkpt lat="44.36293" lon="4.02391">
        <ele>768</ele>
        <time>2017-11-20T13:47:17Z</time>
      </trkpt>
      <trkpt lat="44.36298" lon="4.02385">
        <ele>769</ele>
        <time>2017-11-20T13:47:22Z</time>
      </trkpt>
      <trkpt lat="44.363" lon="4.02385">
        <ele>769</ele>
        <time>2017-11-20T13:47:24Z</time>
      </trkpt>
      <trkpt lat="44.36301" lon="4.02385">
        <ele>769</ele>
        <time>2017-11-20T13:47:25Z</time>
      </trkpt>
      <trkpt lat="44.3631" lon="4.02382">
        <ele>770</ele>
        <time>2017-11-20T13:47:32Z</time>
      </trkpt>
      <trkpt lat="44.36312" lon="4.02381">
        <ele>770</ele>
        <time>2017-11-20T13:47:33Z</time>
      </trkpt>
      <trkpt lat="44.36314" lon="4.02377">
        <ele>771</ele>
        <time>2017-11-20T13:47:36Z</time>
      </trkpt>
      <trkpt lat="44.36316" lon="4.02375">
        <ele>771</ele>
        <time>2017-11-20T13:47:38Z</time>
      </trkpt>
      <trkpt lat="44.36318" lon="4.02374">
        <ele>771</ele>
        <time>2017-11-20T13:47:45Z</time>
      </trkpt>
      <trkpt lat="44.3632" lon="4.02371">
        <ele>772</ele>
        <time>2017-11-20T13:47:59Z</time>
      </trkpt>
      <trkpt lat="44.36319" lon="4.02361">
        <ele>770</ele>
        <time>2017-11-20T13:48:14Z</time>
      </trkpt>
      <trkpt lat="44.36319" lon="4.02361">
        <ele>770</ele>
        <time>2017-11-20T13:48:18Z</time>
      </trkpt>
      <trkpt lat="44.36322" lon="4.02357">
        <ele>770</ele>
        <time>2017-11-20T13:49:26Z</time>
      </trkpt>
      <trkpt lat="44.3633" lon="4.02368">
        <ele>770</ele>
        <time>2017-11-20T13:49:34Z</time>
      </trkpt>
      <trkpt lat="44.36341" lon="4.02367">
        <ele>772</ele>
        <time>2017-11-20T13:49:42Z</time>
      </trkpt>
      <trkpt lat="44.36343" lon="4.02368">
        <ele>772</ele>
        <time>2017-11-20T13:49:44Z</time>
      </trkpt>
      <trkpt lat="44.36351" lon="4.02368">
        <ele>773</ele>
        <time>2017-11-20T13:49:50Z</time>
      </trkpt>
      <trkpt lat="44.36366" lon="4.02372">
        <ele>774</ele>
        <time>2017-11-20T13:50:03Z</time>
      </trkpt>
      <trkpt lat="44.3637" lon="4.02373">
        <ele>774</ele>
        <time>2017-11-20T13:50:09Z</time>
      </trkpt>
      <trkpt lat="44.36375" lon="4.02369">
        <ele>774</ele>
        <time>2017-11-20T13:50:14Z</time>
      </trkpt>
      <trkpt lat="44.36379" lon="4.02369">
        <ele>774</ele>
        <time>2017-11-20T13:50:19Z</time>
      </trkpt>
      <trkpt lat="44.36384" lon="4.0236">
        <ele>774</ele>
        <time>2017-11-20T13:50:31Z</time>
      </trkpt>
      <trkpt lat="44.36384" lon="4.02364">
        <ele>774</ele>
        <time>2017-11-20T13:50:34Z</time>
      </trkpt>
      <trkpt lat="44.36381" lon="4.02361">
        <ele>774</ele>
        <time>2017-11-20T13:50:42Z</time>
      </trkpt>
      <trkpt lat="44.36382" lon="4.02362">
        <ele>774</ele>
        <time>2017-11-20T13:50:43Z</time>
      </trkpt>
      <trkpt lat="44.36383" lon="4.02367">
        <ele>774</ele>
        <time>2017-11-20T13:50:47Z</time>
      </trkpt>
      <trkpt lat="44.3638" lon="4.02369">
        <ele>774</ele>
        <time>2017-11-20T13:50:50Z</time>
      </trkpt>
      <trkpt lat="44.36377" lon="4.02366">
        <ele>774</ele>
        <time>2017-11-20T13:50:54Z</time>
      </trkpt>
      <trkpt lat="44.36371" lon="4.02365">
        <ele>774</ele>
        <time>2017-11-20T13:50:58Z</time>
      </trkpt>
      <trkpt lat="44.36349" lon="4.02372">
        <ele>773</ele>
        <time>2017-11-20T13:51:16Z</time>
      </trkpt>
      <trkpt lat="44.3634" lon="4.02375">
        <ele>773</ele>
        <time>2017-11-20T13:51:31Z</time>
      </trkpt>
      <trkpt lat="44.36323" lon="4.02367">
        <ele>773</ele>
        <time>2017-11-20T13:51:38Z</time>
      </trkpt>
      <trkpt lat="44.36319" lon="4.02361">
        <ele>772</ele>
        <time>2017-11-20T13:51:42Z</time>
      </trkpt>
      <trkpt lat="44.36319" lon="4.02361">
        <ele>771</ele>
        <time>2017-11-20T13:51:49Z</time>
      </trkpt>
      <trkpt lat="44.36319" lon="4.02361">
        <ele>770</ele>
        <time>2017-11-20T13:51:54Z</time>
      </trkpt>
      <trkpt lat="44.36317" lon="4.02356">
        <ele>770</ele>
        <time>2017-11-20T13:53:19Z</time>
      </trkpt>
      <trkpt lat="44.363" lon="4.02344">
        <ele>768</ele>
        <time>2017-11-20T13:53:30Z</time>
      </trkpt>
      <trkpt lat="44.363" lon="4.02344">
        <ele>767</ele>
        <time>2017-11-20T13:53:32Z</time>
      </trkpt>
      <trkpt lat="44.36299" lon="4.02345">
        <ele>765</ele>
        <time>2017-11-20T13:53:34Z</time>
      </trkpt>
      <trkpt lat="44.36297" lon="4.02345">
        <ele>763</ele>
        <time>2017-11-20T13:53:36Z</time>
      </trkpt>
      <trkpt lat="44.36295" lon="4.02345">
        <ele>762</ele>
        <time>2017-11-20T13:53:37Z</time>
      </trkpt>
      <trkpt lat="44.36292" lon="4.02346">
        <ele>761</ele>
        <time>2017-11-20T13:53:39Z</time>
      </trkpt>
      <trkpt lat="44.36286" lon="4.02346">
        <ele>760</ele>
        <time>2017-11-20T13:53:43Z</time>
      </trkpt>
      <trkpt lat="44.36283" lon="4.02346">
        <ele>759</ele>
        <time>2017-11-20T13:53:45Z</time>
      </trkpt>
      <trkpt lat="44.36279" lon="4.02345">
        <ele>757</ele>
        <time>2017-11-20T13:53:47Z</time>
      </trkpt>
      <trkpt lat="44.36275" lon="4.02344">
        <ele>755</ele>
        <time>2017-11-20T13:53:49Z</time>
      </trkpt>
      <trkpt lat="44.3627" lon="4.02343">
        <ele>754</ele>
        <time>2017-11-20T13:53:51Z</time>
      </trkpt>
      <trkpt lat="44.36256" lon="4.02338">
        <ele>752</ele>
        <time>2017-11-20T13:53:54Z</time>
      </trkpt>
      <trkpt lat="44.36249" lon="4.02334">
        <ele>751</ele>
        <time>2017-11-20T13:53:56Z</time>
      </trkpt>
      <trkpt lat="44.36246" lon="4.02333">
        <ele>749</ele>
        <time>2017-11-20T13:53:58Z</time>
      </trkpt>
      <trkpt lat="44.36245" lon="4.02333">
        <ele>748</ele>
        <time>2017-11-20T13:53:59Z</time>
      </trkpt>
      <trkpt lat="44.36243" lon="4.02334">
        <ele>745</ele>
        <time>2017-11-20T13:54:01Z</time>
      </trkpt>
      <trkpt lat="44.36243" lon="4.02334">
        <ele>744</ele>
        <time>2017-11-20T13:54:02Z</time>
      </trkpt>
      <trkpt lat="44.36243" lon="4.02334">
        <ele>742</ele>
        <time>2017-11-20T13:54:04Z</time>
      </trkpt>
      <trkpt lat="44.36243" lon="4.02334">
        <ele>741</ele>
        <time>2017-11-20T13:54:06Z</time>
      </trkpt>
      <trkpt lat="44.36243" lon="4.02333">
        <ele>739</ele>
        <time>2017-11-20T13:54:08Z</time>
      </trkpt>
      <trkpt lat="44.36242" lon="4.02333">
        <ele>738</ele>
        <time>2017-11-20T13:54:11Z</time>
      </trkpt>
      <trkpt lat="44.36238" lon="4.02335">
        <ele>738</ele>
        <time>2017-11-20T13:54:22Z</time>
      </trkpt>
      <trkpt lat="44.36236" lon="4.02335">
        <ele>738</ele>
        <time>2017-11-20T13:54:24Z</time>
      </trkpt>
      <trkpt lat="44.36223" lon="4.02335">
        <ele>738</ele>
        <time>2017-11-20T13:54:31Z</time>
      </trkpt>
      <trkpt lat="44.36215" lon="4.02332">
        <ele>736</ele>
        <time>2017-11-20T13:54:34Z</time>
      </trkpt>
      <trkpt lat="44.36207" lon="4.02333">
        <ele>735</ele>
        <time>2017-11-20T13:54:37Z</time>
      </trkpt>
      <trkpt lat="44.362" lon="4.02334">
        <ele>734</ele>
        <time>2017-11-20T13:54:39Z</time>
      </trkpt>
      <trkpt lat="44.36195" lon="4.02333">
        <ele>732</ele>
        <time>2017-11-20T13:54:41Z</time>
      </trkpt>
      <trkpt lat="44.36192" lon="4.02333">
        <ele>731</ele>
        <time>2017-11-20T13:54:42Z</time>
      </trkpt>
      <trkpt lat="44.36187" lon="4.02333">
        <ele>729</ele>
        <time>2017-11-20T13:54:44Z</time>
      </trkpt>
      <trkpt lat="44.36178" lon="4.02331">
        <ele>728</ele>
        <time>2017-11-20T13:54:46Z</time>
      </trkpt>
      <trkpt lat="44.36164" lon="4.0233">
        <ele>727</ele>
        <time>2017-11-20T13:54:49Z</time>
      </trkpt>
      <trkpt lat="44.36155" lon="4.02325">
        <ele>726</ele>
        <time>2017-11-20T13:54:52Z</time>
      </trkpt>
      <trkpt lat="44.36148" lon="4.02322">
        <ele>725</ele>
        <time>2017-11-20T13:54:54Z</time>
      </trkpt>
      <trkpt lat="44.36141" lon="4.02322">
        <ele>723</ele>
        <time>2017-11-20T13:54:56Z</time>
      </trkpt>
      <trkpt lat="44.36132" lon="4.02323">
        <ele>721</ele>
        <time>2017-11-20T13:54:58Z</time>
      </trkpt>
      <trkpt lat="44.36128" lon="4.02322">
        <ele>720</ele>
        <time>2017-11-20T13:54:59Z</time>
      </trkpt>
      <trkpt lat="44.36126" lon="4.0232">
        <ele>719</ele>
        <time>2017-11-20T13:55:00Z</time>
      </trkpt>
      <trkpt lat="44.36123" lon="4.02319">
        <ele>718</ele>
        <time>2017-11-20T13:55:01Z</time>
      </trkpt>
      <trkpt lat="44.3612" lon="4.02317">
        <ele>717</ele>
        <time>2017-11-20T13:55:02Z</time>
      </trkpt>
      <trkpt lat="44.3611" lon="4.02315">
        <ele>715</ele>
        <time>2017-11-20T13:55:04Z</time>
      </trkpt>
      <trkpt lat="44.36106" lon="4.02316">
        <ele>714</ele>
        <time>2017-11-20T13:55:05Z</time>
      </trkpt>
      <trkpt lat="44.36103" lon="4.02315">
        <ele>713</ele>
        <time>2017-11-20T13:55:06Z</time>
      </trkpt>
      <trkpt lat="44.36094" lon="4.02315">
        <ele>712</ele>
        <time>2017-11-20T13:55:08Z</time>
      </trkpt>
      <trkpt lat="44.3609" lon="4.02314">
        <ele>712</ele>
        <time>2017-11-20T13:55:09Z</time>
      </trkpt>
      <trkpt lat="44.36085" lon="4.02313">
        <ele>710</ele>
        <time>2017-11-20T13:55:10Z</time>
      </trkpt>
      <trkpt lat="44.36081" lon="4.02313">
        <ele>709</ele>
        <time>2017-11-20T13:55:11Z</time>
      </trkpt>
      <trkpt lat="44.36075" lon="4.02313">
        <ele>707</ele>
        <time>2017-11-20T13:55:13Z</time>
      </trkpt>
      <trkpt lat="44.3607" lon="4.02313">
        <ele>705</ele>
        <time>2017-11-20T13:55:15Z</time>
      </trkpt>
      <trkpt lat="44.36066" lon="4.02312">
        <ele>703</ele>
        <time>2017-11-20T13:55:17Z</time>
      </trkpt>
      <trkpt lat="44.36058" lon="4.02309">
        <ele>702</ele>
        <time>2017-11-20T13:55:20Z</time>
      </trkpt>
      <trkpt lat="44.36052" lon="4.02307">
        <ele>701</ele>
        <time>2017-11-20T13:55:22Z</time>
      </trkpt>
      <trkpt lat="44.36042" lon="4.02304">
        <ele>699</ele>
        <time>2017-11-20T13:55:25Z</time>
      </trkpt>
      <trkpt lat="44.36037" lon="4.02302">
        <ele>699</ele>
        <time>2017-11-20T13:55:26Z</time>
      </trkpt>
      <trkpt lat="44.36027" lon="4.023">
        <ele>698</ele>
        <time>2017-11-20T13:55:28Z</time>
      </trkpt>
      <trkpt lat="44.3602" lon="4.02295">
        <ele>697</ele>
        <time>2017-11-20T13:55:31Z</time>
      </trkpt>
      <trkpt lat="44.36019" lon="4.02295">
        <ele>695</ele>
        <time>2017-11-20T13:55:33Z</time>
      </trkpt>
      <trkpt lat="44.36017" lon="4.02295">
        <ele>694</ele>
        <time>2017-11-20T13:55:34Z</time>
      </trkpt>
      <trkpt lat="44.36016" lon="4.02294">
        <ele>692</ele>
        <time>2017-11-20T13:55:35Z</time>
      </trkpt>
      <trkpt lat="44.36015" lon="4.02294">
        <ele>691</ele>
        <time>2017-11-20T13:55:37Z</time>
      </trkpt>
      <trkpt lat="44.36015" lon="4.02294">
        <ele>690</ele>
        <time>2017-11-20T13:55:44Z</time>
      </trkpt>
      <trkpt lat="44.36015" lon="4.02293">
        <ele>690</ele>
        <time>2017-11-20T13:56:07Z</time>
      </trkpt>
      <trkpt lat="44.36025" lon="4.02282">
        <ele>690</ele>
        <time>2017-11-20T13:56:12Z</time>
      </trkpt>
      <trkpt lat="44.36036" lon="4.02274">
        <ele>689</ele>
        <time>2017-11-20T13:56:18Z</time>
      </trkpt>
      <trkpt lat="44.36039" lon="4.02272">
        <ele>688</ele>
        <time>2017-11-20T13:56:20Z</time>
      </trkpt>
      <trkpt lat="44.36045" lon="4.02269">
        <ele>686</ele>
        <time>2017-11-20T13:56:22Z</time>
      </trkpt>
      <trkpt lat="44.36048" lon="4.02266">
        <ele>685</ele>
        <time>2017-11-20T13:56:23Z</time>
      </trkpt>
      <trkpt lat="44.36053" lon="4.02262">
        <ele>684</ele>
        <time>2017-11-20T13:56:25Z</time>
      </trkpt>
      <trkpt lat="44.36056" lon="4.0226">
        <ele>682</ele>
        <time>2017-11-20T13:56:26Z</time>
      </trkpt>
      <trkpt lat="44.36063" lon="4.02256">
        <ele>681</ele>
        <time>2017-11-20T13:56:28Z</time>
      </trkpt>
      <trkpt lat="44.3607" lon="4.0225">
        <ele>679</ele>
        <time>2017-11-20T13:56:30Z</time>
      </trkpt>
      <trkpt lat="44.36073" lon="4.02247">
        <ele>678</ele>
        <time>2017-11-20T13:56:31Z</time>
      </trkpt>
      <trkpt lat="44.3608" lon="4.0224">
        <ele>677</ele>
        <time>2017-11-20T13:56:33Z</time>
      </trkpt>
      <trkpt lat="44.36084" lon="4.02234">
        <ele>675</ele>
        <time>2017-11-20T13:56:35Z</time>
      </trkpt>
      <trkpt lat="44.36089" lon="4.02227">
        <ele>674</ele>
        <time>2017-11-20T13:56:37Z</time>
      </trkpt>
      <trkpt lat="44.36095" lon="4.0222">
        <ele>673</ele>
        <time>2017-11-20T13:56:39Z</time>
      </trkpt>
      <trkpt lat="44.36097" lon="4.02217">
        <ele>672</ele>
        <time>2017-11-20T13:56:40Z</time>
      </trkpt>
      <trkpt lat="44.36098" lon="4.02214">
        <ele>671</ele>
        <time>2017-11-20T13:56:41Z</time>
      </trkpt>
      <trkpt lat="44.36099" lon="4.02209">
        <ele>670</ele>
        <time>2017-11-20T13:56:43Z</time>
      </trkpt>
      <trkpt lat="44.36101" lon="4.02205">
        <ele>669</ele>
        <time>2017-11-20T13:56:45Z</time>
      </trkpt>
      <trkpt lat="44.36102" lon="4.02202">
        <ele>668</ele>
        <time>2017-11-20T13:56:46Z</time>
      </trkpt>
      <trkpt lat="44.36104" lon="4.02193">
        <ele>667</ele>
        <time>2017-11-20T13:56:48Z</time>
      </trkpt>
      <trkpt lat="44.36108" lon="4.02182">
        <ele>666</ele>
        <time>2017-11-20T13:56:50Z</time>
      </trkpt>
      <trkpt lat="44.36116" lon="4.02171">
        <ele>664</ele>
        <time>2017-11-20T13:56:53Z</time>
      </trkpt>
      <trkpt lat="44.36122" lon="4.02167">
        <ele>663</ele>
        <time>2017-11-20T13:56:55Z</time>
      </trkpt>
      <trkpt lat="44.36125" lon="4.02166">
        <ele>662</ele>
        <time>2017-11-20T13:56:56Z</time>
      </trkpt>
      <trkpt lat="44.3613" lon="4.02165">
        <ele>660</ele>
        <time>2017-11-20T13:56:58Z</time>
      </trkpt>
      <trkpt lat="44.36133" lon="4.02162">
        <ele>659</ele>
        <time>2017-11-20T13:56:59Z</time>
      </trkpt>
      <trkpt lat="44.36135" lon="4.02159">
        <ele>659</ele>
        <time>2017-11-20T13:57:00Z</time>
      </trkpt>
      <trkpt lat="44.36136" lon="4.02153">
        <ele>658</ele>
        <time>2017-11-20T13:57:02Z</time>
      </trkpt>
      <trkpt lat="44.36135" lon="4.02134">
        <ele>656</ele>
        <time>2017-11-20T13:57:06Z</time>
      </trkpt>
      <trkpt lat="44.36132" lon="4.02115">
        <ele>655</ele>
        <time>2017-11-20T13:57:09Z</time>
      </trkpt>
      <trkpt lat="44.36133" lon="4.02084">
        <ele>654</ele>
        <time>2017-11-20T13:57:13Z</time>
      </trkpt>
      <trkpt lat="44.36136" lon="4.0207">
        <ele>652</ele>
        <time>2017-11-20T13:57:16Z</time>
      </trkpt>
      <trkpt lat="44.36139" lon="4.0206">
        <ele>651</ele>
        <time>2017-11-20T13:57:18Z</time>
      </trkpt>
      <trkpt lat="44.36141" lon="4.02055">
        <ele>650</ele>
        <time>2017-11-20T13:57:19Z</time>
      </trkpt>
      <trkpt lat="44.36143" lon="4.02049">
        <ele>649</ele>
        <time>2017-11-20T13:57:20Z</time>
      </trkpt>
      <trkpt lat="44.36145" lon="4.02042">
        <ele>648</ele>
        <time>2017-11-20T13:57:21Z</time>
      </trkpt>
      <trkpt lat="44.36151" lon="4.02028">
        <ele>646</ele>
        <time>2017-11-20T13:57:23Z</time>
      </trkpt>
      <trkpt lat="44.36156" lon="4.02016">
        <ele>645</ele>
        <time>2017-11-20T13:57:25Z</time>
      </trkpt>
      <trkpt lat="44.36158" lon="4.0201">
        <ele>643</ele>
        <time>2017-11-20T13:57:26Z</time>
      </trkpt>
      <trkpt lat="44.36162" lon="4.01997">
        <ele>642</ele>
        <time>2017-11-20T13:57:28Z</time>
      </trkpt>
      <trkpt lat="44.36162" lon="4.01991">
        <ele>641</ele>
        <time>2017-11-20T13:57:29Z</time>
      </trkpt>
      <trkpt lat="44.36163" lon="4.01986">
        <ele>640</ele>
        <time>2017-11-20T13:57:30Z</time>
      </trkpt>
      <trkpt lat="44.36164" lon="4.01977">
        <ele>638</ele>
        <time>2017-11-20T13:57:32Z</time>
      </trkpt>
      <trkpt lat="44.36162" lon="4.01973">
        <ele>637</ele>
        <time>2017-11-20T13:57:33Z</time>
      </trkpt>
      <trkpt lat="44.36158" lon="4.01967">
        <ele>636</ele>
        <time>2017-11-20T13:57:35Z</time>
      </trkpt>
      <trkpt lat="44.36157" lon="4.01967">
        <ele>634</ele>
        <time>2017-11-20T13:57:37Z</time>
      </trkpt>
      <trkpt lat="44.36156" lon="4.01967">
        <ele>633</ele>
        <time>2017-11-20T13:57:38Z</time>
      </trkpt>
      <trkpt lat="44.36157" lon="4.01969">
        <ele>632</ele>
        <time>2017-11-20T13:57:39Z</time>
      </trkpt>
      <trkpt lat="44.36157" lon="4.01971">
        <ele>632</ele>
        <time>2017-11-20T13:57:40Z</time>
      </trkpt>
      <trkpt lat="44.36158" lon="4.01972">
        <ele>631</ele>
        <time>2017-11-20T13:57:41Z</time>
      </trkpt>
      <trkpt lat="44.36158" lon="4.01976">
        <ele>630</ele>
        <time>2017-11-20T13:57:43Z</time>
      </trkpt>
      <trkpt lat="44.36151" lon="4.01986">
        <ele>629</ele>
        <time>2017-11-20T13:57:47Z</time>
      </trkpt>
      <trkpt lat="44.3614" lon="4.01997">
        <ele>628</ele>
        <time>2017-11-20T13:57:52Z</time>
      </trkpt>
      <trkpt lat="44.36115" lon="4.02038">
        <ele>628</ele>
        <time>2017-11-20T13:58:04Z</time>
      </trkpt>
      <trkpt lat="44.36087" lon="4.02101">
        <ele>627</ele>
        <time>2017-11-20T13:58:21Z</time>
      </trkpt>
      <trkpt lat="44.36066" lon="4.0212">
        <ele>628</ele>
        <time>2017-11-20T13:58:33Z</time>
      </trkpt>
      <trkpt lat="44.36056" lon="4.02116">
        <ele>629</ele>
        <time>2017-11-20T13:58:38Z</time>
      </trkpt>
      <trkpt lat="44.36012" lon="4.02092">
        <ele>629</ele>
        <time>2017-11-20T13:58:53Z</time>
      </trkpt>
      <trkpt lat="44.35987" lon="4.02096">
        <ele>627</ele>
        <time>2017-11-20T13:58:58Z</time>
      </trkpt>
      <trkpt lat="44.35982" lon="4.02099">
        <ele>627</ele>
        <time>2017-11-20T13:58:59Z</time>
      </trkpt>
      <trkpt lat="44.35972" lon="4.02106">
        <ele>627</ele>
        <time>2017-11-20T13:59:01Z</time>
      </trkpt>
      <trkpt lat="44.35951" lon="4.0213">
        <ele>625</ele>
        <time>2017-11-20T13:59:05Z</time>
      </trkpt>
      <trkpt lat="44.35945" lon="4.02136">
        <ele>625</ele>
        <time>2017-11-20T13:59:06Z</time>
      </trkpt>
      <trkpt lat="44.3594" lon="4.02141">
        <ele>624</ele>
        <time>2017-11-20T13:59:07Z</time>
      </trkpt>
      <trkpt lat="44.35933" lon="4.02143">
        <ele>623</ele>
        <time>2017-11-20T13:59:08Z</time>
      </trkpt>
      <trkpt lat="44.35914" lon="4.02133">
        <ele>622</ele>
        <time>2017-11-20T13:59:11Z</time>
      </trkpt>
      <trkpt lat="44.35897" lon="4.0212">
        <ele>621</ele>
        <time>2017-11-20T13:59:14Z</time>
      </trkpt>
      <trkpt lat="44.35887" lon="4.02111">
        <ele>620</ele>
        <time>2017-11-20T13:59:16Z</time>
      </trkpt>
      <trkpt lat="44.35877" lon="4.021">
        <ele>618</ele>
        <time>2017-11-20T13:59:18Z</time>
      </trkpt>
      <trkpt lat="44.35864" lon="4.02065">
        <ele>617</ele>
        <time>2017-11-20T13:59:22Z</time>
      </trkpt>
      <trkpt lat="44.35861" lon="4.02054">
        <ele>616</ele>
        <time>2017-11-20T13:59:23Z</time>
      </trkpt>
      <trkpt lat="44.3585" lon="4.02025">
        <ele>616</ele>
        <time>2017-11-20T13:59:26Z</time>
      </trkpt>
      <trkpt lat="44.35839" lon="4.02008">
        <ele>615</ele>
        <time>2017-11-20T13:59:28Z</time>
      </trkpt>
      <trkpt lat="44.35832" lon="4.02001">
        <ele>614</ele>
        <time>2017-11-20T13:59:29Z</time>
      </trkpt>
      <trkpt lat="44.35825" lon="4.01994">
        <ele>613</ele>
        <time>2017-11-20T13:59:30Z</time>
      </trkpt>
      <trkpt lat="44.35817" lon="4.01988">
        <ele>611</ele>
        <time>2017-11-20T13:59:31Z</time>
      </trkpt>
      <trkpt lat="44.35808" lon="4.01982">
        <ele>610</ele>
        <time>2017-11-20T13:59:32Z</time>
      </trkpt>
      <trkpt lat="44.35799" lon="4.01977">
        <ele>609</ele>
        <time>2017-11-20T13:59:33Z</time>
      </trkpt>
      <trkpt lat="44.3578" lon="4.01969">
        <ele>608</ele>
        <time>2017-11-20T13:59:35Z</time>
      </trkpt>
      <trkpt lat="44.3577" lon="4.01966">
        <ele>607</ele>
        <time>2017-11-20T13:59:36Z</time>
      </trkpt>
      <trkpt lat="44.35749" lon="4.01963">
        <ele>607</ele>
        <time>2017-11-20T13:59:38Z</time>
      </trkpt>
      <trkpt lat="44.35716" lon="4.0196">
        <ele>605</ele>
        <time>2017-11-20T13:59:41Z</time>
      </trkpt>
      <trkpt lat="44.35704" lon="4.01962">
        <ele>604</ele>
        <time>2017-11-20T13:59:42Z</time>
      </trkpt>
      <trkpt lat="44.35678" lon="4.01979">
        <ele>603</ele>
        <time>2017-11-20T13:59:45Z</time>
      </trkpt>
      <trkpt lat="44.35675" lon="4.02014">
        <ele>602</ele>
        <time>2017-11-20T13:59:48Z</time>
      </trkpt>
      <trkpt lat="44.35679" lon="4.02041">
        <ele>599</ele>
        <time>2017-11-20T13:59:50Z</time>
      </trkpt>
      <trkpt lat="44.35681" lon="4.02055">
        <ele>598</ele>
        <time>2017-11-20T13:59:51Z</time>
      </trkpt>
      <trkpt lat="44.35684" lon="4.0207">
        <ele>597</ele>
        <time>2017-11-20T13:59:52Z</time>
      </trkpt>
      <trkpt lat="44.35685" lon="4.02083">
        <ele>596</ele>
        <time>2017-11-20T13:59:53Z</time>
      </trkpt>
      <trkpt lat="44.35685" lon="4.02107">
        <ele>595</ele>
        <time>2017-11-20T13:59:55Z</time>
      </trkpt>
      <trkpt lat="44.35683" lon="4.02117">
        <ele>593</ele>
        <time>2017-11-20T13:59:56Z</time>
      </trkpt>
      <trkpt lat="44.3568" lon="4.02125">
        <ele>591</ele>
        <time>2017-11-20T13:59:57Z</time>
      </trkpt>
      <trkpt lat="44.35674" lon="4.0213">
        <ele>589</ele>
        <time>2017-11-20T13:59:58Z</time>
      </trkpt>
      <trkpt lat="44.35667" lon="4.02132">
        <ele>587</ele>
        <time>2017-11-20T13:59:59Z</time>
      </trkpt>
      <trkpt lat="44.35659" lon="4.02131">
        <ele>586</ele>
        <time>2017-11-20T14:00:00Z</time>
      </trkpt>
      <trkpt lat="44.35646" lon="4.02126">
        <ele>585</ele>
        <time>2017-11-20T14:00:02Z</time>
      </trkpt>
      <trkpt lat="44.35639" lon="4.02122">
        <ele>585</ele>
        <time>2017-11-20T14:00:03Z</time>
      </trkpt>
      <trkpt lat="44.35619" lon="4.02115">
        <ele>584</ele>
        <time>2017-11-20T14:00:06Z</time>
      </trkpt>
      <trkpt lat="44.35607" lon="4.02113">
        <ele>583</ele>
        <time>2017-11-20T14:00:08Z</time>
      </trkpt>
      <trkpt lat="44.35596" lon="4.02119">
        <ele>581</ele>
        <time>2017-11-20T14:00:10Z</time>
      </trkpt>
      <trkpt lat="44.35585" lon="4.02129">
        <ele>580</ele>
        <time>2017-11-20T14:00:12Z</time>
      </trkpt>
      <trkpt lat="44.3558" lon="4.02133">
        <ele>579</ele>
        <time>2017-11-20T14:00:13Z</time>
      </trkpt>
      <trkpt lat="44.35568" lon="4.02128">
        <ele>578</ele>
        <time>2017-11-20T14:00:15Z</time>
      </trkpt>
      <trkpt lat="44.35563" lon="4.02104">
        <ele>577</ele>
        <time>2017-11-20T14:00:18Z</time>
      </trkpt>
      <trkpt lat="44.35561" lon="4.02085">
        <ele>575</ele>
        <time>2017-11-20T14:00:20Z</time>
      </trkpt>
      <trkpt lat="44.35559" lon="4.02075">
        <ele>575</ele>
        <time>2017-11-20T14:00:21Z</time>
      </trkpt>
      <trkpt lat="44.35552" lon="4.02056">
        <ele>574</ele>
        <time>2017-11-20T14:00:23Z</time>
      </trkpt>
      <trkpt lat="44.35531" lon="4.02023">
        <ele>573</ele>
        <time>2017-11-20T14:00:27Z</time>
      </trkpt>
      <trkpt lat="44.35525" lon="4.02015">
        <ele>572</ele>
        <time>2017-11-20T14:00:28Z</time>
      </trkpt>
      <trkpt lat="44.35513" lon="4.02">
        <ele>571</ele>
        <time>2017-11-20T14:00:30Z</time>
      </trkpt>
      <trkpt lat="44.35506" lon="4.01993">
        <ele>570</ele>
        <time>2017-11-20T14:00:31Z</time>
      </trkpt>
      <trkpt lat="44.35499" lon="4.01986">
        <ele>570</ele>
        <time>2017-11-20T14:00:32Z</time>
      </trkpt>
      <trkpt lat="44.35476" lon="4.01962">
        <ele>568</ele>
        <time>2017-11-20T14:00:35Z</time>
      </trkpt>
      <trkpt lat="44.35461" lon="4.01947">
        <ele>567</ele>
        <time>2017-11-20T14:00:37Z</time>
      </trkpt>
      <trkpt lat="44.35445" lon="4.01935">
        <ele>565</ele>
        <time>2017-11-20T14:00:39Z</time>
      </trkpt>
      <trkpt lat="44.35429" lon="4.01926">
        <ele>564</ele>
        <time>2017-11-20T14:00:41Z</time>
      </trkpt>
      <trkpt lat="44.35412" lon="4.01921">
        <ele>562</ele>
        <time>2017-11-20T14:00:43Z</time>
      </trkpt>
      <trkpt lat="44.35394" lon="4.01919">
        <ele>560</ele>
        <time>2017-11-20T14:00:45Z</time>
      </trkpt>
      <trkpt lat="44.35374" lon="4.01921">
        <ele>559</ele>
        <time>2017-11-20T14:00:47Z</time>
      </trkpt>
      <trkpt lat="44.35355" lon="4.01927">
        <ele>559</ele>
        <time>2017-11-20T14:00:49Z</time>
      </trkpt>
      <trkpt lat="44.35346" lon="4.01932">
        <ele>558</ele>
        <time>2017-11-20T14:00:50Z</time>
      </trkpt>
      <trkpt lat="44.35337" lon="4.01937">
        <ele>557</ele>
        <time>2017-11-20T14:00:51Z</time>
      </trkpt>
      <trkpt lat="44.35317" lon="4.0195">
        <ele>555</ele>
        <time>2017-11-20T14:00:53Z</time>
      </trkpt>
      <trkpt lat="44.35306" lon="4.01955">
        <ele>554</ele>
        <time>2017-11-20T14:00:54Z</time>
      </trkpt>
      <trkpt lat="44.35295" lon="4.0196">
        <ele>553</ele>
        <time>2017-11-20T14:00:55Z</time>
      </trkpt>
      <trkpt lat="44.35274" lon="4.01968">
        <ele>552</ele>
        <time>2017-11-20T14:00:57Z</time>
      </trkpt>
      <trkpt lat="44.35248" lon="4.01975">
        <ele>551</ele>
        <time>2017-11-20T14:01:00Z</time>
      </trkpt>
      <trkpt lat="44.35241" lon="4.0198">
        <ele>549</ele>
        <time>2017-11-20T14:01:01Z</time>
      </trkpt>
      <trkpt lat="44.35236" lon="4.0199">
        <ele>548</ele>
        <time>2017-11-20T14:01:02Z</time>
      </trkpt>
      <trkpt lat="44.35231" lon="4.02001">
        <ele>546</ele>
        <time>2017-11-20T14:01:03Z</time>
      </trkpt>
      <trkpt lat="44.35224" lon="4.0201">
        <ele>544</ele>
        <time>2017-11-20T14:01:04Z</time>
      </trkpt>
      <trkpt lat="44.35211" lon="4.02019">
        <ele>542</ele>
        <time>2017-11-20T14:01:06Z</time>
      </trkpt>
      <trkpt lat="44.35199" lon="4.02001">
        <ele>541</ele>
        <time>2017-11-20T14:01:09Z</time>
      </trkpt>
      <trkpt lat="44.35196" lon="4.01993">
        <ele>541</ele>
        <time>2017-11-20T14:01:10Z</time>
      </trkpt>
      <trkpt lat="44.35189" lon="4.01975">
        <ele>540</ele>
        <time>2017-11-20T14:01:12Z</time>
      </trkpt>
      <trkpt lat="44.35184" lon="4.01967">
        <ele>540</ele>
        <time>2017-11-20T14:01:13Z</time>
      </trkpt>
      <trkpt lat="44.35178" lon="4.0196">
        <ele>539</ele>
        <time>2017-11-20T14:01:14Z</time>
      </trkpt>
      <trkpt lat="44.35171" lon="4.01954">
        <ele>539</ele>
        <time>2017-11-20T14:01:15Z</time>
      </trkpt>
      <trkpt lat="44.35151" lon="4.01937">
        <ele>537</ele>
        <time>2017-11-20T14:01:18Z</time>
      </trkpt>
      <trkpt lat="44.35137" lon="4.01927">
        <ele>535</ele>
        <time>2017-11-20T14:01:20Z</time>
      </trkpt>
      <trkpt lat="44.35124" lon="4.01919">
        <ele>534</ele>
        <time>2017-11-20T14:01:22Z</time>
      </trkpt>
      <trkpt lat="44.3508" lon="4.01875">
        <ele>533</ele>
        <time>2017-11-20T14:01:31Z</time>
      </trkpt>
      <trkpt lat="44.35072" lon="4.01867">
        <ele>533</ele>
        <time>2017-11-20T14:01:33Z</time>
      </trkpt>
      <trkpt lat="44.35033" lon="4.01809">
        <ele>533</ele>
        <time>2017-11-20T14:01:48Z</time>
      </trkpt>
      <trkpt lat="44.35028" lon="4.018">
        <ele>533</ele>
        <time>2017-11-20T14:01:50Z</time>
      </trkpt>
      <trkpt lat="44.35015" lon="4.01762">
        <ele>533</ele>
        <time>2017-11-20T14:01:56Z</time>
      </trkpt>
      <trkpt lat="44.3501" lon="4.01744">
        <ele>533</ele>
        <time>2017-11-20T14:01:59Z</time>
      </trkpt>
      <trkpt lat="44.35009" lon="4.01739">
        <ele>533</ele>
        <time>2017-11-20T14:02:00Z</time>
      </trkpt>
      <trkpt lat="44.34996" lon="4.0167">
        <ele>532</ele>
        <time>2017-11-20T14:02:14Z</time>
      </trkpt>
      <trkpt lat="44.34991" lon="4.01655">
        <ele>532</ele>
        <time>2017-11-20T14:02:16Z</time>
      </trkpt>
      <trkpt lat="44.34986" lon="4.01638">
        <ele>532</ele>
        <time>2017-11-20T14:02:18Z</time>
      </trkpt>
      <trkpt lat="44.34979" lon="4.0162">
        <ele>531</ele>
        <time>2017-11-20T14:02:20Z</time>
      </trkpt>
      <trkpt lat="44.34969" lon="4.01593">
        <ele>529</ele>
        <time>2017-11-20T14:02:23Z</time>
      </trkpt>
      <trkpt lat="44.34964" lon="4.01575">
        <ele>527</ele>
        <time>2017-11-20T14:02:25Z</time>
      </trkpt>
      <trkpt lat="44.34962" lon="4.01567">
        <ele>526</ele>
        <time>2017-11-20T14:02:26Z</time>
      </trkpt>
      <trkpt lat="44.34959" lon="4.01559">
        <ele>525</ele>
        <time>2017-11-20T14:02:27Z</time>
      </trkpt>
      <trkpt lat="44.34952" lon="4.01547">
        <ele>523</ele>
        <time>2017-11-20T14:02:29Z</time>
      </trkpt>
      <trkpt lat="44.34943" lon="4.01525">
        <ele>522</ele>
        <time>2017-11-20T14:02:32Z</time>
      </trkpt>
      <trkpt lat="44.3492" lon="4.01472">
        <ele>521</ele>
        <time>2017-11-20T14:02:40Z</time>
      </trkpt>
      <trkpt lat="44.34912" lon="4.01461">
        <ele>520</ele>
        <time>2017-11-20T14:02:42Z</time>
      </trkpt>
      <trkpt lat="44.34901" lon="4.0145">
        <ele>519</ele>
        <time>2017-11-20T14:02:44Z</time>
      </trkpt>
      <trkpt lat="44.34883" lon="4.01432">
        <ele>519</ele>
        <time>2017-11-20T14:02:47Z</time>
      </trkpt>
      <trkpt lat="44.34857" lon="4.0141">
        <ele>518</ele>
        <time>2017-11-20T14:02:51Z</time>
      </trkpt>
      <trkpt lat="44.3485" lon="4.01405">
        <ele>517</ele>
        <time>2017-11-20T14:02:52Z</time>
      </trkpt>
      <trkpt lat="44.34843" lon="4.01402">
        <ele>516</ele>
        <time>2017-11-20T14:02:53Z</time>
      </trkpt>
      <trkpt lat="44.3483" lon="4.01395">
        <ele>514</ele>
        <time>2017-11-20T14:02:55Z</time>
      </trkpt>
      <trkpt lat="44.34811" lon="4.01383">
        <ele>513</ele>
        <time>2017-11-20T14:02:58Z</time>
      </trkpt>
      <trkpt lat="44.34795" lon="4.01369">
        <ele>512</ele>
        <time>2017-11-20T14:03:01Z</time>
      </trkpt>
      <trkpt lat="44.34788" lon="4.01359">
        <ele>512</ele>
        <time>2017-11-20T14:03:03Z</time>
      </trkpt>
      <trkpt lat="44.34778" lon="4.0134">
        <ele>511</ele>
        <time>2017-11-20T14:03:08Z</time>
      </trkpt>
      <trkpt lat="44.34764" lon="4.01322">
        <ele>513</ele>
        <time>2017-11-20T14:03:15Z</time>
      </trkpt>
      <trkpt lat="44.34757" lon="4.01312">
        <ele>514</ele>
        <time>2017-11-20T14:03:19Z</time>
      </trkpt>
      <trkpt lat="44.34714" lon="4.01267">
        <ele>514</ele>
        <time>2017-11-20T14:03:37Z</time>
      </trkpt>
      <trkpt lat="44.34713" lon="4.01218">
        <ele>514</ele>
        <time>2017-11-20T14:03:54Z</time>
      </trkpt>
      <trkpt lat="44.34713" lon="4.01217">
        <ele>514</ele>
        <time>2017-11-20T14:05:55Z</time>
      </trkpt>
      <trkpt lat="44.34713" lon="4.01218">
        <ele>514</ele>
        <time>2017-11-20T14:05:57Z</time>
      </trkpt>
    </trkseg>
  </trk>
</gpx>